<?xml version="1.0" encoding="UTF-8" standalone="no" ?>
<gpx xmlns="http://www.topografix.com/GPX/1/1" xmlns:xsi="http://www.w3.org/2001/XMLSchema-instance" xsi:schemaLocation="http://www.topografix.com/GPX/1/1 http://www.topografix.com/GPX/1/1/gpx.xsd" version="1.1" creator="VisuGPX - https://www.visugpx.com">
  <metadata>
    <name>9566742-2019 j3 decouverte</name>
  </metadata>
  <trk>
    <name><![CDATA[9566742-2019 j3 decouverte]]></name>
    <trkseg>
      <trkpt lat="46.07827" lon="6.72631">
        <ele>706</ele>
        <time>2019-06-11T14:31:18Z</time>
      </trkpt>
      <trkpt lat="46.07863" lon="6.72539">
        <ele>703</ele>
        <time>2019-06-11T14:31:31Z</time>
      </trkpt>
      <trkpt lat="46.0788" lon="6.72552">
        <ele>703</ele>
        <time>2019-06-11T14:31:34Z</time>
      </trkpt>
      <trkpt lat="46.07907" lon="6.72566">
        <ele>703</ele>
        <time>2019-06-11T14:31:40Z</time>
      </trkpt>
      <trkpt lat="46.08016" lon="6.72647">
        <ele>704</ele>
        <time>2019-06-11T14:32:01Z</time>
      </trkpt>
      <trkpt lat="46.08031" lon="6.72661">
        <ele>704</ele>
        <time>2019-06-11T14:32:05Z</time>
      </trkpt>
      <trkpt lat="46.08046" lon="6.72683">
        <ele>705</ele>
        <time>2019-06-11T14:32:08Z</time>
      </trkpt>
      <trkpt lat="46.08053" lon="6.72697">
        <ele>705</ele>
        <time>2019-06-11T14:32:11Z</time>
      </trkpt>
      <trkpt lat="46.08047" lon="6.72705">
        <ele>706</ele>
        <time>2019-06-11T14:32:12Z</time>
      </trkpt>
      <trkpt lat="46.08046" lon="6.72717">
        <ele>706</ele>
        <time>2019-06-11T14:32:13Z</time>
      </trkpt>
      <trkpt lat="46.08051" lon="6.72727">
        <ele>707</ele>
        <time>2019-06-11T14:32:15Z</time>
      </trkpt>
      <trkpt lat="46.08059" lon="6.72729">
        <ele>707</ele>
        <time>2019-06-11T14:32:16Z</time>
      </trkpt>
      <trkpt lat="46.08062" lon="6.72728">
        <ele>706</ele>
        <time>2019-06-11T14:32:17Z</time>
      </trkpt>
      <trkpt lat="46.08068" lon="6.72721">
        <ele>706</ele>
        <time>2019-06-11T14:32:18Z</time>
      </trkpt>
      <trkpt lat="46.0807" lon="6.72712">
        <ele>706</ele>
        <time>2019-06-11T14:32:20Z</time>
      </trkpt>
      <trkpt lat="46.08069" lon="6.72705">
        <ele>706</ele>
        <time>2019-06-11T14:32:20Z</time>
      </trkpt>
      <trkpt lat="46.08065" lon="6.72698">
        <ele>705</ele>
        <time>2019-06-11T14:32:22Z</time>
      </trkpt>
      <trkpt lat="46.08226" lon="6.72404">
        <ele>701</ele>
        <time>2019-06-11T14:33:08Z</time>
      </trkpt>
      <trkpt lat="46.08228" lon="6.72401">
        <ele>700</ele>
        <time>2019-06-11T14:33:08Z</time>
      </trkpt>
      <trkpt lat="46.08234" lon="6.72408">
        <ele>700</ele>
        <time>2019-06-11T14:33:10Z</time>
      </trkpt>
      <trkpt lat="46.08238" lon="6.7241">
        <ele>700</ele>
        <time>2019-06-11T14:33:10Z</time>
      </trkpt>
      <trkpt lat="46.08243" lon="6.72409">
        <ele>700</ele>
        <time>2019-06-11T14:33:11Z</time>
      </trkpt>
      <trkpt lat="46.08247" lon="6.72405">
        <ele>700</ele>
        <time>2019-06-11T14:33:12Z</time>
      </trkpt>
      <trkpt lat="46.08251" lon="6.72396">
        <ele>700</ele>
        <time>2019-06-11T14:33:13Z</time>
      </trkpt>
      <trkpt lat="46.0825" lon="6.72384">
        <ele>700</ele>
        <time>2019-06-11T14:33:15Z</time>
      </trkpt>
      <trkpt lat="46.08254" lon="6.72379">
        <ele>700</ele>
        <time>2019-06-11T14:33:16Z</time>
      </trkpt>
      <trkpt lat="46.08278" lon="6.72336">
        <ele>700</ele>
        <time>2019-06-11T14:33:23Z</time>
      </trkpt>
      <trkpt lat="46.08302" lon="6.72328">
        <ele>699</ele>
        <time>2019-06-11T14:33:27Z</time>
      </trkpt>
      <trkpt lat="46.08307" lon="6.7233">
        <ele>699</ele>
        <time>2019-06-11T14:33:28Z</time>
      </trkpt>
      <trkpt lat="46.08413" lon="6.72417">
        <ele>707</ele>
        <time>2019-06-11T14:33:50Z</time>
      </trkpt>
      <trkpt lat="46.0842" lon="6.72416">
        <ele>707</ele>
        <time>2019-06-11T14:33:51Z</time>
      </trkpt>
      <trkpt lat="46.08423" lon="6.72411">
        <ele>707</ele>
        <time>2019-06-11T14:33:52Z</time>
      </trkpt>
      <trkpt lat="46.08428" lon="6.72384">
        <ele>706</ele>
        <time>2019-06-11T14:33:55Z</time>
      </trkpt>
      <trkpt lat="46.08442" lon="6.72394">
        <ele>708</ele>
        <time>2019-06-11T14:33:58Z</time>
      </trkpt>
      <trkpt lat="46.08448" lon="6.72385">
        <ele>708</ele>
        <time>2019-06-11T14:34:00Z</time>
      </trkpt>
      <trkpt lat="46.0852" lon="6.72279">
        <ele>710</ele>
        <time>2019-06-11T14:34:18Z</time>
      </trkpt>
      <trkpt lat="46.08534" lon="6.72266">
        <ele>712</ele>
        <time>2019-06-11T14:34:21Z</time>
      </trkpt>
      <trkpt lat="46.08551" lon="6.72259">
        <ele>714</ele>
        <time>2019-06-11T14:34:24Z</time>
      </trkpt>
      <trkpt lat="46.08573" lon="6.72256">
        <ele>718</ele>
        <time>2019-06-11T14:34:28Z</time>
      </trkpt>
      <trkpt lat="46.08616" lon="6.72245">
        <ele>725</ele>
        <time>2019-06-11T14:34:36Z</time>
      </trkpt>
      <trkpt lat="46.08631" lon="6.72236">
        <ele>727</ele>
        <time>2019-06-11T14:34:39Z</time>
      </trkpt>
      <trkpt lat="46.08644" lon="6.72226">
        <ele>728</ele>
        <time>2019-06-11T14:34:41Z</time>
      </trkpt>
      <trkpt lat="46.08721" lon="6.72138">
        <ele>739</ele>
        <time>2019-06-11T14:34:59Z</time>
      </trkpt>
      <trkpt lat="46.08731" lon="6.72122">
        <ele>740</ele>
        <time>2019-06-11T14:35:01Z</time>
      </trkpt>
      <trkpt lat="46.08791" lon="6.72008">
        <ele>753</ele>
        <time>2019-06-11T14:35:19Z</time>
      </trkpt>
      <trkpt lat="46.08801" lon="6.71986">
        <ele>755</ele>
        <time>2019-06-11T14:35:22Z</time>
      </trkpt>
      <trkpt lat="46.08807" lon="6.71963">
        <ele>756</ele>
        <time>2019-06-11T14:35:25Z</time>
      </trkpt>
      <trkpt lat="46.08844" lon="6.71801">
        <ele>763</ele>
        <time>2019-06-11T14:35:46Z</time>
      </trkpt>
      <trkpt lat="46.08869" lon="6.71705">
        <ele>768</ele>
        <time>2019-06-11T14:35:59Z</time>
      </trkpt>
      <trkpt lat="46.08876" lon="6.71689">
        <ele>769</ele>
        <time>2019-06-11T14:36:01Z</time>
      </trkpt>
      <trkpt lat="46.0888" lon="6.71684">
        <ele>770</ele>
        <time>2019-06-11T14:36:02Z</time>
      </trkpt>
      <trkpt lat="46.08902" lon="6.71665">
        <ele>777</ele>
        <time>2019-06-11T14:36:07Z</time>
      </trkpt>
      <trkpt lat="46.08914" lon="6.71651">
        <ele>780</ele>
        <time>2019-06-11T14:36:10Z</time>
      </trkpt>
      <trkpt lat="46.0898" lon="6.71548">
        <ele>795</ele>
        <time>2019-06-11T14:36:27Z</time>
      </trkpt>
      <trkpt lat="46.08987" lon="6.71529">
        <ele>797</ele>
        <time>2019-06-11T14:36:30Z</time>
      </trkpt>
      <trkpt lat="46.09002" lon="6.71446">
        <ele>802</ele>
        <time>2019-06-11T14:36:40Z</time>
      </trkpt>
      <trkpt lat="46.09007" lon="6.71433">
        <ele>803</ele>
        <time>2019-06-11T14:36:42Z</time>
      </trkpt>
      <trkpt lat="46.09016" lon="6.71418">
        <ele>805</ele>
        <time>2019-06-11T14:36:44Z</time>
      </trkpt>
      <trkpt lat="46.09027" lon="6.71407">
        <ele>808</ele>
        <time>2019-06-11T14:36:47Z</time>
      </trkpt>
      <trkpt lat="46.09098" lon="6.7135">
        <ele>820</ele>
        <time>2019-06-11T14:37:01Z</time>
      </trkpt>
      <trkpt lat="46.09127" lon="6.71326">
        <ele>825</ele>
        <time>2019-06-11T14:37:07Z</time>
      </trkpt>
      <trkpt lat="46.09135" lon="6.71312">
        <ele>826</ele>
        <time>2019-06-11T14:37:09Z</time>
      </trkpt>
      <trkpt lat="46.09139" lon="6.7129">
        <ele>827</ele>
        <time>2019-06-11T14:37:12Z</time>
      </trkpt>
      <trkpt lat="46.09138" lon="6.71269">
        <ele>826</ele>
        <time>2019-06-11T14:37:15Z</time>
      </trkpt>
      <trkpt lat="46.09123" lon="6.71213">
        <ele>824</ele>
        <time>2019-06-11T14:37:22Z</time>
      </trkpt>
      <trkpt lat="46.0913" lon="6.7121">
        <ele>826</ele>
        <time>2019-06-11T14:37:24Z</time>
      </trkpt>
      <trkpt lat="46.09148" lon="6.71207">
        <ele>829</ele>
        <time>2019-06-11T14:37:27Z</time>
      </trkpt>
      <trkpt lat="46.09157" lon="6.71211">
        <ele>831</ele>
        <time>2019-06-11T14:37:28Z</time>
      </trkpt>
      <trkpt lat="46.09167" lon="6.71219">
        <ele>833</ele>
        <time>2019-06-11T14:37:30Z</time>
      </trkpt>
      <trkpt lat="46.09193" lon="6.71249">
        <ele>837</ele>
        <time>2019-06-11T14:37:36Z</time>
      </trkpt>
      <trkpt lat="46.09204" lon="6.71269">
        <ele>840</ele>
        <time>2019-06-11T14:37:40Z</time>
      </trkpt>
      <trkpt lat="46.09212" lon="6.71292">
        <ele>842</ele>
        <time>2019-06-11T14:37:43Z</time>
      </trkpt>
      <trkpt lat="46.09219" lon="6.71304">
        <ele>844</ele>
        <time>2019-06-11T14:37:45Z</time>
      </trkpt>
      <trkpt lat="46.09234" lon="6.71314">
        <ele>847</ele>
        <time>2019-06-11T14:37:48Z</time>
      </trkpt>
      <trkpt lat="46.0924" lon="6.71323">
        <ele>848</ele>
        <time>2019-06-11T14:37:49Z</time>
      </trkpt>
      <trkpt lat="46.09244" lon="6.71342">
        <ele>849</ele>
        <time>2019-06-11T14:37:52Z</time>
      </trkpt>
      <trkpt lat="46.09246" lon="6.71362">
        <ele>850</ele>
        <time>2019-06-11T14:37:54Z</time>
      </trkpt>
      <trkpt lat="46.09245" lon="6.71388">
        <ele>850</ele>
        <time>2019-06-11T14:37:57Z</time>
      </trkpt>
      <trkpt lat="46.09232" lon="6.71426">
        <ele>849</ele>
        <time>2019-06-11T14:38:02Z</time>
      </trkpt>
      <trkpt lat="46.09224" lon="6.71442">
        <ele>849</ele>
        <time>2019-06-11T14:38:05Z</time>
      </trkpt>
      <trkpt lat="46.09214" lon="6.71456">
        <ele>848</ele>
        <time>2019-06-11T14:38:07Z</time>
      </trkpt>
      <trkpt lat="46.09212" lon="6.71466">
        <ele>848</ele>
        <time>2019-06-11T14:38:09Z</time>
      </trkpt>
      <trkpt lat="46.09214" lon="6.71476">
        <ele>850</ele>
        <time>2019-06-11T14:38:10Z</time>
      </trkpt>
      <trkpt lat="46.09229" lon="6.71499">
        <ele>854</ele>
        <time>2019-06-11T14:38:14Z</time>
      </trkpt>
      <trkpt lat="46.09241" lon="6.71523">
        <ele>858</ele>
        <time>2019-06-11T14:38:18Z</time>
      </trkpt>
      <trkpt lat="46.09244" lon="6.7153">
        <ele>859</ele>
        <time>2019-06-11T14:38:19Z</time>
      </trkpt>
      <trkpt lat="46.09247" lon="6.71556">
        <ele>862</ele>
        <time>2019-06-11T14:38:22Z</time>
      </trkpt>
      <trkpt lat="46.09246" lon="6.71573">
        <ele>863</ele>
        <time>2019-06-11T14:38:24Z</time>
      </trkpt>
      <trkpt lat="46.09239" lon="6.71597">
        <ele>864</ele>
        <time>2019-06-11T14:38:27Z</time>
      </trkpt>
      <trkpt lat="46.09236" lon="6.71605">
        <ele>864</ele>
        <time>2019-06-11T14:38:28Z</time>
      </trkpt>
      <trkpt lat="46.09226" lon="6.71618">
        <ele>863</ele>
        <time>2019-06-11T14:38:31Z</time>
      </trkpt>
      <trkpt lat="46.0922" lon="6.71631">
        <ele>863</ele>
        <time>2019-06-11T14:38:33Z</time>
      </trkpt>
      <trkpt lat="46.09216" lon="6.71648">
        <ele>864</ele>
        <time>2019-06-11T14:38:35Z</time>
      </trkpt>
      <trkpt lat="46.09214" lon="6.7178">
        <ele>876</ele>
        <time>2019-06-11T14:38:51Z</time>
      </trkpt>
      <trkpt lat="46.09212" lon="6.71795">
        <ele>878</ele>
        <time>2019-06-11T14:38:53Z</time>
      </trkpt>
      <trkpt lat="46.09205" lon="6.7181">
        <ele>878</ele>
        <time>2019-06-11T14:38:55Z</time>
      </trkpt>
      <trkpt lat="46.09174" lon="6.7187">
        <ele>878</ele>
        <time>2019-06-11T14:39:04Z</time>
      </trkpt>
      <trkpt lat="46.09163" lon="6.71894">
        <ele>878</ele>
        <time>2019-06-11T14:39:08Z</time>
      </trkpt>
      <trkpt lat="46.09149" lon="6.71928">
        <ele>879</ele>
        <time>2019-06-11T14:39:13Z</time>
      </trkpt>
      <trkpt lat="46.09145" lon="6.71941">
        <ele>880</ele>
        <time>2019-06-11T14:39:15Z</time>
      </trkpt>
      <trkpt lat="46.09141" lon="6.71969">
        <ele>883</ele>
        <time>2019-06-11T14:39:18Z</time>
      </trkpt>
      <trkpt lat="46.09132" lon="6.72062">
        <ele>895</ele>
        <time>2019-06-11T14:39:30Z</time>
      </trkpt>
      <trkpt lat="46.09123" lon="6.72115">
        <ele>899</ele>
        <time>2019-06-11T14:39:36Z</time>
      </trkpt>
      <trkpt lat="46.091" lon="6.72219">
        <ele>905</ele>
        <time>2019-06-11T14:39:50Z</time>
      </trkpt>
      <trkpt lat="46.0909" lon="6.72348">
        <ele>920</ele>
        <time>2019-06-11T14:40:06Z</time>
      </trkpt>
      <trkpt lat="46.09067" lon="6.72482">
        <ele>923</ele>
        <time>2019-06-11T14:40:23Z</time>
      </trkpt>
      <trkpt lat="46.09063" lon="6.72509">
        <ele>924</ele>
        <time>2019-06-11T14:40:26Z</time>
      </trkpt>
      <trkpt lat="46.09056" lon="6.72631">
        <ele>934</ele>
        <time>2019-06-11T14:40:41Z</time>
      </trkpt>
      <trkpt lat="46.09057" lon="6.7264">
        <ele>935</ele>
        <time>2019-06-11T14:40:43Z</time>
      </trkpt>
      <trkpt lat="46.0906" lon="6.72649">
        <ele>937</ele>
        <time>2019-06-11T14:40:44Z</time>
      </trkpt>
      <trkpt lat="46.09064" lon="6.72653">
        <ele>940</ele>
        <time>2019-06-11T14:40:45Z</time>
      </trkpt>
      <trkpt lat="46.09068" lon="6.7265">
        <ele>941</ele>
        <time>2019-06-11T14:40:46Z</time>
      </trkpt>
      <trkpt lat="46.09073" lon="6.7264">
        <ele>943</ele>
        <time>2019-06-11T14:40:47Z</time>
      </trkpt>
      <trkpt lat="46.0909" lon="6.72565">
        <ele>944</ele>
        <time>2019-06-11T14:40:57Z</time>
      </trkpt>
      <trkpt lat="46.09106" lon="6.72513">
        <ele>946</ele>
        <time>2019-06-11T14:41:04Z</time>
      </trkpt>
      <trkpt lat="46.09123" lon="6.72482">
        <ele>951</ele>
        <time>2019-06-11T14:41:09Z</time>
      </trkpt>
      <trkpt lat="46.09173" lon="6.72381">
        <ele>962</ele>
        <time>2019-06-11T14:41:24Z</time>
      </trkpt>
      <trkpt lat="46.09199" lon="6.72318">
        <ele>965</ele>
        <time>2019-06-11T14:41:33Z</time>
      </trkpt>
      <trkpt lat="46.09226" lon="6.72278">
        <ele>972</ele>
        <time>2019-06-11T14:41:40Z</time>
      </trkpt>
      <trkpt lat="46.09235" lon="6.72257">
        <ele>973</ele>
        <time>2019-06-11T14:41:43Z</time>
      </trkpt>
      <trkpt lat="46.0925" lon="6.72208">
        <ele>973</ele>
        <time>2019-06-11T14:41:50Z</time>
      </trkpt>
      <trkpt lat="46.09258" lon="6.72189">
        <ele>973</ele>
        <time>2019-06-11T14:41:52Z</time>
      </trkpt>
      <trkpt lat="46.09278" lon="6.72155">
        <ele>975</ele>
        <time>2019-06-11T14:41:58Z</time>
      </trkpt>
      <trkpt lat="46.09312" lon="6.72109">
        <ele>978</ele>
        <time>2019-06-11T14:42:06Z</time>
      </trkpt>
      <trkpt lat="46.09322" lon="6.72097">
        <ele>980</ele>
        <time>2019-06-11T14:42:08Z</time>
      </trkpt>
      <trkpt lat="46.09401" lon="6.72038">
        <ele>992</ele>
        <time>2019-06-11T14:42:24Z</time>
      </trkpt>
      <trkpt lat="46.0942" lon="6.72017">
        <ele>992</ele>
        <time>2019-06-11T14:42:29Z</time>
      </trkpt>
      <trkpt lat="46.09456" lon="6.71987">
        <ele>997</ele>
        <time>2019-06-11T14:42:36Z</time>
      </trkpt>
      <trkpt lat="46.09505" lon="6.71962">
        <ele>1007</ele>
        <time>2019-06-11T14:42:45Z</time>
      </trkpt>
      <trkpt lat="46.09539" lon="6.71951">
        <ele>1010</ele>
        <time>2019-06-11T14:42:51Z</time>
      </trkpt>
      <trkpt lat="46.0955" lon="6.71954">
        <ele>1013</ele>
        <time>2019-06-11T14:42:53Z</time>
      </trkpt>
      <trkpt lat="46.09566" lon="6.71971">
        <ele>1019</ele>
        <time>2019-06-11T14:42:57Z</time>
      </trkpt>
      <trkpt lat="46.09574" lon="6.71987">
        <ele>1023</ele>
        <time>2019-06-11T14:42:59Z</time>
      </trkpt>
      <trkpt lat="46.09572" lon="6.72004">
        <ele>1026</ele>
        <time>2019-06-11T14:43:01Z</time>
      </trkpt>
      <trkpt lat="46.09568" lon="6.72011">
        <ele>1027</ele>
        <time>2019-06-11T14:43:03Z</time>
      </trkpt>
      <trkpt lat="46.09564" lon="6.72013">
        <ele>1027</ele>
        <time>2019-06-11T14:43:03Z</time>
      </trkpt>
      <trkpt lat="46.09538" lon="6.72018">
        <ele>1024</ele>
        <time>2019-06-11T14:43:08Z</time>
      </trkpt>
      <trkpt lat="46.09521" lon="6.72024">
        <ele>1023</ele>
        <time>2019-06-11T14:43:11Z</time>
      </trkpt>
      <trkpt lat="46.09512" lon="6.7203">
        <ele>1022</ele>
        <time>2019-06-11T14:43:13Z</time>
      </trkpt>
      <trkpt lat="46.09481" lon="6.72062">
        <ele>1022</ele>
        <time>2019-06-11T14:43:20Z</time>
      </trkpt>
      <trkpt lat="46.09477" lon="6.72073">
        <ele>1023</ele>
        <time>2019-06-11T14:43:21Z</time>
      </trkpt>
      <trkpt lat="46.09478" lon="6.7208">
        <ele>1025</ele>
        <time>2019-06-11T14:43:22Z</time>
      </trkpt>
      <trkpt lat="46.09482" lon="6.7209">
        <ele>1028</ele>
        <time>2019-06-11T14:43:23Z</time>
      </trkpt>
      <trkpt lat="46.09484" lon="6.72092">
        <ele>1029</ele>
        <time>2019-06-11T14:43:24Z</time>
      </trkpt>
      <trkpt lat="46.09491" lon="6.72091">
        <ele>1031</ele>
        <time>2019-06-11T14:43:25Z</time>
      </trkpt>
      <trkpt lat="46.09502" lon="6.72082">
        <ele>1032</ele>
        <time>2019-06-11T14:43:27Z</time>
      </trkpt>
      <trkpt lat="46.09515" lon="6.72076">
        <ele>1033</ele>
        <time>2019-06-11T14:43:30Z</time>
      </trkpt>
      <trkpt lat="46.09525" lon="6.72074">
        <ele>1034</ele>
        <time>2019-06-11T14:43:32Z</time>
      </trkpt>
      <trkpt lat="46.09537" lon="6.72075">
        <ele>1036</ele>
        <time>2019-06-11T14:43:34Z</time>
      </trkpt>
      <trkpt lat="46.09559" lon="6.72081">
        <ele>1041</ele>
        <time>2019-06-11T14:43:38Z</time>
      </trkpt>
      <trkpt lat="46.09585" lon="6.72071">
        <ele>1043</ele>
        <time>2019-06-11T14:43:43Z</time>
      </trkpt>
      <trkpt lat="46.09599" lon="6.72072">
        <ele>1044</ele>
        <time>2019-06-11T14:43:45Z</time>
      </trkpt>
      <trkpt lat="46.09655" lon="6.72083">
        <ele>1049</ele>
        <time>2019-06-11T14:43:55Z</time>
      </trkpt>
      <trkpt lat="46.09661" lon="6.72085">
        <ele>1050</ele>
        <time>2019-06-11T14:43:56Z</time>
      </trkpt>
      <trkpt lat="46.09669" lon="6.72092">
        <ele>1051</ele>
        <time>2019-06-11T14:43:58Z</time>
      </trkpt>
      <trkpt lat="46.09679" lon="6.72117">
        <ele>1054</ele>
        <time>2019-06-11T14:44:01Z</time>
      </trkpt>
      <trkpt lat="46.09681" lon="6.72152">
        <ele>1058</ele>
        <time>2019-06-11T14:44:06Z</time>
      </trkpt>
      <trkpt lat="46.09683" lon="6.72157">
        <ele>1058</ele>
        <time>2019-06-11T14:44:06Z</time>
      </trkpt>
      <trkpt lat="46.0969" lon="6.7216">
        <ele>1059</ele>
        <time>2019-06-11T14:44:08Z</time>
      </trkpt>
      <trkpt lat="46.09704" lon="6.72157">
        <ele>1059</ele>
        <time>2019-06-11T14:44:10Z</time>
      </trkpt>
      <trkpt lat="46.09724" lon="6.72143">
        <ele>1059</ele>
        <time>2019-06-11T14:44:14Z</time>
      </trkpt>
      <trkpt lat="46.09734" lon="6.72133">
        <ele>1059</ele>
        <time>2019-06-11T14:44:16Z</time>
      </trkpt>
      <trkpt lat="46.09745" lon="6.72114">
        <ele>1059</ele>
        <time>2019-06-11T14:44:19Z</time>
      </trkpt>
      <trkpt lat="46.09764" lon="6.72053">
        <ele>1062</ele>
        <time>2019-06-11T14:44:28Z</time>
      </trkpt>
      <trkpt lat="46.09779" lon="6.72023">
        <ele>1065</ele>
        <time>2019-06-11T14:44:32Z</time>
      </trkpt>
      <trkpt lat="46.0979" lon="6.71992">
        <ele>1067</ele>
        <time>2019-06-11T14:44:37Z</time>
      </trkpt>
      <trkpt lat="46.09796" lon="6.71982">
        <ele>1068</ele>
        <time>2019-06-11T14:44:38Z</time>
      </trkpt>
      <trkpt lat="46.09803" lon="6.71979">
        <ele>1070</ele>
        <time>2019-06-11T14:44:39Z</time>
      </trkpt>
      <trkpt lat="46.0981" lon="6.71981">
        <ele>1072</ele>
        <time>2019-06-11T14:44:41Z</time>
      </trkpt>
      <trkpt lat="46.09816" lon="6.71988">
        <ele>1074</ele>
        <time>2019-06-11T14:44:42Z</time>
      </trkpt>
      <trkpt lat="46.09818" lon="6.71993">
        <ele>1075</ele>
        <time>2019-06-11T14:44:43Z</time>
      </trkpt>
      <trkpt lat="46.09817" lon="6.72005">
        <ele>1075</ele>
        <time>2019-06-11T14:44:44Z</time>
      </trkpt>
      <trkpt lat="46.09809" lon="6.72034">
        <ele>1073</ele>
        <time>2019-06-11T14:44:48Z</time>
      </trkpt>
      <trkpt lat="46.09808" lon="6.72055">
        <ele>1074</ele>
        <time>2019-06-11T14:44:51Z</time>
      </trkpt>
      <trkpt lat="46.09811" lon="6.72088">
        <ele>1075</ele>
        <time>2019-06-11T14:44:55Z</time>
      </trkpt>
      <trkpt lat="46.09815" lon="6.72101">
        <ele>1076</ele>
        <time>2019-06-11T14:44:57Z</time>
      </trkpt>
      <trkpt lat="46.09827" lon="6.72118">
        <ele>1079</ele>
        <time>2019-06-11T14:45:00Z</time>
      </trkpt>
      <trkpt lat="46.09836" lon="6.72095">
        <ele>1082</ele>
        <time>2019-06-11T14:45:03Z</time>
      </trkpt>
      <trkpt lat="46.09843" lon="6.72081">
        <ele>1083</ele>
        <time>2019-06-11T14:45:05Z</time>
      </trkpt>
      <trkpt lat="46.09866" lon="6.7205">
        <ele>1088</ele>
        <time>2019-06-11T14:45:11Z</time>
      </trkpt>
      <trkpt lat="46.09877" lon="6.72041">
        <ele>1090</ele>
        <time>2019-06-11T14:45:13Z</time>
      </trkpt>
      <trkpt lat="46.09905" lon="6.72027">
        <ele>1096</ele>
        <time>2019-06-11T14:45:18Z</time>
      </trkpt>
      <trkpt lat="46.09913" lon="6.7202">
        <ele>1098</ele>
        <time>2019-06-11T14:45:20Z</time>
      </trkpt>
      <trkpt lat="46.09917" lon="6.72009">
        <ele>1098</ele>
        <time>2019-06-11T14:45:21Z</time>
      </trkpt>
      <trkpt lat="46.09924" lon="6.71978">
        <ele>1098</ele>
        <time>2019-06-11T14:45:25Z</time>
      </trkpt>
      <trkpt lat="46.09929" lon="6.71967">
        <ele>1098</ele>
        <time>2019-06-11T14:45:27Z</time>
      </trkpt>
      <trkpt lat="46.09937" lon="6.71959">
        <ele>1099</ele>
        <time>2019-06-11T14:45:29Z</time>
      </trkpt>
      <trkpt lat="46.09969" lon="6.71936">
        <ele>1103</ele>
        <time>2019-06-11T14:45:35Z</time>
      </trkpt>
      <trkpt lat="46.09988" lon="6.71912">
        <ele>1105</ele>
        <time>2019-06-11T14:45:40Z</time>
      </trkpt>
      <trkpt lat="46.10042" lon="6.71876">
        <ele>1110</ele>
        <time>2019-06-11T14:45:50Z</time>
      </trkpt>
      <trkpt lat="46.10083" lon="6.71841">
        <ele>1112</ele>
        <time>2019-06-11T14:45:59Z</time>
      </trkpt>
      <trkpt lat="46.10131" lon="6.71792">
        <ele>1119</ele>
        <time>2019-06-11T14:46:09Z</time>
      </trkpt>
      <trkpt lat="46.10142" lon="6.71778">
        <ele>1120</ele>
        <time>2019-06-11T14:46:12Z</time>
      </trkpt>
      <trkpt lat="46.10149" lon="6.71758">
        <ele>1120</ele>
        <time>2019-06-11T14:46:14Z</time>
      </trkpt>
      <trkpt lat="46.10189" lon="6.71556">
        <ele>1116</ele>
        <time>2019-06-11T14:46:40Z</time>
      </trkpt>
      <trkpt lat="46.10226" lon="6.71415">
        <ele>1121</ele>
        <time>2019-06-11T14:46:59Z</time>
      </trkpt>
      <trkpt lat="46.10229" lon="6.71397">
        <ele>1121</ele>
        <time>2019-06-11T14:47:01Z</time>
      </trkpt>
      <trkpt lat="46.10233" lon="6.71345">
        <ele>1121</ele>
        <time>2019-06-11T14:47:08Z</time>
      </trkpt>
      <trkpt lat="46.1024" lon="6.71326">
        <ele>1121</ele>
        <time>2019-06-11T14:47:10Z</time>
      </trkpt>
      <trkpt lat="46.10241" lon="6.71333">
        <ele>1121</ele>
        <time>2019-06-11T14:47:11Z</time>
      </trkpt>
      <trkpt lat="46.10271" lon="6.71398">
        <ele>1127</ele>
        <time>2019-06-11T14:47:21Z</time>
      </trkpt>
      <trkpt lat="46.10284" lon="6.71414">
        <ele>1129</ele>
        <time>2019-06-11T14:47:24Z</time>
      </trkpt>
      <trkpt lat="46.10337" lon="6.71453">
        <ele>1138</ele>
        <time>2019-06-11T14:47:35Z</time>
      </trkpt>
      <trkpt lat="46.10366" lon="6.71468">
        <ele>1144</ele>
        <time>2019-06-11T14:47:40Z</time>
      </trkpt>
      <trkpt lat="46.1042" lon="6.71484">
        <ele>1155</ele>
        <time>2019-06-11T14:47:50Z</time>
      </trkpt>
      <trkpt lat="46.10431" lon="6.71484">
        <ele>1157</ele>
        <time>2019-06-11T14:47:52Z</time>
      </trkpt>
      <trkpt lat="46.1044" lon="6.71481">
        <ele>1159</ele>
        <time>2019-06-11T14:47:53Z</time>
      </trkpt>
      <trkpt lat="46.10447" lon="6.71472">
        <ele>1160</ele>
        <time>2019-06-11T14:47:55Z</time>
      </trkpt>
      <trkpt lat="46.10452" lon="6.71459">
        <ele>1159</ele>
        <time>2019-06-11T14:47:57Z</time>
      </trkpt>
      <trkpt lat="46.1046" lon="6.71385">
        <ele>1157</ele>
        <time>2019-06-11T14:48:06Z</time>
      </trkpt>
      <trkpt lat="46.1046" lon="6.71372">
        <ele>1157</ele>
        <time>2019-06-11T14:48:08Z</time>
      </trkpt>
      <trkpt lat="46.10457" lon="6.71346">
        <ele>1157</ele>
        <time>2019-06-11T14:48:11Z</time>
      </trkpt>
      <trkpt lat="46.10459" lon="6.71339">
        <ele>1157</ele>
        <time>2019-06-11T14:48:12Z</time>
      </trkpt>
      <trkpt lat="46.10465" lon="6.71334">
        <ele>1159</ele>
        <time>2019-06-11T14:48:13Z</time>
      </trkpt>
      <trkpt lat="46.10474" lon="6.71337">
        <ele>1161</ele>
        <time>2019-06-11T14:48:15Z</time>
      </trkpt>
      <trkpt lat="46.1048" lon="6.71349">
        <ele>1162</ele>
        <time>2019-06-11T14:48:17Z</time>
      </trkpt>
      <trkpt lat="46.10485" lon="6.71368">
        <ele>1164</ele>
        <time>2019-06-11T14:48:19Z</time>
      </trkpt>
      <trkpt lat="46.10485" lon="6.71382">
        <ele>1164</ele>
        <time>2019-06-11T14:48:21Z</time>
      </trkpt>
      <trkpt lat="46.10479" lon="6.71411">
        <ele>1162</ele>
        <time>2019-06-11T14:48:25Z</time>
      </trkpt>
      <trkpt lat="46.1048" lon="6.71421">
        <ele>1163</ele>
        <time>2019-06-11T14:48:26Z</time>
      </trkpt>
      <trkpt lat="46.10483" lon="6.71426">
        <ele>1164</ele>
        <time>2019-06-11T14:48:27Z</time>
      </trkpt>
      <trkpt lat="46.10487" lon="6.71427">
        <ele>1165</ele>
        <time>2019-06-11T14:48:27Z</time>
      </trkpt>
      <trkpt lat="46.10491" lon="6.71425">
        <ele>1166</ele>
        <time>2019-06-11T14:48:28Z</time>
      </trkpt>
      <trkpt lat="46.10497" lon="6.71416">
        <ele>1167</ele>
        <time>2019-06-11T14:48:30Z</time>
      </trkpt>
      <trkpt lat="46.10516" lon="6.71365">
        <ele>1173</ele>
        <time>2019-06-11T14:48:37Z</time>
      </trkpt>
      <trkpt lat="46.10519" lon="6.71345">
        <ele>1174</ele>
        <time>2019-06-11T14:48:39Z</time>
      </trkpt>
      <trkpt lat="46.10521" lon="6.71288">
        <ele>1177</ele>
        <time>2019-06-11T14:48:46Z</time>
      </trkpt>
      <trkpt lat="46.10526" lon="6.71252">
        <ele>1180</ele>
        <time>2019-06-11T14:48:51Z</time>
      </trkpt>
      <trkpt lat="46.10552" lon="6.71139">
        <ele>1185</ele>
        <time>2019-06-11T14:49:06Z</time>
      </trkpt>
      <trkpt lat="46.10565" lon="6.71104">
        <ele>1185</ele>
        <time>2019-06-11T14:49:11Z</time>
      </trkpt>
      <trkpt lat="46.10574" lon="6.7109">
        <ele>1187</ele>
        <time>2019-06-11T14:49:13Z</time>
      </trkpt>
      <trkpt lat="46.10582" lon="6.71082">
        <ele>1188</ele>
        <time>2019-06-11T14:49:15Z</time>
      </trkpt>
      <trkpt lat="46.10587" lon="6.71079">
        <ele>1190</ele>
        <time>2019-06-11T14:49:16Z</time>
      </trkpt>
      <trkpt lat="46.10603" lon="6.71077">
        <ele>1195</ele>
        <time>2019-06-11T14:49:18Z</time>
      </trkpt>
      <trkpt lat="46.10611" lon="6.71079">
        <ele>1197</ele>
        <time>2019-06-11T14:49:20Z</time>
      </trkpt>
      <trkpt lat="46.10615" lon="6.71084">
        <ele>1199</ele>
        <time>2019-06-11T14:49:21Z</time>
      </trkpt>
      <trkpt lat="46.10619" lon="6.71096">
        <ele>1202</ele>
        <time>2019-06-11T14:49:22Z</time>
      </trkpt>
      <trkpt lat="46.10619" lon="6.71144">
        <ele>1207</ele>
        <time>2019-06-11T14:49:28Z</time>
      </trkpt>
      <trkpt lat="46.10616" lon="6.71171">
        <ele>1208</ele>
        <time>2019-06-11T14:49:32Z</time>
      </trkpt>
      <trkpt lat="46.1062" lon="6.71194">
        <ele>1210</ele>
        <time>2019-06-11T14:49:35Z</time>
      </trkpt>
      <trkpt lat="46.1065" lon="6.71259">
        <ele>1221</ele>
        <time>2019-06-11T14:49:44Z</time>
      </trkpt>
      <trkpt lat="46.10655" lon="6.71277">
        <ele>1224</ele>
        <time>2019-06-11T14:49:47Z</time>
      </trkpt>
      <trkpt lat="46.10658" lon="6.71312">
        <ele>1227</ele>
        <time>2019-06-11T14:49:51Z</time>
      </trkpt>
      <trkpt lat="46.1065" lon="6.71372">
        <ele>1226</ele>
        <time>2019-06-11T14:49:59Z</time>
      </trkpt>
      <trkpt lat="46.10653" lon="6.71381">
        <ele>1228</ele>
        <time>2019-06-11T14:50:00Z</time>
      </trkpt>
      <trkpt lat="46.10657" lon="6.71383">
        <ele>1230</ele>
        <time>2019-06-11T14:50:01Z</time>
      </trkpt>
      <trkpt lat="46.10663" lon="6.71381">
        <ele>1232</ele>
        <time>2019-06-11T14:50:02Z</time>
      </trkpt>
      <trkpt lat="46.10672" lon="6.71346">
        <ele>1235</ele>
        <time>2019-06-11T14:50:06Z</time>
      </trkpt>
      <trkpt lat="46.10713" lon="6.71259">
        <ele>1248</ele>
        <time>2019-06-11T14:50:19Z</time>
      </trkpt>
      <trkpt lat="46.10724" lon="6.7123">
        <ele>1251</ele>
        <time>2019-06-11T14:50:23Z</time>
      </trkpt>
      <trkpt lat="46.10752" lon="6.71144">
        <ele>1253</ele>
        <time>2019-06-11T14:50:35Z</time>
      </trkpt>
      <trkpt lat="46.10769" lon="6.71082">
        <ele>1251</ele>
        <time>2019-06-11T14:50:43Z</time>
      </trkpt>
      <trkpt lat="46.10778" lon="6.71047">
        <ele>1253</ele>
        <time>2019-06-11T14:50:48Z</time>
      </trkpt>
      <trkpt lat="46.10787" lon="6.71001">
        <ele>1256</ele>
        <time>2019-06-11T14:50:54Z</time>
      </trkpt>
      <trkpt lat="46.10793" lon="6.70986">
        <ele>1258</ele>
        <time>2019-06-11T14:50:56Z</time>
      </trkpt>
      <trkpt lat="46.10799" lon="6.70979">
        <ele>1260</ele>
        <time>2019-06-11T14:50:57Z</time>
      </trkpt>
      <trkpt lat="46.10803" lon="6.70978">
        <ele>1262</ele>
        <time>2019-06-11T14:50:58Z</time>
      </trkpt>
      <trkpt lat="46.10813" lon="6.70985">
        <ele>1266</ele>
        <time>2019-06-11T14:51:00Z</time>
      </trkpt>
      <trkpt lat="46.1082" lon="6.70997">
        <ele>1269</ele>
        <time>2019-06-11T14:51:02Z</time>
      </trkpt>
      <trkpt lat="46.10844" lon="6.71058">
        <ele>1277</ele>
        <time>2019-06-11T14:51:11Z</time>
      </trkpt>
      <trkpt lat="46.10851" lon="6.71088">
        <ele>1280</ele>
        <time>2019-06-11T14:51:14Z</time>
      </trkpt>
      <trkpt lat="46.10853" lon="6.71129">
        <ele>1282</ele>
        <time>2019-06-11T14:51:20Z</time>
      </trkpt>
      <trkpt lat="46.10852" lon="6.71208">
        <ele>1288</ele>
        <time>2019-06-11T14:51:29Z</time>
      </trkpt>
      <trkpt lat="46.10839" lon="6.71284">
        <ele>1290</ele>
        <time>2019-06-11T14:51:39Z</time>
      </trkpt>
      <trkpt lat="46.10838" lon="6.71295">
        <ele>1291</ele>
        <time>2019-06-11T14:51:40Z</time>
      </trkpt>
      <trkpt lat="46.1084" lon="6.71304">
        <ele>1292</ele>
        <time>2019-06-11T14:51:41Z</time>
      </trkpt>
      <trkpt lat="46.10847" lon="6.71309">
        <ele>1295</ele>
        <time>2019-06-11T14:51:43Z</time>
      </trkpt>
      <trkpt lat="46.10851" lon="6.71309">
        <ele>1296</ele>
        <time>2019-06-11T14:51:44Z</time>
      </trkpt>
      <trkpt lat="46.10853" lon="6.71306">
        <ele>1297</ele>
        <time>2019-06-11T14:51:44Z</time>
      </trkpt>
      <trkpt lat="46.10891" lon="6.71197">
        <ele>1305</ele>
        <time>2019-06-11T14:51:59Z</time>
      </trkpt>
      <trkpt lat="46.10896" lon="6.71163">
        <ele>1306</ele>
        <time>2019-06-11T14:52:03Z</time>
      </trkpt>
      <trkpt lat="46.10897" lon="6.71147">
        <ele>1306</ele>
        <time>2019-06-11T14:52:05Z</time>
      </trkpt>
      <trkpt lat="46.10895" lon="6.7108">
        <ele>1304</ele>
        <time>2019-06-11T14:52:14Z</time>
      </trkpt>
      <trkpt lat="46.10897" lon="6.71034">
        <ele>1308</ele>
        <time>2019-06-11T14:52:19Z</time>
      </trkpt>
      <trkpt lat="46.10896" lon="6.71016">
        <ele>1309</ele>
        <time>2019-06-11T14:52:22Z</time>
      </trkpt>
      <trkpt lat="46.1089" lon="6.70989">
        <ele>1307</ele>
        <time>2019-06-11T14:52:25Z</time>
      </trkpt>
      <trkpt lat="46.10889" lon="6.7097">
        <ele>1307</ele>
        <time>2019-06-11T14:52:27Z</time>
      </trkpt>
      <trkpt lat="46.10891" lon="6.70944">
        <ele>1309</ele>
        <time>2019-06-11T14:52:31Z</time>
      </trkpt>
      <trkpt lat="46.10897" lon="6.70924">
        <ele>1313</ele>
        <time>2019-06-11T14:52:33Z</time>
      </trkpt>
      <trkpt lat="46.10917" lon="6.70877">
        <ele>1324</ele>
        <time>2019-06-11T14:52:40Z</time>
      </trkpt>
      <trkpt lat="46.10928" lon="6.70824">
        <ele>1329</ele>
        <time>2019-06-11T14:52:47Z</time>
      </trkpt>
      <trkpt lat="46.10962" lon="6.70739">
        <ele>1343</ele>
        <time>2019-06-11T14:52:59Z</time>
      </trkpt>
      <trkpt lat="46.10969" lon="6.70716">
        <ele>1346</ele>
        <time>2019-06-11T14:53:02Z</time>
      </trkpt>
      <trkpt lat="46.10975" lon="6.70687">
        <ele>1347</ele>
        <time>2019-06-11T14:53:06Z</time>
      </trkpt>
      <trkpt lat="46.10981" lon="6.70633">
        <ele>1349</ele>
        <time>2019-06-11T14:53:13Z</time>
      </trkpt>
      <trkpt lat="46.10976" lon="6.70567">
        <ele>1347</ele>
        <time>2019-06-11T14:53:21Z</time>
      </trkpt>
      <trkpt lat="46.10969" lon="6.70398">
        <ele>1361</ele>
        <time>2019-06-11T14:53:42Z</time>
      </trkpt>
      <trkpt lat="46.10969" lon="6.70349">
        <ele>1368</ele>
        <time>2019-06-11T14:53:48Z</time>
      </trkpt>
      <trkpt lat="46.10966" lon="6.70335">
        <ele>1368</ele>
        <time>2019-06-11T14:53:50Z</time>
      </trkpt>
      <trkpt lat="46.10962" lon="6.7032">
        <ele>1367</ele>
        <time>2019-06-11T14:53:52Z</time>
      </trkpt>
      <trkpt lat="46.10944" lon="6.70274">
        <ele>1363</ele>
        <time>2019-06-11T14:53:58Z</time>
      </trkpt>
      <trkpt lat="46.10933" lon="6.70222">
        <ele>1362</ele>
        <time>2019-06-11T14:54:05Z</time>
      </trkpt>
      <trkpt lat="46.10913" lon="6.70167">
        <ele>1361</ele>
        <time>2019-06-11T14:54:12Z</time>
      </trkpt>
      <trkpt lat="46.10913" lon="6.70162">
        <ele>1361</ele>
        <time>2019-06-11T14:54:13Z</time>
      </trkpt>
      <trkpt lat="46.10915" lon="6.70157">
        <ele>1362</ele>
        <time>2019-06-11T14:54:14Z</time>
      </trkpt>
      <trkpt lat="46.10917" lon="6.70153">
        <ele>1363</ele>
        <time>2019-06-11T14:54:14Z</time>
      </trkpt>
      <trkpt lat="46.10923" lon="6.70149">
        <ele>1364</ele>
        <time>2019-06-11T14:54:16Z</time>
      </trkpt>
      <trkpt lat="46.10931" lon="6.70151">
        <ele>1365</ele>
        <time>2019-06-11T14:54:17Z</time>
      </trkpt>
      <trkpt lat="46.11008" lon="6.70195">
        <ele>1379</ele>
        <time>2019-06-11T14:54:32Z</time>
      </trkpt>
      <trkpt lat="46.1103" lon="6.70214">
        <ele>1383</ele>
        <time>2019-06-11T14:54:36Z</time>
      </trkpt>
      <trkpt lat="46.11046" lon="6.70235">
        <ele>1387</ele>
        <time>2019-06-11T14:54:40Z</time>
      </trkpt>
      <trkpt lat="46.11052" lon="6.70248">
        <ele>1389</ele>
        <time>2019-06-11T14:54:42Z</time>
      </trkpt>
      <trkpt lat="46.11052" lon="6.70257">
        <ele>1391</ele>
        <time>2019-06-11T14:54:43Z</time>
      </trkpt>
      <trkpt lat="46.1105" lon="6.70263">
        <ele>1391</ele>
        <time>2019-06-11T14:54:44Z</time>
      </trkpt>
      <trkpt lat="46.11043" lon="6.70266">
        <ele>1391</ele>
        <time>2019-06-11T14:54:45Z</time>
      </trkpt>
      <trkpt lat="46.11024" lon="6.70256">
        <ele>1387</ele>
        <time>2019-06-11T14:54:49Z</time>
      </trkpt>
      <trkpt lat="46.11012" lon="6.70256">
        <ele>1386</ele>
        <time>2019-06-11T14:54:51Z</time>
      </trkpt>
      <trkpt lat="46.11005" lon="6.7026">
        <ele>1386</ele>
        <time>2019-06-11T14:54:52Z</time>
      </trkpt>
      <trkpt lat="46.11001" lon="6.70266">
        <ele>1385</ele>
        <time>2019-06-11T14:54:53Z</time>
      </trkpt>
      <trkpt lat="46.10998" lon="6.70275">
        <ele>1384</ele>
        <time>2019-06-11T14:54:55Z</time>
      </trkpt>
      <trkpt lat="46.10997" lon="6.70286">
        <ele>1384</ele>
        <time>2019-06-11T14:54:56Z</time>
      </trkpt>
      <trkpt lat="46.10999" lon="6.70297">
        <ele>1385</ele>
        <time>2019-06-11T14:54:57Z</time>
      </trkpt>
      <trkpt lat="46.11005" lon="6.70306">
        <ele>1386</ele>
        <time>2019-06-11T14:54:59Z</time>
      </trkpt>
      <trkpt lat="46.11018" lon="6.70315">
        <ele>1390</ele>
        <time>2019-06-11T14:55:02Z</time>
      </trkpt>
      <trkpt lat="46.11042" lon="6.70318">
        <ele>1398</ele>
        <time>2019-06-11T14:55:06Z</time>
      </trkpt>
      <trkpt lat="46.11055" lon="6.70322">
        <ele>1402</ele>
        <time>2019-06-11T14:55:08Z</time>
      </trkpt>
      <trkpt lat="46.11145" lon="6.70363">
        <ele>1416</ele>
        <time>2019-06-11T14:55:25Z</time>
      </trkpt>
      <trkpt lat="46.11164" lon="6.70373">
        <ele>1418</ele>
        <time>2019-06-11T14:55:29Z</time>
      </trkpt>
      <trkpt lat="46.11183" lon="6.70386">
        <ele>1420</ele>
        <time>2019-06-11T14:55:32Z</time>
      </trkpt>
      <trkpt lat="46.112" lon="6.70403">
        <ele>1422</ele>
        <time>2019-06-11T14:55:36Z</time>
      </trkpt>
      <trkpt lat="46.11209" lon="6.70417">
        <ele>1423</ele>
        <time>2019-06-11T14:55:38Z</time>
      </trkpt>
      <trkpt lat="46.11215" lon="6.70433">
        <ele>1426</ele>
        <time>2019-06-11T14:55:41Z</time>
      </trkpt>
      <trkpt lat="46.1123" lon="6.70483">
        <ele>1434</ele>
        <time>2019-06-11T14:55:47Z</time>
      </trkpt>
      <trkpt lat="46.1124" lon="6.70505">
        <ele>1438</ele>
        <time>2019-06-11T14:55:51Z</time>
      </trkpt>
      <trkpt lat="46.11256" lon="6.70523">
        <ele>1442</ele>
        <time>2019-06-11T14:55:54Z</time>
      </trkpt>
      <trkpt lat="46.11306" lon="6.70555">
        <ele>1448</ele>
        <time>2019-06-11T14:56:04Z</time>
      </trkpt>
      <trkpt lat="46.11321" lon="6.70569">
        <ele>1450</ele>
        <time>2019-06-11T14:56:07Z</time>
      </trkpt>
      <trkpt lat="46.11346" lon="6.70603">
        <ele>1453</ele>
        <time>2019-06-11T14:56:13Z</time>
      </trkpt>
      <trkpt lat="46.11356" lon="6.70619">
        <ele>1454</ele>
        <time>2019-06-11T14:56:16Z</time>
      </trkpt>
      <trkpt lat="46.11373" lon="6.70657">
        <ele>1456</ele>
        <time>2019-06-11T14:56:21Z</time>
      </trkpt>
      <trkpt lat="46.11399" lon="6.70685">
        <ele>1456</ele>
        <time>2019-06-11T14:56:27Z</time>
      </trkpt>
      <trkpt lat="46.11399" lon="6.70694">
        <ele>1457</ele>
        <time>2019-06-11T14:56:28Z</time>
      </trkpt>
      <trkpt lat="46.11394" lon="6.707">
        <ele>1459</ele>
        <time>2019-06-11T14:56:29Z</time>
      </trkpt>
      <trkpt lat="46.11378" lon="6.707">
        <ele>1461</ele>
        <time>2019-06-11T14:56:32Z</time>
      </trkpt>
      <trkpt lat="46.11302" lon="6.70644">
        <ele>1468</ele>
        <time>2019-06-11T14:56:48Z</time>
      </trkpt>
      <trkpt lat="46.11288" lon="6.70635">
        <ele>1469</ele>
        <time>2019-06-11T14:56:50Z</time>
      </trkpt>
      <trkpt lat="46.11274" lon="6.7063">
        <ele>1471</ele>
        <time>2019-06-11T14:56:53Z</time>
      </trkpt>
      <trkpt lat="46.11248" lon="6.70632">
        <ele>1477</ele>
        <time>2019-06-11T14:56:57Z</time>
      </trkpt>
      <trkpt lat="46.11174" lon="6.70661">
        <ele>1478</ele>
        <time>2019-06-11T14:57:11Z</time>
      </trkpt>
      <trkpt lat="46.11133" lon="6.70665">
        <ele>1457</ele>
        <time>2019-06-11T14:57:18Z</time>
      </trkpt>
      <trkpt lat="46.11128" lon="6.70668">
        <ele>1454</ele>
        <time>2019-06-11T14:57:19Z</time>
      </trkpt>
      <trkpt lat="46.11125" lon="6.70676">
        <ele>1453</ele>
        <time>2019-06-11T14:57:20Z</time>
      </trkpt>
      <trkpt lat="46.11125" lon="6.70681">
        <ele>1453</ele>
        <time>2019-06-11T14:57:21Z</time>
      </trkpt>
      <trkpt lat="46.11133" lon="6.70689">
        <ele>1459</ele>
        <time>2019-06-11T14:57:23Z</time>
      </trkpt>
      <trkpt lat="46.11186" lon="6.70695">
        <ele>1484</ele>
        <time>2019-06-11T14:57:32Z</time>
      </trkpt>
      <trkpt lat="46.11213" lon="6.70707">
        <ele>1489</ele>
        <time>2019-06-11T14:57:37Z</time>
      </trkpt>
      <trkpt lat="46.11244" lon="6.70724">
        <ele>1497</ele>
        <time>2019-06-11T14:57:43Z</time>
      </trkpt>
      <trkpt lat="46.11256" lon="6.70736">
        <ele>1498</ele>
        <time>2019-06-11T14:57:46Z</time>
      </trkpt>
      <trkpt lat="46.11262" lon="6.70749">
        <ele>1499</ele>
        <time>2019-06-11T14:57:48Z</time>
      </trkpt>
      <trkpt lat="46.11307" lon="6.70899">
        <ele>1512</ele>
        <time>2019-06-11T14:58:08Z</time>
      </trkpt>
      <trkpt lat="46.11312" lon="6.70921">
        <ele>1515</ele>
        <time>2019-06-11T14:58:11Z</time>
      </trkpt>
      <trkpt lat="46.11317" lon="6.7096">
        <ele>1520</ele>
        <time>2019-06-11T14:58:16Z</time>
      </trkpt>
      <trkpt lat="46.11322" lon="6.7099">
        <ele>1524</ele>
        <time>2019-06-11T14:58:19Z</time>
      </trkpt>
      <trkpt lat="46.11329" lon="6.71007">
        <ele>1525</ele>
        <time>2019-06-11T14:58:22Z</time>
      </trkpt>
      <trkpt lat="46.11352" lon="6.7105">
        <ele>1529</ele>
        <time>2019-06-11T14:58:29Z</time>
      </trkpt>
      <trkpt lat="46.11369" lon="6.71076">
        <ele>1532</ele>
        <time>2019-06-11T14:58:33Z</time>
      </trkpt>
      <trkpt lat="46.11387" lon="6.71091">
        <ele>1533</ele>
        <time>2019-06-11T14:58:37Z</time>
      </trkpt>
      <trkpt lat="46.11406" lon="6.71098">
        <ele>1533</ele>
        <time>2019-06-11T14:58:40Z</time>
      </trkpt>
      <trkpt lat="46.11455" lon="6.71111">
        <ele>1535</ele>
        <time>2019-06-11T14:58:49Z</time>
      </trkpt>
      <trkpt lat="46.11513" lon="6.71151">
        <ele>1543</ele>
        <time>2019-06-11T14:59:01Z</time>
      </trkpt>
      <trkpt lat="46.11573" lon="6.71218">
        <ele>1550</ele>
        <time>2019-06-11T14:59:14Z</time>
      </trkpt>
      <trkpt lat="46.1158" lon="6.71223">
        <ele>1550</ele>
        <time>2019-06-11T14:59:15Z</time>
      </trkpt>
      <trkpt lat="46.1159" lon="6.71226">
        <ele>1551</ele>
        <time>2019-06-11T14:59:17Z</time>
      </trkpt>
      <trkpt lat="46.11605" lon="6.71227">
        <ele>1552</ele>
        <time>2019-06-11T14:59:20Z</time>
      </trkpt>
      <trkpt lat="46.11687" lon="6.712">
        <ele>1557</ele>
        <time>2019-06-11T14:59:35Z</time>
      </trkpt>
      <trkpt lat="46.11704" lon="6.71198">
        <ele>1558</ele>
        <time>2019-06-11T14:59:38Z</time>
      </trkpt>
      <trkpt lat="46.11715" lon="6.71199">
        <ele>1560</ele>
        <time>2019-06-11T14:59:40Z</time>
      </trkpt>
      <trkpt lat="46.11781" lon="6.71218">
        <ele>1569</ele>
        <time>2019-06-11T14:59:52Z</time>
      </trkpt>
      <trkpt lat="46.11786" lon="6.71218">
        <ele>1570</ele>
        <time>2019-06-11T14:59:53Z</time>
      </trkpt>
      <trkpt lat="46.11796" lon="6.71215">
        <ele>1571</ele>
        <time>2019-06-11T14:59:55Z</time>
      </trkpt>
      <trkpt lat="46.11864" lon="6.71168">
        <ele>1574</ele>
        <time>2019-06-11T15:00:08Z</time>
      </trkpt>
      <trkpt lat="46.11909" lon="6.71159">
        <ele>1578</ele>
        <time>2019-06-11T15:00:16Z</time>
      </trkpt>
      <trkpt lat="46.11952" lon="6.7114">
        <ele>1582</ele>
        <time>2019-06-11T15:00:24Z</time>
      </trkpt>
      <trkpt lat="46.12017" lon="6.71121">
        <ele>1590</ele>
        <time>2019-06-11T15:00:36Z</time>
      </trkpt>
      <trkpt lat="46.12057" lon="6.71112">
        <ele>1597</ele>
        <time>2019-06-11T15:00:43Z</time>
      </trkpt>
      <trkpt lat="46.12074" lon="6.71103">
        <ele>1599</ele>
        <time>2019-06-11T15:00:46Z</time>
      </trkpt>
      <trkpt lat="46.12098" lon="6.71088">
        <ele>1599</ele>
        <time>2019-06-11T15:00:51Z</time>
      </trkpt>
      <trkpt lat="46.12113" lon="6.71081">
        <ele>1599</ele>
        <time>2019-06-11T15:00:54Z</time>
      </trkpt>
      <trkpt lat="46.12128" lon="6.71078">
        <ele>1600</ele>
        <time>2019-06-11T15:00:56Z</time>
      </trkpt>
      <trkpt lat="46.12147" lon="6.71078">
        <ele>1602</ele>
        <time>2019-06-11T15:01:00Z</time>
      </trkpt>
      <trkpt lat="46.12198" lon="6.71094">
        <ele>1610</ele>
        <time>2019-06-11T15:01:09Z</time>
      </trkpt>
      <trkpt lat="46.12231" lon="6.71091">
        <ele>1612</ele>
        <time>2019-06-11T15:01:15Z</time>
      </trkpt>
      <trkpt lat="46.1227" lon="6.71096">
        <ele>1617</ele>
        <time>2019-06-11T15:01:22Z</time>
      </trkpt>
      <trkpt lat="46.12314" lon="6.71097">
        <ele>1621</ele>
        <time>2019-06-11T15:01:30Z</time>
      </trkpt>
      <trkpt lat="46.12412" lon="6.71115">
        <ele>1638</ele>
        <time>2019-06-11T15:01:47Z</time>
      </trkpt>
      <trkpt lat="46.12433" lon="6.71112">
        <ele>1639</ele>
        <time>2019-06-11T15:01:51Z</time>
      </trkpt>
      <trkpt lat="46.12464" lon="6.71101">
        <ele>1640</ele>
        <time>2019-06-11T15:01:57Z</time>
      </trkpt>
      <trkpt lat="46.12516" lon="6.71089">
        <ele>1642</ele>
        <time>2019-06-11T15:02:06Z</time>
      </trkpt>
      <trkpt lat="46.12528" lon="6.7109">
        <ele>1642</ele>
        <time>2019-06-11T15:02:08Z</time>
      </trkpt>
      <trkpt lat="46.1257" lon="6.7111">
        <ele>1652</ele>
        <time>2019-06-11T15:02:16Z</time>
      </trkpt>
      <trkpt lat="46.12586" lon="6.71108">
        <ele>1652</ele>
        <time>2019-06-11T15:02:19Z</time>
      </trkpt>
      <trkpt lat="46.12612" lon="6.71098">
        <ele>1649</ele>
        <time>2019-06-11T15:02:24Z</time>
      </trkpt>
      <trkpt lat="46.12619" lon="6.71098">
        <ele>1649</ele>
        <time>2019-06-11T15:02:25Z</time>
      </trkpt>
      <trkpt lat="46.12654" lon="6.7111">
        <ele>1656</ele>
        <time>2019-06-11T15:02:31Z</time>
      </trkpt>
      <trkpt lat="46.12727" lon="6.71105">
        <ele>1656</ele>
        <time>2019-06-11T15:02:44Z</time>
      </trkpt>
      <trkpt lat="46.12743" lon="6.7111">
        <ele>1658</ele>
        <time>2019-06-11T15:02:47Z</time>
      </trkpt>
      <trkpt lat="46.12826" lon="6.71183">
        <ele>1677</ele>
        <time>2019-06-11T15:03:05Z</time>
      </trkpt>
      <trkpt lat="46.1284" lon="6.71201">
        <ele>1680</ele>
        <time>2019-06-11T15:03:08Z</time>
      </trkpt>
      <trkpt lat="46.12848" lon="6.71217">
        <ele>1682</ele>
        <time>2019-06-11T15:03:10Z</time>
      </trkpt>
      <trkpt lat="46.12855" lon="6.71237">
        <ele>1685</ele>
        <time>2019-06-11T15:03:13Z</time>
      </trkpt>
      <trkpt lat="46.12874" lon="6.71317">
        <ele>1690</ele>
        <time>2019-06-11T15:03:24Z</time>
      </trkpt>
      <trkpt lat="46.1288" lon="6.7133">
        <ele>1690</ele>
        <time>2019-06-11T15:03:26Z</time>
      </trkpt>
      <trkpt lat="46.12889" lon="6.7134">
        <ele>1691</ele>
        <time>2019-06-11T15:03:28Z</time>
      </trkpt>
      <trkpt lat="46.12905" lon="6.71347">
        <ele>1690</ele>
        <time>2019-06-11T15:03:31Z</time>
      </trkpt>
      <trkpt lat="46.12916" lon="6.71346">
        <ele>1689</ele>
        <time>2019-06-11T15:03:32Z</time>
      </trkpt>
      <trkpt lat="46.12929" lon="6.71341">
        <ele>1690</ele>
        <time>2019-06-11T15:03:35Z</time>
      </trkpt>
      <trkpt lat="46.12948" lon="6.71322">
        <ele>1692</ele>
        <time>2019-06-11T15:03:39Z</time>
      </trkpt>
      <trkpt lat="46.1296" lon="6.71297">
        <ele>1692</ele>
        <time>2019-06-11T15:03:43Z</time>
      </trkpt>
      <trkpt lat="46.12962" lon="6.7129">
        <ele>1692</ele>
        <time>2019-06-11T15:03:44Z</time>
      </trkpt>
      <trkpt lat="46.12963" lon="6.71256">
        <ele>1690</ele>
        <time>2019-06-11T15:03:48Z</time>
      </trkpt>
      <trkpt lat="46.1296" lon="6.71154">
        <ele>1686</ele>
        <time>2019-06-11T15:04:00Z</time>
      </trkpt>
      <trkpt lat="46.12954" lon="6.7106">
        <ele>1685</ele>
        <time>2019-06-11T15:04:12Z</time>
      </trkpt>
      <trkpt lat="46.12956" lon="6.71029">
        <ele>1684</ele>
        <time>2019-06-11T15:04:16Z</time>
      </trkpt>
      <trkpt lat="46.12973" lon="6.70971">
        <ele>1682</ele>
        <time>2019-06-11T15:04:24Z</time>
      </trkpt>
      <trkpt lat="46.12975" lon="6.70955">
        <ele>1681</ele>
        <time>2019-06-11T15:04:26Z</time>
      </trkpt>
      <trkpt lat="46.12976" lon="6.70931">
        <ele>1680</ele>
        <time>2019-06-11T15:04:29Z</time>
      </trkpt>
      <trkpt lat="46.12978" lon="6.70934">
        <ele>1680</ele>
        <time>2019-06-11T15:04:29Z</time>
      </trkpt>
      <trkpt lat="46.12976" lon="6.70931">
        <ele>1680</ele>
        <time>2019-06-11T15:04:30Z</time>
      </trkpt>
      <trkpt lat="46.12974" lon="6.70882">
        <ele>1677</ele>
        <time>2019-06-11T15:04:36Z</time>
      </trkpt>
      <trkpt lat="46.12976" lon="6.7087">
        <ele>1677</ele>
        <time>2019-06-11T15:04:37Z</time>
      </trkpt>
      <trkpt lat="46.1298" lon="6.70859">
        <ele>1676</ele>
        <time>2019-06-11T15:04:39Z</time>
      </trkpt>
      <trkpt lat="46.12991" lon="6.70841">
        <ele>1677</ele>
        <time>2019-06-11T15:04:42Z</time>
      </trkpt>
      <trkpt lat="46.13021" lon="6.70808">
        <ele>1682</ele>
        <time>2019-06-11T15:04:48Z</time>
      </trkpt>
      <trkpt lat="46.13033" lon="6.70789">
        <ele>1684</ele>
        <time>2019-06-11T15:04:52Z</time>
      </trkpt>
      <trkpt lat="46.13037" lon="6.70778">
        <ele>1685</ele>
        <time>2019-06-11T15:04:53Z</time>
      </trkpt>
      <trkpt lat="46.13041" lon="6.70763">
        <ele>1686</ele>
        <time>2019-06-11T15:04:55Z</time>
      </trkpt>
      <trkpt lat="46.1304" lon="6.7074">
        <ele>1688</ele>
        <time>2019-06-11T15:04:58Z</time>
      </trkpt>
      <trkpt lat="46.13035" lon="6.70721">
        <ele>1689</ele>
        <time>2019-06-11T15:05:01Z</time>
      </trkpt>
      <trkpt lat="46.1299" lon="6.70622">
        <ele>1689</ele>
        <time>2019-06-11T15:05:15Z</time>
      </trkpt>
      <trkpt lat="46.12979" lon="6.70602">
        <ele>1690</ele>
        <time>2019-06-11T15:05:18Z</time>
      </trkpt>
      <trkpt lat="46.12959" lon="6.70576">
        <ele>1687</ele>
        <time>2019-06-11T15:05:23Z</time>
      </trkpt>
      <trkpt lat="46.12881" lon="6.70497">
        <ele>1671</ele>
        <time>2019-06-11T15:05:40Z</time>
      </trkpt>
      <trkpt lat="46.1284" lon="6.70437">
        <ele>1671</ele>
        <time>2019-06-11T15:05:50Z</time>
      </trkpt>
      <trkpt lat="46.12836" lon="6.70427">
        <ele>1672</ele>
        <time>2019-06-11T15:05:52Z</time>
      </trkpt>
      <trkpt lat="46.1283" lon="6.70408">
        <ele>1674</ele>
        <time>2019-06-11T15:05:54Z</time>
      </trkpt>
      <trkpt lat="46.12824" lon="6.70397">
        <ele>1674</ele>
        <time>2019-06-11T15:05:56Z</time>
      </trkpt>
      <trkpt lat="46.12816" lon="6.70389">
        <ele>1671</ele>
        <time>2019-06-11T15:05:58Z</time>
      </trkpt>
      <trkpt lat="46.128" lon="6.70379">
        <ele>1665</ele>
        <time>2019-06-11T15:06:01Z</time>
      </trkpt>
      <trkpt lat="46.12795" lon="6.70371">
        <ele>1665</ele>
        <time>2019-06-11T15:06:02Z</time>
      </trkpt>
      <trkpt lat="46.12782" lon="6.70344">
        <ele>1667</ele>
        <time>2019-06-11T15:06:06Z</time>
      </trkpt>
      <trkpt lat="46.12775" lon="6.70315">
        <ele>1672</ele>
        <time>2019-06-11T15:06:10Z</time>
      </trkpt>
      <trkpt lat="46.12772" lon="6.70308">
        <ele>1672</ele>
        <time>2019-06-11T15:06:11Z</time>
      </trkpt>
      <trkpt lat="46.12767" lon="6.70302">
        <ele>1671</ele>
        <time>2019-06-11T15:06:12Z</time>
      </trkpt>
      <trkpt lat="46.12754" lon="6.70294">
        <ele>1666</ele>
        <time>2019-06-11T15:06:15Z</time>
      </trkpt>
      <trkpt lat="46.12744" lon="6.70282">
        <ele>1663</ele>
        <time>2019-06-11T15:06:17Z</time>
      </trkpt>
      <trkpt lat="46.12739" lon="6.70261">
        <ele>1665</ele>
        <time>2019-06-11T15:06:20Z</time>
      </trkpt>
      <trkpt lat="46.12739" lon="6.70229">
        <ele>1666</ele>
        <time>2019-06-11T15:06:24Z</time>
      </trkpt>
      <trkpt lat="46.12744" lon="6.70196">
        <ele>1668</ele>
        <time>2019-06-11T15:06:28Z</time>
      </trkpt>
      <trkpt lat="46.12756" lon="6.7015">
        <ele>1675</ele>
        <time>2019-06-11T15:06:34Z</time>
      </trkpt>
      <trkpt lat="46.12758" lon="6.70127">
        <ele>1677</ele>
        <time>2019-06-11T15:06:37Z</time>
      </trkpt>
      <trkpt lat="46.12758" lon="6.70117">
        <ele>1678</ele>
        <time>2019-06-11T15:06:38Z</time>
      </trkpt>
      <trkpt lat="46.12755" lon="6.701">
        <ele>1677</ele>
        <time>2019-06-11T15:06:40Z</time>
      </trkpt>
      <trkpt lat="46.12749" lon="6.70082">
        <ele>1674</ele>
        <time>2019-06-11T15:06:43Z</time>
      </trkpt>
      <trkpt lat="46.12741" lon="6.70065">
        <ele>1673</ele>
        <time>2019-06-11T15:06:45Z</time>
      </trkpt>
      <trkpt lat="46.12718" lon="6.7003">
        <ele>1667</ele>
        <time>2019-06-11T15:06:51Z</time>
      </trkpt>
      <trkpt lat="46.1271" lon="6.70008">
        <ele>1666</ele>
        <time>2019-06-11T15:06:54Z</time>
      </trkpt>
      <trkpt lat="46.12706" lon="6.69991">
        <ele>1665</ele>
        <time>2019-06-11T15:06:57Z</time>
      </trkpt>
      <trkpt lat="46.12705" lon="6.69972">
        <ele>1664</ele>
        <time>2019-06-11T15:06:59Z</time>
      </trkpt>
      <trkpt lat="46.12707" lon="6.69937">
        <ele>1664</ele>
        <time>2019-06-11T15:07:03Z</time>
      </trkpt>
      <trkpt lat="46.12719" lon="6.69861">
        <ele>1658</ele>
        <time>2019-06-11T15:07:13Z</time>
      </trkpt>
      <trkpt lat="46.12726" lon="6.69838">
        <ele>1655</ele>
        <time>2019-06-11T15:07:16Z</time>
      </trkpt>
      <trkpt lat="46.12738" lon="6.69819">
        <ele>1655</ele>
        <time>2019-06-11T15:07:19Z</time>
      </trkpt>
      <trkpt lat="46.12756" lon="6.69809">
        <ele>1656</ele>
        <time>2019-06-11T15:07:23Z</time>
      </trkpt>
      <trkpt lat="46.12769" lon="6.69807">
        <ele>1655</ele>
        <time>2019-06-11T15:07:25Z</time>
      </trkpt>
      <trkpt lat="46.12788" lon="6.69813">
        <ele>1654</ele>
        <time>2019-06-11T15:07:28Z</time>
      </trkpt>
      <trkpt lat="46.12808" lon="6.69827">
        <ele>1654</ele>
        <time>2019-06-11T15:07:32Z</time>
      </trkpt>
      <trkpt lat="46.12827" lon="6.69837">
        <ele>1655</ele>
        <time>2019-06-11T15:07:36Z</time>
      </trkpt>
      <trkpt lat="46.1284" lon="6.6984">
        <ele>1655</ele>
        <time>2019-06-11T15:07:38Z</time>
      </trkpt>
      <trkpt lat="46.12893" lon="6.69836">
        <ele>1650</ele>
        <time>2019-06-11T15:07:48Z</time>
      </trkpt>
      <trkpt lat="46.12911" lon="6.69831">
        <ele>1648</ele>
        <time>2019-06-11T15:07:51Z</time>
      </trkpt>
      <trkpt lat="46.12926" lon="6.69823">
        <ele>1647</ele>
        <time>2019-06-11T15:07:54Z</time>
      </trkpt>
      <trkpt lat="46.12938" lon="6.69813">
        <ele>1647</ele>
        <time>2019-06-11T15:07:56Z</time>
      </trkpt>
      <trkpt lat="46.12949" lon="6.69797">
        <ele>1645</ele>
        <time>2019-06-11T15:07:59Z</time>
      </trkpt>
      <trkpt lat="46.12961" lon="6.69777">
        <ele>1643</ele>
        <time>2019-06-11T15:08:02Z</time>
      </trkpt>
      <trkpt lat="46.12986" lon="6.69725">
        <ele>1636</ele>
        <time>2019-06-11T15:08:10Z</time>
      </trkpt>
      <trkpt lat="46.12996" lon="6.69707">
        <ele>1634</ele>
        <time>2019-06-11T15:08:13Z</time>
      </trkpt>
      <trkpt lat="46.13014" lon="6.69686">
        <ele>1631</ele>
        <time>2019-06-11T15:08:17Z</time>
      </trkpt>
      <trkpt lat="46.13082" lon="6.69618">
        <ele>1621</ele>
        <time>2019-06-11T15:08:32Z</time>
      </trkpt>
      <trkpt lat="46.13101" lon="6.69606">
        <ele>1619</ele>
        <time>2019-06-11T15:08:35Z</time>
      </trkpt>
      <trkpt lat="46.1312" lon="6.69602">
        <ele>1618</ele>
        <time>2019-06-11T15:08:39Z</time>
      </trkpt>
      <trkpt lat="46.13373" lon="6.6957">
        <ele>1620</ele>
        <time>2019-06-11T15:09:24Z</time>
      </trkpt>
      <trkpt lat="46.13401" lon="6.69571">
        <ele>1621</ele>
        <time>2019-06-11T15:09:29Z</time>
      </trkpt>
      <trkpt lat="46.13423" lon="6.69574">
        <ele>1622</ele>
        <time>2019-06-11T15:09:33Z</time>
      </trkpt>
      <trkpt lat="46.13437" lon="6.69578">
        <ele>1623</ele>
        <time>2019-06-11T15:09:35Z</time>
      </trkpt>
      <trkpt lat="46.13473" lon="6.69596">
        <ele>1626</ele>
        <time>2019-06-11T15:09:42Z</time>
      </trkpt>
      <trkpt lat="46.13555" lon="6.69643">
        <ele>1629</ele>
        <time>2019-06-11T15:09:58Z</time>
      </trkpt>
      <trkpt lat="46.13565" lon="6.69653">
        <ele>1630</ele>
        <time>2019-06-11T15:10:00Z</time>
      </trkpt>
      <trkpt lat="46.1361" lon="6.69704">
        <ele>1646</ele>
        <time>2019-06-11T15:10:10Z</time>
      </trkpt>
      <trkpt lat="46.1362" lon="6.69712">
        <ele>1649</ele>
        <time>2019-06-11T15:10:12Z</time>
      </trkpt>
      <trkpt lat="46.13636" lon="6.69717">
        <ele>1651</ele>
        <time>2019-06-11T15:10:15Z</time>
      </trkpt>
      <trkpt lat="46.13646" lon="6.69716">
        <ele>1651</ele>
        <time>2019-06-11T15:10:17Z</time>
      </trkpt>
      <trkpt lat="46.13656" lon="6.69712">
        <ele>1650</ele>
        <time>2019-06-11T15:10:19Z</time>
      </trkpt>
      <trkpt lat="46.13677" lon="6.69694">
        <ele>1647</ele>
        <time>2019-06-11T15:10:23Z</time>
      </trkpt>
      <trkpt lat="46.13725" lon="6.69622">
        <ele>1647</ele>
        <time>2019-06-11T15:10:36Z</time>
      </trkpt>
      <trkpt lat="46.13779" lon="6.69553">
        <ele>1648</ele>
        <time>2019-06-11T15:10:48Z</time>
      </trkpt>
      <trkpt lat="46.13792" lon="6.69543">
        <ele>1647</ele>
        <time>2019-06-11T15:10:51Z</time>
      </trkpt>
      <trkpt lat="46.13807" lon="6.69538">
        <ele>1648</ele>
        <time>2019-06-11T15:10:54Z</time>
      </trkpt>
      <trkpt lat="46.13816" lon="6.69539">
        <ele>1650</ele>
        <time>2019-06-11T15:10:55Z</time>
      </trkpt>
      <trkpt lat="46.13887" lon="6.69582">
        <ele>1653</ele>
        <time>2019-06-11T15:11:09Z</time>
      </trkpt>
      <trkpt lat="46.13898" lon="6.69584">
        <ele>1652</ele>
        <time>2019-06-11T15:11:11Z</time>
      </trkpt>
      <trkpt lat="46.13916" lon="6.69579">
        <ele>1650</ele>
        <time>2019-06-11T15:11:14Z</time>
      </trkpt>
      <trkpt lat="46.13958" lon="6.69559">
        <ele>1650</ele>
        <time>2019-06-11T15:11:22Z</time>
      </trkpt>
      <trkpt lat="46.13986" lon="6.69554">
        <ele>1652</ele>
        <time>2019-06-11T15:11:27Z</time>
      </trkpt>
      <trkpt lat="46.13994" lon="6.69557">
        <ele>1652</ele>
        <time>2019-06-11T15:11:29Z</time>
      </trkpt>
      <trkpt lat="46.13997" lon="6.69564">
        <ele>1652</ele>
        <time>2019-06-11T15:11:30Z</time>
      </trkpt>
      <trkpt lat="46.13997" lon="6.69572">
        <ele>1652</ele>
        <time>2019-06-11T15:11:31Z</time>
      </trkpt>
      <trkpt lat="46.13993" lon="6.69577">
        <ele>1652</ele>
        <time>2019-06-11T15:11:32Z</time>
      </trkpt>
      <trkpt lat="46.13979" lon="6.69578">
        <ele>1651</ele>
        <time>2019-06-11T15:11:34Z</time>
      </trkpt>
      <trkpt lat="46.13953" lon="6.69591">
        <ele>1649</ele>
        <time>2019-06-11T15:11:39Z</time>
      </trkpt>
      <trkpt lat="46.13943" lon="6.69605">
        <ele>1646</ele>
        <time>2019-06-11T15:11:41Z</time>
      </trkpt>
      <trkpt lat="46.13928" lon="6.69637">
        <ele>1639</ele>
        <time>2019-06-11T15:11:46Z</time>
      </trkpt>
      <trkpt lat="46.13924" lon="6.69643">
        <ele>1638</ele>
        <time>2019-06-11T15:11:47Z</time>
      </trkpt>
      <trkpt lat="46.13907" lon="6.69655">
        <ele>1638</ele>
        <time>2019-06-11T15:11:51Z</time>
      </trkpt>
      <trkpt lat="46.13883" lon="6.69664">
        <ele>1642</ele>
        <time>2019-06-11T15:11:55Z</time>
      </trkpt>
      <trkpt lat="46.13873" lon="6.6967">
        <ele>1643</ele>
        <time>2019-06-11T15:11:57Z</time>
      </trkpt>
      <trkpt lat="46.13848" lon="6.69696">
        <ele>1643</ele>
        <time>2019-06-11T15:12:02Z</time>
      </trkpt>
      <trkpt lat="46.13836" lon="6.69714">
        <ele>1641</ele>
        <time>2019-06-11T15:12:06Z</time>
      </trkpt>
      <trkpt lat="46.13817" lon="6.69756">
        <ele>1637</ele>
        <time>2019-06-11T15:12:12Z</time>
      </trkpt>
      <trkpt lat="46.138" lon="6.69802">
        <ele>1637</ele>
        <time>2019-06-11T15:12:18Z</time>
      </trkpt>
      <trkpt lat="46.1378" lon="6.69919">
        <ele>1625</ele>
        <time>2019-06-11T15:12:33Z</time>
      </trkpt>
      <trkpt lat="46.13764" lon="6.69974">
        <ele>1624</ele>
        <time>2019-06-11T15:12:40Z</time>
      </trkpt>
      <trkpt lat="46.13759" lon="6.69996">
        <ele>1622</ele>
        <time>2019-06-11T15:12:43Z</time>
      </trkpt>
      <trkpt lat="46.13749" lon="6.70066">
        <ele>1610</ele>
        <time>2019-06-11T15:12:52Z</time>
      </trkpt>
      <trkpt lat="46.13752" lon="6.70079">
        <ele>1606</ele>
        <time>2019-06-11T15:12:54Z</time>
      </trkpt>
      <trkpt lat="46.13755" lon="6.70082">
        <ele>1605</ele>
        <time>2019-06-11T15:12:54Z</time>
      </trkpt>
      <trkpt lat="46.13759" lon="6.70083">
        <ele>1604</ele>
        <time>2019-06-11T15:12:55Z</time>
      </trkpt>
      <trkpt lat="46.13766" lon="6.70079">
        <ele>1603</ele>
        <time>2019-06-11T15:12:56Z</time>
      </trkpt>
      <trkpt lat="46.13808" lon="6.70012">
        <ele>1604</ele>
        <time>2019-06-11T15:13:08Z</time>
      </trkpt>
      <trkpt lat="46.13841" lon="6.69943">
        <ele>1600</ele>
        <time>2019-06-11T15:13:18Z</time>
      </trkpt>
      <trkpt lat="46.13847" lon="6.69936">
        <ele>1598</ele>
        <time>2019-06-11T15:13:19Z</time>
      </trkpt>
      <trkpt lat="46.13854" lon="6.69936">
        <ele>1596</ele>
        <time>2019-06-11T15:13:21Z</time>
      </trkpt>
      <trkpt lat="46.13856" lon="6.6994">
        <ele>1595</ele>
        <time>2019-06-11T15:13:21Z</time>
      </trkpt>
      <trkpt lat="46.13858" lon="6.6995">
        <ele>1594</ele>
        <time>2019-06-11T15:13:22Z</time>
      </trkpt>
      <trkpt lat="46.13857" lon="6.69995">
        <ele>1591</ele>
        <time>2019-06-11T15:13:28Z</time>
      </trkpt>
      <trkpt lat="46.13861" lon="6.70038">
        <ele>1584</ele>
        <time>2019-06-11T15:13:33Z</time>
      </trkpt>
      <trkpt lat="46.13861" lon="6.70054">
        <ele>1582</ele>
        <time>2019-06-11T15:13:35Z</time>
      </trkpt>
      <trkpt lat="46.13854" lon="6.70073">
        <ele>1582</ele>
        <time>2019-06-11T15:13:38Z</time>
      </trkpt>
      <trkpt lat="46.13834" lon="6.701">
        <ele>1584</ele>
        <time>2019-06-11T15:13:43Z</time>
      </trkpt>
      <trkpt lat="46.13816" lon="6.70132">
        <ele>1582</ele>
        <time>2019-06-11T15:13:48Z</time>
      </trkpt>
      <trkpt lat="46.13786" lon="6.70221">
        <ele>1569</ele>
        <time>2019-06-11T15:14:00Z</time>
      </trkpt>
      <trkpt lat="46.13767" lon="6.70258">
        <ele>1563</ele>
        <time>2019-06-11T15:14:06Z</time>
      </trkpt>
      <trkpt lat="46.13757" lon="6.70269">
        <ele>1561</ele>
        <time>2019-06-11T15:14:08Z</time>
      </trkpt>
      <trkpt lat="46.13751" lon="6.70272">
        <ele>1561</ele>
        <time>2019-06-11T15:14:09Z</time>
      </trkpt>
      <trkpt lat="46.13727" lon="6.70281">
        <ele>1563</ele>
        <time>2019-06-11T15:14:14Z</time>
      </trkpt>
      <trkpt lat="46.13718" lon="6.70291">
        <ele>1561</ele>
        <time>2019-06-11T15:14:16Z</time>
      </trkpt>
      <trkpt lat="46.137" lon="6.70318">
        <ele>1556</ele>
        <time>2019-06-11T15:14:20Z</time>
      </trkpt>
      <trkpt lat="46.13652" lon="6.70364">
        <ele>1555</ele>
        <time>2019-06-11T15:14:30Z</time>
      </trkpt>
      <trkpt lat="46.13629" lon="6.70396">
        <ele>1555</ele>
        <time>2019-06-11T15:14:36Z</time>
      </trkpt>
      <trkpt lat="46.13607" lon="6.70438">
        <ele>1553</ele>
        <time>2019-06-11T15:14:43Z</time>
      </trkpt>
      <trkpt lat="46.13601" lon="6.70456">
        <ele>1551</ele>
        <time>2019-06-11T15:14:45Z</time>
      </trkpt>
      <trkpt lat="46.13598" lon="6.70467">
        <ele>1550</ele>
        <time>2019-06-11T15:14:47Z</time>
      </trkpt>
      <trkpt lat="46.13597" lon="6.70488">
        <ele>1546</ele>
        <time>2019-06-11T15:14:49Z</time>
      </trkpt>
      <trkpt lat="46.136" lon="6.70508">
        <ele>1541</ele>
        <time>2019-06-11T15:14:52Z</time>
      </trkpt>
      <trkpt lat="46.13601" lon="6.70531">
        <ele>1537</ele>
        <time>2019-06-11T15:14:54Z</time>
      </trkpt>
      <trkpt lat="46.136" lon="6.7054">
        <ele>1537</ele>
        <time>2019-06-11T15:14:56Z</time>
      </trkpt>
      <trkpt lat="46.13592" lon="6.70568">
        <ele>1538</ele>
        <time>2019-06-11T15:14:59Z</time>
      </trkpt>
      <trkpt lat="46.13589" lon="6.70585">
        <ele>1538</ele>
        <time>2019-06-11T15:15:02Z</time>
      </trkpt>
      <trkpt lat="46.13588" lon="6.70614">
        <ele>1537</ele>
        <time>2019-06-11T15:15:05Z</time>
      </trkpt>
      <trkpt lat="46.13591" lon="6.70635">
        <ele>1535</ele>
        <time>2019-06-11T15:15:08Z</time>
      </trkpt>
      <trkpt lat="46.13603" lon="6.70676">
        <ele>1527</ele>
        <time>2019-06-11T15:15:13Z</time>
      </trkpt>
      <trkpt lat="46.13621" lon="6.70745">
        <ele>1521</ele>
        <time>2019-06-11T15:15:22Z</time>
      </trkpt>
      <trkpt lat="46.13625" lon="6.70755">
        <ele>1520</ele>
        <time>2019-06-11T15:15:24Z</time>
      </trkpt>
      <trkpt lat="46.13639" lon="6.70778">
        <ele>1517</ele>
        <time>2019-06-11T15:15:28Z</time>
      </trkpt>
      <trkpt lat="46.13665" lon="6.70811">
        <ele>1510</ele>
        <time>2019-06-11T15:15:34Z</time>
      </trkpt>
      <trkpt lat="46.1369" lon="6.70891">
        <ele>1514</ele>
        <time>2019-06-11T15:15:44Z</time>
      </trkpt>
      <trkpt lat="46.13696" lon="6.70899">
        <ele>1513</ele>
        <time>2019-06-11T15:15:46Z</time>
      </trkpt>
      <trkpt lat="46.13706" lon="6.7091">
        <ele>1511</ele>
        <time>2019-06-11T15:15:48Z</time>
      </trkpt>
      <trkpt lat="46.13722" lon="6.70919">
        <ele>1506</ele>
        <time>2019-06-11T15:15:51Z</time>
      </trkpt>
      <trkpt lat="46.13756" lon="6.70924">
        <ele>1495</ele>
        <time>2019-06-11T15:15:57Z</time>
      </trkpt>
      <trkpt lat="46.13776" lon="6.70922">
        <ele>1492</ele>
        <time>2019-06-11T15:16:01Z</time>
      </trkpt>
      <trkpt lat="46.13808" lon="6.70911">
        <ele>1488</ele>
        <time>2019-06-11T15:16:07Z</time>
      </trkpt>
      <trkpt lat="46.13816" lon="6.70911">
        <ele>1487</ele>
        <time>2019-06-11T15:16:08Z</time>
      </trkpt>
      <trkpt lat="46.13825" lon="6.70915">
        <ele>1486</ele>
        <time>2019-06-11T15:16:10Z</time>
      </trkpt>
      <trkpt lat="46.13833" lon="6.70922">
        <ele>1485</ele>
        <time>2019-06-11T15:16:11Z</time>
      </trkpt>
      <trkpt lat="46.1386" lon="6.70954">
        <ele>1485</ele>
        <time>2019-06-11T15:16:18Z</time>
      </trkpt>
      <trkpt lat="46.13869" lon="6.70959">
        <ele>1484</ele>
        <time>2019-06-11T15:16:19Z</time>
      </trkpt>
      <trkpt lat="46.13879" lon="6.70962">
        <ele>1484</ele>
        <time>2019-06-11T15:16:21Z</time>
      </trkpt>
      <trkpt lat="46.13921" lon="6.70947">
        <ele>1483</ele>
        <time>2019-06-11T15:16:29Z</time>
      </trkpt>
      <trkpt lat="46.13956" lon="6.70926">
        <ele>1483</ele>
        <time>2019-06-11T15:16:36Z</time>
      </trkpt>
      <trkpt lat="46.13966" lon="6.70917">
        <ele>1482</ele>
        <time>2019-06-11T15:16:38Z</time>
      </trkpt>
      <trkpt lat="46.13983" lon="6.70889">
        <ele>1480</ele>
        <time>2019-06-11T15:16:42Z</time>
      </trkpt>
      <trkpt lat="46.14006" lon="6.70842">
        <ele>1475</ele>
        <time>2019-06-11T15:16:49Z</time>
      </trkpt>
      <trkpt lat="46.14014" lon="6.7083">
        <ele>1474</ele>
        <time>2019-06-11T15:16:52Z</time>
      </trkpt>
      <trkpt lat="46.14024" lon="6.70819">
        <ele>1474</ele>
        <time>2019-06-11T15:16:54Z</time>
      </trkpt>
      <trkpt lat="46.14063" lon="6.70783">
        <ele>1470</ele>
        <time>2019-06-11T15:17:02Z</time>
      </trkpt>
      <trkpt lat="46.14089" lon="6.70745">
        <ele>1464</ele>
        <time>2019-06-11T15:17:09Z</time>
      </trkpt>
      <trkpt lat="46.14126" lon="6.70715">
        <ele>1461</ele>
        <time>2019-06-11T15:17:16Z</time>
      </trkpt>
      <trkpt lat="46.14138" lon="6.70702">
        <ele>1459</ele>
        <time>2019-06-11T15:17:19Z</time>
      </trkpt>
      <trkpt lat="46.14152" lon="6.70679">
        <ele>1455</ele>
        <time>2019-06-11T15:17:23Z</time>
      </trkpt>
      <trkpt lat="46.14164" lon="6.70665">
        <ele>1452</ele>
        <time>2019-06-11T15:17:25Z</time>
      </trkpt>
      <trkpt lat="46.14183" lon="6.70655">
        <ele>1452</ele>
        <time>2019-06-11T15:17:29Z</time>
      </trkpt>
      <trkpt lat="46.1421" lon="6.70651">
        <ele>1452</ele>
        <time>2019-06-11T15:17:34Z</time>
      </trkpt>
      <trkpt lat="46.14224" lon="6.70646">
        <ele>1452</ele>
        <time>2019-06-11T15:17:36Z</time>
      </trkpt>
      <trkpt lat="46.14279" lon="6.70615">
        <ele>1450</ele>
        <time>2019-06-11T15:17:47Z</time>
      </trkpt>
      <trkpt lat="46.143" lon="6.70596">
        <ele>1447</ele>
        <time>2019-06-11T15:17:51Z</time>
      </trkpt>
      <trkpt lat="46.14354" lon="6.70524">
        <ele>1437</ele>
        <time>2019-06-11T15:18:04Z</time>
      </trkpt>
      <trkpt lat="46.14364" lon="6.70518">
        <ele>1436</ele>
        <time>2019-06-11T15:18:06Z</time>
      </trkpt>
      <trkpt lat="46.14457" lon="6.70496">
        <ele>1431</ele>
        <time>2019-06-11T15:18:23Z</time>
      </trkpt>
      <trkpt lat="46.14523" lon="6.70475">
        <ele>1423</ele>
        <time>2019-06-11T15:18:35Z</time>
      </trkpt>
      <trkpt lat="46.14606" lon="6.70464">
        <ele>1410</ele>
        <time>2019-06-11T15:18:50Z</time>
      </trkpt>
      <trkpt lat="46.14642" lon="6.70447">
        <ele>1402</ele>
        <time>2019-06-11T15:18:57Z</time>
      </trkpt>
      <trkpt lat="46.14653" lon="6.70445">
        <ele>1400</ele>
        <time>2019-06-11T15:18:59Z</time>
      </trkpt>
      <trkpt lat="46.14663" lon="6.7045">
        <ele>1399</ele>
        <time>2019-06-11T15:19:00Z</time>
      </trkpt>
      <trkpt lat="46.1467" lon="6.70461">
        <ele>1399</ele>
        <time>2019-06-11T15:19:02Z</time>
      </trkpt>
      <trkpt lat="46.14673" lon="6.70476">
        <ele>1400</ele>
        <time>2019-06-11T15:19:04Z</time>
      </trkpt>
      <trkpt lat="46.14676" lon="6.70507">
        <ele>1403</ele>
        <time>2019-06-11T15:19:08Z</time>
      </trkpt>
      <trkpt lat="46.14678" lon="6.70513">
        <ele>1405</ele>
        <time>2019-06-11T15:19:09Z</time>
      </trkpt>
      <trkpt lat="46.14682" lon="6.70515">
        <ele>1404</ele>
        <time>2019-06-11T15:19:10Z</time>
      </trkpt>
      <trkpt lat="46.14691" lon="6.70514">
        <ele>1403</ele>
        <time>2019-06-11T15:19:11Z</time>
      </trkpt>
      <trkpt lat="46.14694" lon="6.70509">
        <ele>1401</ele>
        <time>2019-06-11T15:19:12Z</time>
      </trkpt>
      <trkpt lat="46.14697" lon="6.70503">
        <ele>1399</ele>
        <time>2019-06-11T15:19:13Z</time>
      </trkpt>
      <trkpt lat="46.14705" lon="6.70466">
        <ele>1395</ele>
        <time>2019-06-11T15:19:18Z</time>
      </trkpt>
      <trkpt lat="46.14707" lon="6.7046">
        <ele>1394</ele>
        <time>2019-06-11T15:19:19Z</time>
      </trkpt>
      <trkpt lat="46.14711" lon="6.70457">
        <ele>1393</ele>
        <time>2019-06-11T15:19:19Z</time>
      </trkpt>
      <trkpt lat="46.14715" lon="6.70457">
        <ele>1392</ele>
        <time>2019-06-11T15:19:20Z</time>
      </trkpt>
      <trkpt lat="46.14719" lon="6.70459">
        <ele>1392</ele>
        <time>2019-06-11T15:19:21Z</time>
      </trkpt>
      <trkpt lat="46.14724" lon="6.7047">
        <ele>1392</ele>
        <time>2019-06-11T15:19:22Z</time>
      </trkpt>
      <trkpt lat="46.14729" lon="6.70493">
        <ele>1393</ele>
        <time>2019-06-11T15:19:25Z</time>
      </trkpt>
      <trkpt lat="46.14735" lon="6.70508">
        <ele>1394</ele>
        <time>2019-06-11T15:19:28Z</time>
      </trkpt>
      <trkpt lat="46.14744" lon="6.70516">
        <ele>1395</ele>
        <time>2019-06-11T15:19:29Z</time>
      </trkpt>
      <trkpt lat="46.14757" lon="6.70521">
        <ele>1394</ele>
        <time>2019-06-11T15:19:32Z</time>
      </trkpt>
      <trkpt lat="46.14798" lon="6.70521">
        <ele>1387</ele>
        <time>2019-06-11T15:19:39Z</time>
      </trkpt>
      <trkpt lat="46.14862" lon="6.70516">
        <ele>1374</ele>
        <time>2019-06-11T15:19:51Z</time>
      </trkpt>
      <trkpt lat="46.1492" lon="6.7049">
        <ele>1361</ele>
        <time>2019-06-11T15:20:01Z</time>
      </trkpt>
      <trkpt lat="46.14932" lon="6.70488">
        <ele>1361</ele>
        <time>2019-06-11T15:20:04Z</time>
      </trkpt>
      <trkpt lat="46.14938" lon="6.70488">
        <ele>1361</ele>
        <time>2019-06-11T15:20:05Z</time>
      </trkpt>
      <trkpt lat="46.14958" lon="6.70495">
        <ele>1361</ele>
        <time>2019-06-11T15:20:08Z</time>
      </trkpt>
      <trkpt lat="46.14992" lon="6.70525">
        <ele>1361</ele>
        <time>2019-06-11T15:20:15Z</time>
      </trkpt>
      <trkpt lat="46.15005" lon="6.70532">
        <ele>1360</ele>
        <time>2019-06-11T15:20:18Z</time>
      </trkpt>
      <trkpt lat="46.15044" lon="6.70537">
        <ele>1356</ele>
        <time>2019-06-11T15:20:25Z</time>
      </trkpt>
      <trkpt lat="46.15086" lon="6.70535">
        <ele>1350</ele>
        <time>2019-06-11T15:20:32Z</time>
      </trkpt>
      <trkpt lat="46.15096" lon="6.70539">
        <ele>1349</ele>
        <time>2019-06-11T15:20:34Z</time>
      </trkpt>
      <trkpt lat="46.15121" lon="6.70558">
        <ele>1348</ele>
        <time>2019-06-11T15:20:39Z</time>
      </trkpt>
      <trkpt lat="46.15132" lon="6.70562">
        <ele>1347</ele>
        <time>2019-06-11T15:20:41Z</time>
      </trkpt>
      <trkpt lat="46.15151" lon="6.70558">
        <ele>1345</ele>
        <time>2019-06-11T15:20:45Z</time>
      </trkpt>
      <trkpt lat="46.15236" lon="6.70508">
        <ele>1338</ele>
        <time>2019-06-11T15:21:01Z</time>
      </trkpt>
      <trkpt lat="46.15252" lon="6.70501">
        <ele>1337</ele>
        <time>2019-06-11T15:21:04Z</time>
      </trkpt>
      <trkpt lat="46.15302" lon="6.70487">
        <ele>1339</ele>
        <time>2019-06-11T15:21:13Z</time>
      </trkpt>
      <trkpt lat="46.15366" lon="6.70463">
        <ele>1338</ele>
        <time>2019-06-11T15:21:25Z</time>
      </trkpt>
      <trkpt lat="46.15403" lon="6.70453">
        <ele>1338</ele>
        <time>2019-06-11T15:21:31Z</time>
      </trkpt>
      <trkpt lat="46.1546" lon="6.70444">
        <ele>1335</ele>
        <time>2019-06-11T15:21:42Z</time>
      </trkpt>
      <trkpt lat="46.15476" lon="6.70434">
        <ele>1332</ele>
        <time>2019-06-11T15:21:45Z</time>
      </trkpt>
      <trkpt lat="46.15493" lon="6.70414">
        <ele>1327</ele>
        <time>2019-06-11T15:21:49Z</time>
      </trkpt>
      <trkpt lat="46.15533" lon="6.70388">
        <ele>1321</ele>
        <time>2019-06-11T15:21:56Z</time>
      </trkpt>
      <trkpt lat="46.15556" lon="6.70378">
        <ele>1319</ele>
        <time>2019-06-11T15:22:01Z</time>
      </trkpt>
      <trkpt lat="46.15591" lon="6.7037">
        <ele>1315</ele>
        <time>2019-06-11T15:22:07Z</time>
      </trkpt>
      <trkpt lat="46.15615" lon="6.70367">
        <ele>1310</ele>
        <time>2019-06-11T15:22:11Z</time>
      </trkpt>
      <trkpt lat="46.15654" lon="6.7038">
        <ele>1305</ele>
        <time>2019-06-11T15:22:18Z</time>
      </trkpt>
      <trkpt lat="46.15663" lon="6.7038">
        <ele>1304</ele>
        <time>2019-06-11T15:22:20Z</time>
      </trkpt>
      <trkpt lat="46.1569" lon="6.70376">
        <ele>1299</ele>
        <time>2019-06-11T15:22:25Z</time>
      </trkpt>
      <trkpt lat="46.15713" lon="6.70387">
        <ele>1297</ele>
        <time>2019-06-11T15:22:29Z</time>
      </trkpt>
      <trkpt lat="46.15721" lon="6.70387">
        <ele>1296</ele>
        <time>2019-06-11T15:22:31Z</time>
      </trkpt>
      <trkpt lat="46.15727" lon="6.70379">
        <ele>1293</ele>
        <time>2019-06-11T15:22:32Z</time>
      </trkpt>
      <trkpt lat="46.15726" lon="6.70368">
        <ele>1291</ele>
        <time>2019-06-11T15:22:33Z</time>
      </trkpt>
      <trkpt lat="46.15723" lon="6.70363">
        <ele>1291</ele>
        <time>2019-06-11T15:22:34Z</time>
      </trkpt>
      <trkpt lat="46.15696" lon="6.7034">
        <ele>1290</ele>
        <time>2019-06-11T15:22:40Z</time>
      </trkpt>
      <trkpt lat="46.15687" lon="6.70328">
        <ele>1290</ele>
        <time>2019-06-11T15:22:42Z</time>
      </trkpt>
      <trkpt lat="46.15662" lon="6.70279">
        <ele>1286</ele>
        <time>2019-06-11T15:22:49Z</time>
      </trkpt>
      <trkpt lat="46.1565" lon="6.70269">
        <ele>1286</ele>
        <time>2019-06-11T15:22:52Z</time>
      </trkpt>
      <trkpt lat="46.15637" lon="6.70263">
        <ele>1286</ele>
        <time>2019-06-11T15:22:54Z</time>
      </trkpt>
      <trkpt lat="46.15631" lon="6.70255">
        <ele>1285</ele>
        <time>2019-06-11T15:22:56Z</time>
      </trkpt>
      <trkpt lat="46.1563" lon="6.70244">
        <ele>1284</ele>
        <time>2019-06-11T15:22:57Z</time>
      </trkpt>
      <trkpt lat="46.15635" lon="6.70236">
        <ele>1282</ele>
        <time>2019-06-11T15:22:58Z</time>
      </trkpt>
      <trkpt lat="46.15647" lon="6.70236">
        <ele>1281</ele>
        <time>2019-06-11T15:23:01Z</time>
      </trkpt>
      <trkpt lat="46.15683" lon="6.70249">
        <ele>1279</ele>
        <time>2019-06-11T15:23:07Z</time>
      </trkpt>
      <trkpt lat="46.15695" lon="6.7025">
        <ele>1277</ele>
        <time>2019-06-11T15:23:09Z</time>
      </trkpt>
      <trkpt lat="46.15706" lon="6.70249">
        <ele>1275</ele>
        <time>2019-06-11T15:23:11Z</time>
      </trkpt>
      <trkpt lat="46.15732" lon="6.70239">
        <ele>1271</ele>
        <time>2019-06-11T15:23:16Z</time>
      </trkpt>
      <trkpt lat="46.15741" lon="6.70238">
        <ele>1269</ele>
        <time>2019-06-11T15:23:18Z</time>
      </trkpt>
      <trkpt lat="46.15832" lon="6.70251">
        <ele>1262</ele>
        <time>2019-06-11T15:23:34Z</time>
      </trkpt>
      <trkpt lat="46.15843" lon="6.70255">
        <ele>1261</ele>
        <time>2019-06-11T15:23:36Z</time>
      </trkpt>
      <trkpt lat="46.15886" lon="6.70282">
        <ele>1256</ele>
        <time>2019-06-11T15:23:44Z</time>
      </trkpt>
      <trkpt lat="46.15924" lon="6.70312">
        <ele>1255</ele>
        <time>2019-06-11T15:23:52Z</time>
      </trkpt>
      <trkpt lat="46.15933" lon="6.70312">
        <ele>1253</ele>
        <time>2019-06-11T15:23:54Z</time>
      </trkpt>
      <trkpt lat="46.15941" lon="6.70306">
        <ele>1251</ele>
        <time>2019-06-11T15:23:55Z</time>
      </trkpt>
      <trkpt lat="46.15946" lon="6.70294">
        <ele>1248</ele>
        <time>2019-06-11T15:23:57Z</time>
      </trkpt>
      <trkpt lat="46.15948" lon="6.70279">
        <ele>1245</ele>
        <time>2019-06-11T15:23:59Z</time>
      </trkpt>
      <trkpt lat="46.15946" lon="6.70266">
        <ele>1243</ele>
        <time>2019-06-11T15:24:01Z</time>
      </trkpt>
      <trkpt lat="46.15939" lon="6.70256">
        <ele>1242</ele>
        <time>2019-06-11T15:24:02Z</time>
      </trkpt>
      <trkpt lat="46.15913" lon="6.70227">
        <ele>1245</ele>
        <time>2019-06-11T15:24:08Z</time>
      </trkpt>
      <trkpt lat="46.15907" lon="6.70215">
        <ele>1245</ele>
        <time>2019-06-11T15:24:10Z</time>
      </trkpt>
      <trkpt lat="46.15895" lon="6.70182">
        <ele>1246</ele>
        <time>2019-06-11T15:24:15Z</time>
      </trkpt>
      <trkpt lat="46.1588" lon="6.70159">
        <ele>1251</ele>
        <time>2019-06-11T15:24:18Z</time>
      </trkpt>
      <trkpt lat="46.15878" lon="6.70153">
        <ele>1253</ele>
        <time>2019-06-11T15:24:19Z</time>
      </trkpt>
      <trkpt lat="46.15879" lon="6.70143">
        <ele>1256</ele>
        <time>2019-06-11T15:24:20Z</time>
      </trkpt>
      <trkpt lat="46.15886" lon="6.70127">
        <ele>1260</ele>
        <time>2019-06-11T15:24:23Z</time>
      </trkpt>
      <trkpt lat="46.15888" lon="6.70123">
        <ele>1261</ele>
        <time>2019-06-11T15:24:23Z</time>
      </trkpt>
      <trkpt lat="46.15895" lon="6.7012">
        <ele>1262</ele>
        <time>2019-06-11T15:24:25Z</time>
      </trkpt>
      <trkpt lat="46.15904" lon="6.70123">
        <ele>1260</ele>
        <time>2019-06-11T15:24:26Z</time>
      </trkpt>
      <trkpt lat="46.15938" lon="6.70156">
        <ele>1248</ele>
        <time>2019-06-11T15:24:34Z</time>
      </trkpt>
      <trkpt lat="46.15965" lon="6.70159">
        <ele>1251</ele>
        <time>2019-06-11T15:24:38Z</time>
      </trkpt>
      <trkpt lat="46.15981" lon="6.70164">
        <ele>1251</ele>
        <time>2019-06-11T15:24:41Z</time>
      </trkpt>
      <trkpt lat="46.15993" lon="6.70173">
        <ele>1250</ele>
        <time>2019-06-11T15:24:44Z</time>
      </trkpt>
      <trkpt lat="46.16012" lon="6.70192">
        <ele>1246</ele>
        <time>2019-06-11T15:24:48Z</time>
      </trkpt>
      <trkpt lat="46.16023" lon="6.70198">
        <ele>1245</ele>
        <time>2019-06-11T15:24:50Z</time>
      </trkpt>
      <trkpt lat="46.16065" lon="6.70211">
        <ele>1242</ele>
        <time>2019-06-11T15:24:58Z</time>
      </trkpt>
      <trkpt lat="46.16092" lon="6.70226">
        <ele>1238</ele>
        <time>2019-06-11T15:25:03Z</time>
      </trkpt>
      <trkpt lat="46.16127" lon="6.70231">
        <ele>1240</ele>
        <time>2019-06-11T15:25:09Z</time>
      </trkpt>
      <trkpt lat="46.16145" lon="6.70237">
        <ele>1240</ele>
        <time>2019-06-11T15:25:12Z</time>
      </trkpt>
      <trkpt lat="46.16163" lon="6.70251">
        <ele>1239</ele>
        <time>2019-06-11T15:25:16Z</time>
      </trkpt>
      <trkpt lat="46.162" lon="6.70285">
        <ele>1233</ele>
        <time>2019-06-11T15:25:24Z</time>
      </trkpt>
      <trkpt lat="46.16218" lon="6.70289">
        <ele>1234</ele>
        <time>2019-06-11T15:25:27Z</time>
      </trkpt>
      <trkpt lat="46.16248" lon="6.7028">
        <ele>1238</ele>
        <time>2019-06-11T15:25:32Z</time>
      </trkpt>
      <trkpt lat="46.16259" lon="6.70281">
        <ele>1239</ele>
        <time>2019-06-11T15:25:34Z</time>
      </trkpt>
      <trkpt lat="46.16285" lon="6.70296">
        <ele>1240</ele>
        <time>2019-06-11T15:25:39Z</time>
      </trkpt>
      <trkpt lat="46.16298" lon="6.7031">
        <ele>1238</ele>
        <time>2019-06-11T15:25:42Z</time>
      </trkpt>
      <trkpt lat="46.16311" lon="6.70355">
        <ele>1232</ele>
        <time>2019-06-11T15:25:48Z</time>
      </trkpt>
      <trkpt lat="46.16315" lon="6.70364">
        <ele>1230</ele>
        <time>2019-06-11T15:25:50Z</time>
      </trkpt>
      <trkpt lat="46.16323" lon="6.70378">
        <ele>1229</ele>
        <time>2019-06-11T15:25:52Z</time>
      </trkpt>
      <trkpt lat="46.16334" lon="6.70389">
        <ele>1230</ele>
        <time>2019-06-11T15:25:54Z</time>
      </trkpt>
      <trkpt lat="46.1638" lon="6.70416">
        <ele>1231</ele>
        <time>2019-06-11T15:26:03Z</time>
      </trkpt>
      <trkpt lat="46.164" lon="6.70434">
        <ele>1230</ele>
        <time>2019-06-11T15:26:07Z</time>
      </trkpt>
      <trkpt lat="46.16407" lon="6.70443">
        <ele>1229</ele>
        <time>2019-06-11T15:26:09Z</time>
      </trkpt>
      <trkpt lat="46.16443" lon="6.70506">
        <ele>1220</ele>
        <time>2019-06-11T15:26:19Z</time>
      </trkpt>
      <trkpt lat="46.16504" lon="6.70597">
        <ele>1206</ele>
        <time>2019-06-11T15:26:35Z</time>
      </trkpt>
      <trkpt lat="46.16514" lon="6.70607">
        <ele>1203</ele>
        <time>2019-06-11T15:26:37Z</time>
      </trkpt>
      <trkpt lat="46.16524" lon="6.70613">
        <ele>1201</ele>
        <time>2019-06-11T15:26:39Z</time>
      </trkpt>
      <trkpt lat="46.16541" lon="6.70615">
        <ele>1199</ele>
        <time>2019-06-11T15:26:42Z</time>
      </trkpt>
      <trkpt lat="46.16565" lon="6.70608">
        <ele>1199</ele>
        <time>2019-06-11T15:26:46Z</time>
      </trkpt>
      <trkpt lat="46.16607" lon="6.70588">
        <ele>1198</ele>
        <time>2019-06-11T15:26:54Z</time>
      </trkpt>
      <trkpt lat="46.16612" lon="6.70587">
        <ele>1198</ele>
        <time>2019-06-11T15:26:55Z</time>
      </trkpt>
      <trkpt lat="46.16622" lon="6.7059">
        <ele>1196</ele>
        <time>2019-06-11T15:26:57Z</time>
      </trkpt>
      <trkpt lat="46.1663" lon="6.70599">
        <ele>1193</ele>
        <time>2019-06-11T15:26:58Z</time>
      </trkpt>
      <trkpt lat="46.16637" lon="6.70619">
        <ele>1189</ele>
        <time>2019-06-11T15:27:01Z</time>
      </trkpt>
      <trkpt lat="46.16638" lon="6.70636">
        <ele>1187</ele>
        <time>2019-06-11T15:27:03Z</time>
      </trkpt>
      <trkpt lat="46.16631" lon="6.70655">
        <ele>1185</ele>
        <time>2019-06-11T15:27:06Z</time>
      </trkpt>
      <trkpt lat="46.16608" lon="6.70681">
        <ele>1182</ele>
        <time>2019-06-11T15:27:11Z</time>
      </trkpt>
      <trkpt lat="46.16591" lon="6.70696">
        <ele>1180</ele>
        <time>2019-06-11T15:27:15Z</time>
      </trkpt>
      <trkpt lat="46.16571" lon="6.70708">
        <ele>1178</ele>
        <time>2019-06-11T15:27:19Z</time>
      </trkpt>
      <trkpt lat="46.16524" lon="6.70742">
        <ele>1168</ele>
        <time>2019-06-11T15:27:28Z</time>
      </trkpt>
      <trkpt lat="46.16518" lon="6.70751">
        <ele>1166</ele>
        <time>2019-06-11T15:27:29Z</time>
      </trkpt>
      <trkpt lat="46.16512" lon="6.70763">
        <ele>1165</ele>
        <time>2019-06-11T15:27:31Z</time>
      </trkpt>
      <trkpt lat="46.16503" lon="6.70792">
        <ele>1162</ele>
        <time>2019-06-11T15:27:35Z</time>
      </trkpt>
      <trkpt lat="46.16497" lon="6.70818">
        <ele>1161</ele>
        <time>2019-06-11T15:27:39Z</time>
      </trkpt>
      <trkpt lat="46.16495" lon="6.70835">
        <ele>1160</ele>
        <time>2019-06-11T15:27:41Z</time>
      </trkpt>
      <trkpt lat="46.16497" lon="6.70868">
        <ele>1159</ele>
        <time>2019-06-11T15:27:45Z</time>
      </trkpt>
      <trkpt lat="46.16503" lon="6.70901">
        <ele>1157</ele>
        <time>2019-06-11T15:27:49Z</time>
      </trkpt>
      <trkpt lat="46.16507" lon="6.70913">
        <ele>1156</ele>
        <time>2019-06-11T15:27:51Z</time>
      </trkpt>
      <trkpt lat="46.16514" lon="6.70924">
        <ele>1154</ele>
        <time>2019-06-11T15:27:52Z</time>
      </trkpt>
      <trkpt lat="46.1653" lon="6.70938">
        <ele>1150</ele>
        <time>2019-06-11T15:27:56Z</time>
      </trkpt>
      <trkpt lat="46.16544" lon="6.7094">
        <ele>1148</ele>
        <time>2019-06-11T15:27:58Z</time>
      </trkpt>
      <trkpt lat="46.16573" lon="6.70932">
        <ele>1147</ele>
        <time>2019-06-11T15:28:04Z</time>
      </trkpt>
      <trkpt lat="46.16592" lon="6.70932">
        <ele>1145</ele>
        <time>2019-06-11T15:28:07Z</time>
      </trkpt>
      <trkpt lat="46.16628" lon="6.7092">
        <ele>1140</ele>
        <time>2019-06-11T15:28:14Z</time>
      </trkpt>
      <trkpt lat="46.16673" lon="6.70898">
        <ele>1132</ele>
        <time>2019-06-11T15:28:22Z</time>
      </trkpt>
      <trkpt lat="46.16677" lon="6.70895">
        <ele>1131</ele>
        <time>2019-06-11T15:28:23Z</time>
      </trkpt>
      <trkpt lat="46.16687" lon="6.70879">
        <ele>1130</ele>
        <time>2019-06-11T15:28:25Z</time>
      </trkpt>
      <trkpt lat="46.16695" lon="6.70832">
        <ele>1130</ele>
        <time>2019-06-11T15:28:31Z</time>
      </trkpt>
      <trkpt lat="46.16702" lon="6.70813">
        <ele>1133</ele>
        <time>2019-06-11T15:28:34Z</time>
      </trkpt>
      <trkpt lat="46.16709" lon="6.70805">
        <ele>1133</ele>
        <time>2019-06-11T15:28:36Z</time>
      </trkpt>
      <trkpt lat="46.1674" lon="6.70787">
        <ele>1129</ele>
        <time>2019-06-11T15:28:42Z</time>
      </trkpt>
      <trkpt lat="46.16748" lon="6.70781">
        <ele>1128</ele>
        <time>2019-06-11T15:28:43Z</time>
      </trkpt>
      <trkpt lat="46.16759" lon="6.70764">
        <ele>1129</ele>
        <time>2019-06-11T15:28:46Z</time>
      </trkpt>
      <trkpt lat="46.16773" lon="6.70729">
        <ele>1135</ele>
        <time>2019-06-11T15:28:51Z</time>
      </trkpt>
      <trkpt lat="46.1678" lon="6.70723">
        <ele>1135</ele>
        <time>2019-06-11T15:28:52Z</time>
      </trkpt>
      <trkpt lat="46.16785" lon="6.70721">
        <ele>1135</ele>
        <time>2019-06-11T15:28:53Z</time>
      </trkpt>
      <trkpt lat="46.16795" lon="6.70723">
        <ele>1132</ele>
        <time>2019-06-11T15:28:55Z</time>
      </trkpt>
      <trkpt lat="46.16812" lon="6.70734">
        <ele>1123</ele>
        <time>2019-06-11T15:28:59Z</time>
      </trkpt>
      <trkpt lat="46.16825" lon="6.70738">
        <ele>1118</ele>
        <time>2019-06-11T15:29:01Z</time>
      </trkpt>
      <trkpt lat="46.16838" lon="6.70736">
        <ele>1116</ele>
        <time>2019-06-11T15:29:03Z</time>
      </trkpt>
      <trkpt lat="46.16887" lon="6.7072">
        <ele>1113</ele>
        <time>2019-06-11T15:29:12Z</time>
      </trkpt>
      <trkpt lat="46.16911" lon="6.70721">
        <ele>1108</ele>
        <time>2019-06-11T15:29:16Z</time>
      </trkpt>
      <trkpt lat="46.16967" lon="6.7074">
        <ele>1094</ele>
        <time>2019-06-11T15:29:27Z</time>
      </trkpt>
      <trkpt lat="46.16987" lon="6.70744">
        <ele>1090</ele>
        <time>2019-06-11T15:29:30Z</time>
      </trkpt>
      <trkpt lat="46.17023" lon="6.70746">
        <ele>1087</ele>
        <time>2019-06-11T15:29:37Z</time>
      </trkpt>
      <trkpt lat="46.17048" lon="6.70754">
        <ele>1084</ele>
        <time>2019-06-11T15:29:41Z</time>
      </trkpt>
      <trkpt lat="46.17067" lon="6.70753">
        <ele>1083</ele>
        <time>2019-06-11T15:29:45Z</time>
      </trkpt>
      <trkpt lat="46.17092" lon="6.70741">
        <ele>1085</ele>
        <time>2019-06-11T15:29:49Z</time>
      </trkpt>
      <trkpt lat="46.17117" lon="6.70737">
        <ele>1082</ele>
        <time>2019-06-11T15:29:54Z</time>
      </trkpt>
      <trkpt lat="46.17173" lon="6.70739">
        <ele>1071</ele>
        <time>2019-06-11T15:30:04Z</time>
      </trkpt>
      <trkpt lat="46.17199" lon="6.70731">
        <ele>1068</ele>
        <time>2019-06-11T15:30:08Z</time>
      </trkpt>
      <trkpt lat="46.17292" lon="6.7072">
        <ele>1051</ele>
        <time>2019-06-11T15:30:25Z</time>
      </trkpt>
      <trkpt lat="46.17312" lon="6.70711">
        <ele>1049</ele>
        <time>2019-06-11T15:30:29Z</time>
      </trkpt>
      <trkpt lat="46.17358" lon="6.70683">
        <ele>1045</ele>
        <time>2019-06-11T15:30:38Z</time>
      </trkpt>
      <trkpt lat="46.17368" lon="6.7068">
        <ele>1044</ele>
        <time>2019-06-11T15:30:39Z</time>
      </trkpt>
      <trkpt lat="46.17377" lon="6.70681">
        <ele>1042</ele>
        <time>2019-06-11T15:30:41Z</time>
      </trkpt>
      <trkpt lat="46.17385" lon="6.70688">
        <ele>1040</ele>
        <time>2019-06-11T15:30:43Z</time>
      </trkpt>
      <trkpt lat="46.17387" lon="6.70694">
        <ele>1039</ele>
        <time>2019-06-11T15:30:44Z</time>
      </trkpt>
      <trkpt lat="46.1739" lon="6.70707">
        <ele>1037</ele>
        <time>2019-06-11T15:30:45Z</time>
      </trkpt>
      <trkpt lat="46.17389" lon="6.7072">
        <ele>1035</ele>
        <time>2019-06-11T15:30:47Z</time>
      </trkpt>
      <trkpt lat="46.17371" lon="6.70758">
        <ele>1033</ele>
        <time>2019-06-11T15:30:53Z</time>
      </trkpt>
      <trkpt lat="46.17365" lon="6.70789">
        <ele>1032</ele>
        <time>2019-06-11T15:30:57Z</time>
      </trkpt>
      <trkpt lat="46.17363" lon="6.70816">
        <ele>1030</ele>
        <time>2019-06-11T15:31:00Z</time>
      </trkpt>
      <trkpt lat="46.17365" lon="6.70828">
        <ele>1029</ele>
        <time>2019-06-11T15:31:01Z</time>
      </trkpt>
      <trkpt lat="46.17367" lon="6.70832">
        <ele>1029</ele>
        <time>2019-06-11T15:31:02Z</time>
      </trkpt>
      <trkpt lat="46.17376" lon="6.7084">
        <ele>1027</ele>
        <time>2019-06-11T15:31:04Z</time>
      </trkpt>
      <trkpt lat="46.17387" lon="6.70843">
        <ele>1025</ele>
        <time>2019-06-11T15:31:06Z</time>
      </trkpt>
      <trkpt lat="46.17409" lon="6.70839">
        <ele>1023</ele>
        <time>2019-06-11T15:31:10Z</time>
      </trkpt>
      <trkpt lat="46.17458" lon="6.70825">
        <ele>1018</ele>
        <time>2019-06-11T15:31:19Z</time>
      </trkpt>
      <trkpt lat="46.17469" lon="6.70823">
        <ele>1017</ele>
        <time>2019-06-11T15:31:21Z</time>
      </trkpt>
      <trkpt lat="46.17521" lon="6.70825">
        <ele>1009</ele>
        <time>2019-06-11T15:31:30Z</time>
      </trkpt>
      <trkpt lat="46.17542" lon="6.70821">
        <ele>1006</ele>
        <time>2019-06-11T15:31:34Z</time>
      </trkpt>
      <trkpt lat="46.17577" lon="6.7081">
        <ele>1000</ele>
        <time>2019-06-11T15:31:40Z</time>
      </trkpt>
      <trkpt lat="46.1767" lon="6.70776">
        <ele>988</ele>
        <time>2019-06-11T15:31:57Z</time>
      </trkpt>
      <trkpt lat="46.17683" lon="6.70773">
        <ele>988</ele>
        <time>2019-06-11T15:31:59Z</time>
      </trkpt>
      <trkpt lat="46.17702" lon="6.70771">
        <ele>988</ele>
        <time>2019-06-11T15:32:03Z</time>
      </trkpt>
      <trkpt lat="46.17716" lon="6.70772">
        <ele>987</ele>
        <time>2019-06-11T15:32:05Z</time>
      </trkpt>
      <trkpt lat="46.1774" lon="6.70777">
        <ele>985</ele>
        <time>2019-06-11T15:32:10Z</time>
      </trkpt>
      <trkpt lat="46.17744" lon="6.70771">
        <ele>986</ele>
        <time>2019-06-11T15:32:11Z</time>
      </trkpt>
      <trkpt lat="46.17758" lon="6.70704">
        <ele>987</ele>
        <time>2019-06-11T15:32:19Z</time>
      </trkpt>
      <trkpt lat="46.17757" lon="6.70693">
        <ele>987</ele>
        <time>2019-06-11T15:32:21Z</time>
      </trkpt>
      <trkpt lat="46.17755" lon="6.70686">
        <ele>987</ele>
        <time>2019-06-11T15:32:22Z</time>
      </trkpt>
      <trkpt lat="46.17758" lon="6.70683">
        <ele>987</ele>
        <time>2019-06-11T15:32:22Z</time>
      </trkpt>
      <trkpt lat="46.17761" lon="6.70675">
        <ele>987</ele>
        <time>2019-06-11T15:32:23Z</time>
      </trkpt>
      <trkpt lat="46.17759" lon="6.70665">
        <ele>987</ele>
        <time>2019-06-11T15:32:25Z</time>
      </trkpt>
      <trkpt lat="46.17752" lon="6.70661">
        <ele>987</ele>
        <time>2019-06-11T15:32:26Z</time>
      </trkpt>
      <trkpt lat="46.17746" lon="6.70664">
        <ele>987</ele>
        <time>2019-06-11T15:32:27Z</time>
      </trkpt>
      <trkpt lat="46.17743" lon="6.70673">
        <ele>988</ele>
        <time>2019-06-11T15:32:28Z</time>
      </trkpt>
      <trkpt lat="46.17745" lon="6.70682">
        <ele>988</ele>
        <time>2019-06-11T15:32:30Z</time>
      </trkpt>
      <trkpt lat="46.17679" lon="6.70793">
        <ele>985</ele>
        <time>2019-06-11T15:32:48Z</time>
      </trkpt>
      <trkpt lat="46.17663" lon="6.70812">
        <ele>984</ele>
        <time>2019-06-11T15:32:51Z</time>
      </trkpt>
      <trkpt lat="46.17621" lon="6.70846">
        <ele>987</ele>
        <time>2019-06-11T15:33:00Z</time>
      </trkpt>
      <trkpt lat="46.17581" lon="6.709">
        <ele>985</ele>
        <time>2019-06-11T15:33:10Z</time>
      </trkpt>
      <trkpt lat="46.17571" lon="6.70923">
        <ele>984</ele>
        <time>2019-06-11T15:33:13Z</time>
      </trkpt>
      <trkpt lat="46.17567" lon="6.70948">
        <ele>982</ele>
        <time>2019-06-11T15:33:16Z</time>
      </trkpt>
      <trkpt lat="46.17568" lon="6.70963">
        <ele>981</ele>
        <time>2019-06-11T15:33:18Z</time>
      </trkpt>
      <trkpt lat="46.17577" lon="6.7101">
        <ele>977</ele>
        <time>2019-06-11T15:33:24Z</time>
      </trkpt>
      <trkpt lat="46.17579" lon="6.71024">
        <ele>980</ele>
        <time>2019-06-11T15:33:26Z</time>
      </trkpt>
      <trkpt lat="46.17575" lon="6.71032">
        <ele>981</ele>
        <time>2019-06-11T15:33:27Z</time>
      </trkpt>
      <trkpt lat="46.17577" lon="6.7104">
        <ele>982</ele>
        <time>2019-06-11T15:33:28Z</time>
      </trkpt>
      <trkpt lat="46.17564" lon="6.7105">
        <ele>984</ele>
        <time>2019-06-11T15:33:31Z</time>
      </trkpt>
      <trkpt lat="46.175" lon="6.71075">
        <ele>986</ele>
        <time>2019-06-11T15:33:42Z</time>
      </trkpt>
      <trkpt lat="46.17495" lon="6.71082">
        <ele>986</ele>
        <time>2019-06-11T15:33:44Z</time>
      </trkpt>
      <trkpt lat="46.17494" lon="6.71087">
        <ele>987</ele>
        <time>2019-06-11T15:33:44Z</time>
      </trkpt>
      <trkpt lat="46.17496" lon="6.71096">
        <ele>988</ele>
        <time>2019-06-11T15:33:45Z</time>
      </trkpt>
      <trkpt lat="46.17501" lon="6.71101">
        <ele>989</ele>
        <time>2019-06-11T15:33:47Z</time>
      </trkpt>
      <trkpt lat="46.17508" lon="6.711">
        <ele>990</ele>
        <time>2019-06-11T15:33:48Z</time>
      </trkpt>
      <trkpt lat="46.17524" lon="6.71084">
        <ele>987</ele>
        <time>2019-06-11T15:33:51Z</time>
      </trkpt>
      <trkpt lat="46.17533" lon="6.71077">
        <ele>987</ele>
        <time>2019-06-11T15:33:53Z</time>
      </trkpt>
      <trkpt lat="46.17543" lon="6.71074">
        <ele>987</ele>
        <time>2019-06-11T15:33:55Z</time>
      </trkpt>
      <trkpt lat="46.17552" lon="6.71075">
        <ele>988</ele>
        <time>2019-06-11T15:33:56Z</time>
      </trkpt>
      <trkpt lat="46.17581" lon="6.71085">
        <ele>990</ele>
        <time>2019-06-11T15:34:02Z</time>
      </trkpt>
      <trkpt lat="46.17591" lon="6.71087">
        <ele>991</ele>
        <time>2019-06-11T15:34:04Z</time>
      </trkpt>
      <trkpt lat="46.17684" lon="6.7107">
        <ele>992</ele>
        <time>2019-06-11T15:34:20Z</time>
      </trkpt>
      <trkpt lat="46.17698" lon="6.71072">
        <ele>993</ele>
        <time>2019-06-11T15:34:23Z</time>
      </trkpt>
      <trkpt lat="46.17743" lon="6.71085">
        <ele>997</ele>
        <time>2019-06-11T15:34:31Z</time>
      </trkpt>
      <trkpt lat="46.17774" lon="6.71082">
        <ele>998</ele>
        <time>2019-06-11T15:34:36Z</time>
      </trkpt>
      <trkpt lat="46.17839" lon="6.71084">
        <ele>1000</ele>
        <time>2019-06-11T15:34:48Z</time>
      </trkpt>
      <trkpt lat="46.17848" lon="6.71071">
        <ele>996</ele>
        <time>2019-06-11T15:34:50Z</time>
      </trkpt>
      <trkpt lat="46.17856" lon="6.71069">
        <ele>995</ele>
        <time>2019-06-11T15:34:52Z</time>
      </trkpt>
      <trkpt lat="46.17895" lon="6.71074">
        <ele>993</ele>
        <time>2019-06-11T15:34:59Z</time>
      </trkpt>
      <trkpt lat="46.17898" lon="6.71076">
        <ele>993</ele>
        <time>2019-06-11T15:34:59Z</time>
      </trkpt>
      <trkpt lat="46.17901" lon="6.71086">
        <ele>994</ele>
        <time>2019-06-11T15:35:01Z</time>
      </trkpt>
      <trkpt lat="46.179" lon="6.71114">
        <ele>995</ele>
        <time>2019-06-11T15:35:04Z</time>
      </trkpt>
      <trkpt lat="46.17902" lon="6.71132">
        <ele>995</ele>
        <time>2019-06-11T15:35:06Z</time>
      </trkpt>
      <trkpt lat="46.17912" lon="6.71151">
        <ele>994</ele>
        <time>2019-06-11T15:35:09Z</time>
      </trkpt>
      <trkpt lat="46.17946" lon="6.71204">
        <ele>996</ele>
        <time>2019-06-11T15:35:18Z</time>
      </trkpt>
      <trkpt lat="46.17948" lon="6.7126">
        <ele>1000</ele>
        <time>2019-06-11T15:35:25Z</time>
      </trkpt>
      <trkpt lat="46.1795" lon="6.71273">
        <ele>1001</ele>
        <time>2019-06-11T15:35:27Z</time>
      </trkpt>
      <trkpt lat="46.1796" lon="6.71291">
        <ele>1002</ele>
        <time>2019-06-11T15:35:30Z</time>
      </trkpt>
      <trkpt lat="46.17967" lon="6.7131">
        <ele>1002</ele>
        <time>2019-06-11T15:35:32Z</time>
      </trkpt>
      <trkpt lat="46.17971" lon="6.71313">
        <ele>1002</ele>
        <time>2019-06-11T15:35:33Z</time>
      </trkpt>
      <trkpt lat="46.17973" lon="6.71312">
        <ele>1002</ele>
        <time>2019-06-11T15:35:33Z</time>
      </trkpt>
      <trkpt lat="46.17987" lon="6.71301">
        <ele>1001</ele>
        <time>2019-06-11T15:35:36Z</time>
      </trkpt>
      <trkpt lat="46.17988" lon="6.71296">
        <ele>1000</ele>
        <time>2019-06-11T15:35:37Z</time>
      </trkpt>
      <trkpt lat="46.17988" lon="6.71263">
        <ele>999</ele>
        <time>2019-06-11T15:35:41Z</time>
      </trkpt>
      <trkpt lat="46.17997" lon="6.7123">
        <ele>996</ele>
        <time>2019-06-11T15:35:45Z</time>
      </trkpt>
      <trkpt lat="46.18005" lon="6.71204">
        <ele>995</ele>
        <time>2019-06-11T15:35:49Z</time>
      </trkpt>
      <trkpt lat="46.18013" lon="6.71164">
        <ele>993</ele>
        <time>2019-06-11T15:35:54Z</time>
      </trkpt>
      <trkpt lat="46.18018" lon="6.71149">
        <ele>993</ele>
        <time>2019-06-11T15:35:56Z</time>
      </trkpt>
      <trkpt lat="46.18045" lon="6.711">
        <ele>995</ele>
        <time>2019-06-11T15:36:04Z</time>
      </trkpt>
      <trkpt lat="46.18057" lon="6.71043">
        <ele>991</ele>
        <time>2019-06-11T15:36:11Z</time>
      </trkpt>
      <trkpt lat="46.18076" lon="6.70997">
        <ele>988</ele>
        <time>2019-06-11T15:36:18Z</time>
      </trkpt>
      <trkpt lat="46.18082" lon="6.70987">
        <ele>988</ele>
        <time>2019-06-11T15:36:19Z</time>
      </trkpt>
      <trkpt lat="46.18132" lon="6.70939">
        <ele>992</ele>
        <time>2019-06-11T15:36:30Z</time>
      </trkpt>
      <trkpt lat="46.18153" lon="6.70906">
        <ele>991</ele>
        <time>2019-06-11T15:36:35Z</time>
      </trkpt>
      <trkpt lat="46.18179" lon="6.70882">
        <ele>991</ele>
        <time>2019-06-11T15:36:41Z</time>
      </trkpt>
      <trkpt lat="46.18221" lon="6.70836">
        <ele>992</ele>
        <time>2019-06-11T15:36:50Z</time>
      </trkpt>
      <trkpt lat="46.18238" lon="6.70812">
        <ele>992</ele>
        <time>2019-06-11T15:36:55Z</time>
      </trkpt>
      <trkpt lat="46.18281" lon="6.70758">
        <ele>992</ele>
        <time>2019-06-11T15:37:05Z</time>
      </trkpt>
      <trkpt lat="46.1829" lon="6.70749">
        <ele>991</ele>
        <time>2019-06-11T15:37:07Z</time>
      </trkpt>
      <trkpt lat="46.18346" lon="6.7071">
        <ele>993</ele>
        <time>2019-06-11T15:37:18Z</time>
      </trkpt>
      <trkpt lat="46.1837" lon="6.7069">
        <ele>992</ele>
        <time>2019-06-11T15:37:23Z</time>
      </trkpt>
      <trkpt lat="46.18391" lon="6.70666">
        <ele>990</ele>
        <time>2019-06-11T15:37:27Z</time>
      </trkpt>
      <trkpt lat="46.18401" lon="6.70657">
        <ele>989</ele>
        <time>2019-06-11T15:37:30Z</time>
      </trkpt>
      <trkpt lat="46.18439" lon="6.70625">
        <ele>986</ele>
        <time>2019-06-11T15:37:37Z</time>
      </trkpt>
      <trkpt lat="46.18453" lon="6.70618">
        <ele>986</ele>
        <time>2019-06-11T15:37:40Z</time>
      </trkpt>
      <trkpt lat="46.1847" lon="6.70604">
        <ele>985</ele>
        <time>2019-06-11T15:37:43Z</time>
      </trkpt>
      <trkpt lat="46.18504" lon="6.70571">
        <ele>983</ele>
        <time>2019-06-11T15:37:51Z</time>
      </trkpt>
      <trkpt lat="46.18587" lon="6.70518">
        <ele>980</ele>
        <time>2019-06-11T15:38:07Z</time>
      </trkpt>
      <trkpt lat="46.18601" lon="6.70507">
        <ele>979</ele>
        <time>2019-06-11T15:38:10Z</time>
      </trkpt>
      <trkpt lat="46.18638" lon="6.70494">
        <ele>981</ele>
        <time>2019-06-11T15:38:16Z</time>
      </trkpt>
      <trkpt lat="46.18653" lon="6.70484">
        <ele>981</ele>
        <time>2019-06-11T15:38:19Z</time>
      </trkpt>
      <trkpt lat="46.18662" lon="6.70475">
        <ele>981</ele>
        <time>2019-06-11T15:38:21Z</time>
      </trkpt>
      <trkpt lat="46.18665" lon="6.70472">
        <ele>980</ele>
        <time>2019-06-11T15:38:22Z</time>
      </trkpt>
      <trkpt lat="46.18651" lon="6.70439">
        <ele>975</ele>
        <time>2019-06-11T15:38:27Z</time>
      </trkpt>
      <trkpt lat="46.18632" lon="6.70403">
        <ele>969</ele>
        <time>2019-06-11T15:38:32Z</time>
      </trkpt>
      <trkpt lat="46.18665" lon="6.70378">
        <ele>970</ele>
        <time>2019-06-11T15:38:39Z</time>
      </trkpt>
      <trkpt lat="46.18749" lon="6.70293">
        <ele>972</ele>
        <time>2019-06-11T15:38:57Z</time>
      </trkpt>
      <trkpt lat="46.18823" lon="6.70214">
        <ele>974</ele>
        <time>2019-06-11T15:39:14Z</time>
      </trkpt>
      <trkpt lat="46.18885" lon="6.70137">
        <ele>971</ele>
        <time>2019-06-11T15:39:28Z</time>
      </trkpt>
      <trkpt lat="46.18899" lon="6.70123">
        <ele>970</ele>
        <time>2019-06-11T15:39:31Z</time>
      </trkpt>
      <trkpt lat="46.18943" lon="6.70096">
        <ele>969</ele>
        <time>2019-06-11T15:39:40Z</time>
      </trkpt>
      <trkpt lat="46.18971" lon="6.70087">
        <ele>969</ele>
        <time>2019-06-11T15:39:45Z</time>
      </trkpt>
      <trkpt lat="46.19018" lon="6.70079">
        <ele>969</ele>
        <time>2019-06-11T15:39:53Z</time>
      </trkpt>
      <trkpt lat="46.19032" lon="6.70073">
        <ele>969</ele>
        <time>2019-06-11T15:39:56Z</time>
      </trkpt>
      <trkpt lat="46.19056" lon="6.70056">
        <ele>969</ele>
        <time>2019-06-11T15:40:01Z</time>
      </trkpt>
      <trkpt lat="46.19077" lon="6.70035">
        <ele>967</ele>
        <time>2019-06-11T15:40:05Z</time>
      </trkpt>
      <trkpt lat="46.19187" lon="6.69909">
        <ele>960</ele>
        <time>2019-06-11T15:40:30Z</time>
      </trkpt>
      <trkpt lat="46.19335" lon="6.69755">
        <ele>960</ele>
        <time>2019-06-11T15:41:03Z</time>
      </trkpt>
      <trkpt lat="46.19358" lon="6.69738">
        <ele>963</ele>
        <time>2019-06-11T15:41:07Z</time>
      </trkpt>
      <trkpt lat="46.19373" lon="6.69717">
        <ele>963</ele>
        <time>2019-06-11T15:41:11Z</time>
      </trkpt>
      <trkpt lat="46.195" lon="6.69578">
        <ele>948</ele>
        <time>2019-06-11T15:41:39Z</time>
      </trkpt>
      <trkpt lat="46.19519" lon="6.6956">
        <ele>949</ele>
        <time>2019-06-11T15:41:43Z</time>
      </trkpt>
      <trkpt lat="46.19558" lon="6.69529">
        <ele>951</ele>
        <time>2019-06-11T15:41:51Z</time>
      </trkpt>
      <trkpt lat="46.19588" lon="6.6951">
        <ele>952</ele>
        <time>2019-06-11T15:41:57Z</time>
      </trkpt>
      <trkpt lat="46.1966" lon="6.69453">
        <ele>947</ele>
        <time>2019-06-11T15:42:12Z</time>
      </trkpt>
      <trkpt lat="46.19675" lon="6.69444">
        <ele>946</ele>
        <time>2019-06-11T15:42:15Z</time>
      </trkpt>
      <trkpt lat="46.19692" lon="6.69431">
        <ele>945</ele>
        <time>2019-06-11T15:42:18Z</time>
      </trkpt>
      <trkpt lat="46.19701" lon="6.69419">
        <ele>944</ele>
        <time>2019-06-11T15:42:20Z</time>
      </trkpt>
      <trkpt lat="46.19706" lon="6.6941">
        <ele>943</ele>
        <time>2019-06-11T15:42:22Z</time>
      </trkpt>
      <trkpt lat="46.1972" lon="6.69419">
        <ele>945</ele>
        <time>2019-06-11T15:42:24Z</time>
      </trkpt>
      <trkpt lat="46.19731" lon="6.69421">
        <ele>945</ele>
        <time>2019-06-11T15:42:26Z</time>
      </trkpt>
      <trkpt lat="46.19791" lon="6.6942">
        <ele>945</ele>
        <time>2019-06-11T15:42:37Z</time>
      </trkpt>
      <trkpt lat="46.19808" lon="6.69417">
        <ele>944</ele>
        <time>2019-06-11T15:42:40Z</time>
      </trkpt>
      <trkpt lat="46.19841" lon="6.69404">
        <ele>943</ele>
        <time>2019-06-11T15:42:46Z</time>
      </trkpt>
      <trkpt lat="46.19873" lon="6.69389">
        <ele>942</ele>
        <time>2019-06-11T15:42:52Z</time>
      </trkpt>
      <trkpt lat="46.19893" lon="6.69388">
        <ele>941</ele>
        <time>2019-06-11T15:42:56Z</time>
      </trkpt>
      <trkpt lat="46.19899" lon="6.69393">
        <ele>941</ele>
        <time>2019-06-11T15:42:57Z</time>
      </trkpt>
      <trkpt lat="46.19907" lon="6.69404">
        <ele>941</ele>
        <time>2019-06-11T15:42:59Z</time>
      </trkpt>
      <trkpt lat="46.20003" lon="6.69655">
        <ele>949</ele>
        <time>2019-06-11T15:43:34Z</time>
      </trkpt>
      <trkpt lat="46.19999" lon="6.6966">
        <ele>950</ele>
        <time>2019-06-11T15:43:35Z</time>
      </trkpt>
      <trkpt lat="46.19999" lon="6.6967">
        <ele>950</ele>
        <time>2019-06-11T15:43:36Z</time>
      </trkpt>
      <trkpt lat="46.20002" lon="6.69675">
        <ele>951</ele>
        <time>2019-06-11T15:43:37Z</time>
      </trkpt>
      <trkpt lat="46.2001" lon="6.69674">
        <ele>950</ele>
        <time>2019-06-11T15:43:39Z</time>
      </trkpt>
      <trkpt lat="46.2015" lon="6.70041">
        <ele>969</ele>
        <time>2019-06-11T15:44:30Z</time>
      </trkpt>
      <trkpt lat="46.20164" lon="6.70088">
        <ele>972</ele>
        <time>2019-06-11T15:44:36Z</time>
      </trkpt>
      <trkpt lat="46.20187" lon="6.702">
        <ele>978</ele>
        <time>2019-06-11T15:44:51Z</time>
      </trkpt>
      <trkpt lat="46.20208" lon="6.70258">
        <ele>978</ele>
        <time>2019-06-11T15:44:59Z</time>
      </trkpt>
      <trkpt lat="46.20213" lon="6.70289">
        <ele>982</ele>
        <time>2019-06-11T15:45:03Z</time>
      </trkpt>
      <trkpt lat="46.20215" lon="6.70324">
        <ele>987</ele>
        <time>2019-06-11T15:45:07Z</time>
      </trkpt>
      <trkpt lat="46.20218" lon="6.70358">
        <ele>992</ele>
        <time>2019-06-11T15:45:11Z</time>
      </trkpt>
      <trkpt lat="46.20225" lon="6.70385">
        <ele>994</ele>
        <time>2019-06-11T15:45:15Z</time>
      </trkpt>
      <trkpt lat="46.20231" lon="6.70401">
        <ele>994</ele>
        <time>2019-06-11T15:45:17Z</time>
      </trkpt>
      <trkpt lat="46.20329" lon="6.70582">
        <ele>1004</ele>
        <time>2019-06-11T15:45:45Z</time>
      </trkpt>
      <trkpt lat="46.20344" lon="6.70617">
        <ele>1006</ele>
        <time>2019-06-11T15:45:51Z</time>
      </trkpt>
      <trkpt lat="46.2035" lon="6.7064">
        <ele>1009</ele>
        <time>2019-06-11T15:45:54Z</time>
      </trkpt>
      <trkpt lat="46.20359" lon="6.70683">
        <ele>1012</ele>
        <time>2019-06-11T15:45:59Z</time>
      </trkpt>
      <trkpt lat="46.20375" lon="6.70741">
        <ele>1012</ele>
        <time>2019-06-11T15:46:07Z</time>
      </trkpt>
      <trkpt lat="46.20388" lon="6.70812">
        <ele>1019</ele>
        <time>2019-06-11T15:46:16Z</time>
      </trkpt>
      <trkpt lat="46.20394" lon="6.70836">
        <ele>1020</ele>
        <time>2019-06-11T15:46:19Z</time>
      </trkpt>
      <trkpt lat="46.20433" lon="6.70956">
        <ele>1028</ele>
        <time>2019-06-11T15:46:35Z</time>
      </trkpt>
      <trkpt lat="46.2047" lon="6.71056">
        <ele>1031</ele>
        <time>2019-06-11T15:46:49Z</time>
      </trkpt>
      <trkpt lat="46.20475" lon="6.71086">
        <ele>1034</ele>
        <time>2019-06-11T15:46:53Z</time>
      </trkpt>
      <trkpt lat="46.20482" lon="6.71161">
        <ele>1040</ele>
        <time>2019-06-11T15:47:02Z</time>
      </trkpt>
      <trkpt lat="46.20488" lon="6.71186">
        <ele>1041</ele>
        <time>2019-06-11T15:47:06Z</time>
      </trkpt>
      <trkpt lat="46.20498" lon="6.71217">
        <ele>1041</ele>
        <time>2019-06-11T15:47:10Z</time>
      </trkpt>
      <trkpt lat="46.20508" lon="6.71241">
        <ele>1043</ele>
        <time>2019-06-11T15:47:13Z</time>
      </trkpt>
      <trkpt lat="46.20575" lon="6.71385">
        <ele>1047</ele>
        <time>2019-06-11T15:47:35Z</time>
      </trkpt>
      <trkpt lat="46.20584" lon="6.71411">
        <ele>1048</ele>
        <time>2019-06-11T15:47:38Z</time>
      </trkpt>
      <trkpt lat="46.20595" lon="6.71459">
        <ele>1055</ele>
        <time>2019-06-11T15:47:44Z</time>
      </trkpt>
      <trkpt lat="46.20599" lon="6.71471">
        <ele>1057</ele>
        <time>2019-06-11T15:47:46Z</time>
      </trkpt>
      <trkpt lat="46.20612" lon="6.71492">
        <ele>1058</ele>
        <time>2019-06-11T15:47:50Z</time>
      </trkpt>
      <trkpt lat="46.20633" lon="6.71521">
        <ele>1058</ele>
        <time>2019-06-11T15:47:55Z</time>
      </trkpt>
      <trkpt lat="46.20644" lon="6.71539">
        <ele>1059</ele>
        <time>2019-06-11T15:47:58Z</time>
      </trkpt>
      <trkpt lat="46.20665" lon="6.71596">
        <ele>1062</ele>
        <time>2019-06-11T15:48:06Z</time>
      </trkpt>
      <trkpt lat="46.20674" lon="6.71611">
        <ele>1062</ele>
        <time>2019-06-11T15:48:08Z</time>
      </trkpt>
      <trkpt lat="46.2069" lon="6.71631">
        <ele>1064</ele>
        <time>2019-06-11T15:48:12Z</time>
      </trkpt>
      <trkpt lat="46.20718" lon="6.71646">
        <ele>1062</ele>
        <time>2019-06-11T15:48:17Z</time>
      </trkpt>
      <trkpt lat="46.20764" lon="6.71666">
        <ele>1063</ele>
        <time>2019-06-11T15:48:26Z</time>
      </trkpt>
      <trkpt lat="46.20795" lon="6.71669">
        <ele>1069</ele>
        <time>2019-06-11T15:48:31Z</time>
      </trkpt>
      <trkpt lat="46.20806" lon="6.71674">
        <ele>1072</ele>
        <time>2019-06-11T15:48:33Z</time>
      </trkpt>
      <trkpt lat="46.20812" lon="6.71679">
        <ele>1073</ele>
        <time>2019-06-11T15:48:35Z</time>
      </trkpt>
      <trkpt lat="46.20823" lon="6.71695">
        <ele>1076</ele>
        <time>2019-06-11T15:48:37Z</time>
      </trkpt>
      <trkpt lat="46.2083" lon="6.71711">
        <ele>1078</ele>
        <time>2019-06-11T15:48:40Z</time>
      </trkpt>
      <trkpt lat="46.20833" lon="6.71728">
        <ele>1078</ele>
        <time>2019-06-11T15:48:42Z</time>
      </trkpt>
      <trkpt lat="46.20835" lon="6.71768">
        <ele>1081</ele>
        <time>2019-06-11T15:48:47Z</time>
      </trkpt>
      <trkpt lat="46.20841" lon="6.71779">
        <ele>1084</ele>
        <time>2019-06-11T15:48:48Z</time>
      </trkpt>
      <trkpt lat="46.20858" lon="6.71797">
        <ele>1091</ele>
        <time>2019-06-11T15:48:52Z</time>
      </trkpt>
      <trkpt lat="46.20865" lon="6.7181">
        <ele>1093</ele>
        <time>2019-06-11T15:48:54Z</time>
      </trkpt>
      <trkpt lat="46.20872" lon="6.71835">
        <ele>1095</ele>
        <time>2019-06-11T15:48:58Z</time>
      </trkpt>
      <trkpt lat="46.20886" lon="6.71947">
        <ele>1093</ele>
        <time>2019-06-11T15:49:12Z</time>
      </trkpt>
      <trkpt lat="46.20877" lon="6.71954">
        <ele>1092</ele>
        <time>2019-06-11T15:49:13Z</time>
      </trkpt>
      <trkpt lat="46.20873" lon="6.71961">
        <ele>1090</ele>
        <time>2019-06-11T15:49:14Z</time>
      </trkpt>
      <trkpt lat="46.20871" lon="6.71974">
        <ele>1089</ele>
        <time>2019-06-11T15:49:16Z</time>
      </trkpt>
      <trkpt lat="46.20879" lon="6.72007">
        <ele>1085</ele>
        <time>2019-06-11T15:49:20Z</time>
      </trkpt>
      <trkpt lat="46.20871" lon="6.71974">
        <ele>1089</ele>
        <time>2019-06-11T15:49:25Z</time>
      </trkpt>
      <trkpt lat="46.20873" lon="6.71961">
        <ele>1090</ele>
        <time>2019-06-11T15:49:26Z</time>
      </trkpt>
      <trkpt lat="46.20877" lon="6.71954">
        <ele>1092</ele>
        <time>2019-06-11T15:49:28Z</time>
      </trkpt>
      <trkpt lat="46.20886" lon="6.71947">
        <ele>1093</ele>
        <time>2019-06-11T15:49:29Z</time>
      </trkpt>
      <trkpt lat="46.20872" lon="6.71835">
        <ele>1095</ele>
        <time>2019-06-11T15:49:43Z</time>
      </trkpt>
      <trkpt lat="46.20865" lon="6.7181">
        <ele>1093</ele>
        <time>2019-06-11T15:49:47Z</time>
      </trkpt>
      <trkpt lat="46.20854" lon="6.71794">
        <ele>1089</ele>
        <time>2019-06-11T15:49:49Z</time>
      </trkpt>
      <trkpt lat="46.20856" lon="6.71775">
        <ele>1089</ele>
        <time>2019-06-11T15:49:52Z</time>
      </trkpt>
      <trkpt lat="46.20844" lon="6.71677">
        <ele>1082</ele>
        <time>2019-06-11T15:50:04Z</time>
      </trkpt>
      <trkpt lat="46.20835" lon="6.71656">
        <ele>1078</ele>
        <time>2019-06-11T15:50:07Z</time>
      </trkpt>
      <trkpt lat="46.20805" lon="6.71606">
        <ele>1070</ele>
        <time>2019-06-11T15:50:15Z</time>
      </trkpt>
      <trkpt lat="46.2079" lon="6.71571">
        <ele>1066</ele>
        <time>2019-06-11T15:50:20Z</time>
      </trkpt>
      <trkpt lat="46.20775" lon="6.71528">
        <ele>1061</ele>
        <time>2019-06-11T15:50:26Z</time>
      </trkpt>
      <trkpt lat="46.20773" lon="6.71501">
        <ele>1060</ele>
        <time>2019-06-11T15:50:30Z</time>
      </trkpt>
      <trkpt lat="46.20774" lon="6.71484">
        <ele>1058</ele>
        <time>2019-06-11T15:50:32Z</time>
      </trkpt>
      <trkpt lat="46.20777" lon="6.7147">
        <ele>1058</ele>
        <time>2019-06-11T15:50:33Z</time>
      </trkpt>
      <trkpt lat="46.20787" lon="6.71446">
        <ele>1058</ele>
        <time>2019-06-11T15:50:37Z</time>
      </trkpt>
      <trkpt lat="46.20791" lon="6.7143">
        <ele>1058</ele>
        <time>2019-06-11T15:50:39Z</time>
      </trkpt>
      <trkpt lat="46.20795" lon="6.71377">
        <ele>1052</ele>
        <time>2019-06-11T15:50:46Z</time>
      </trkpt>
      <trkpt lat="46.208" lon="6.71349">
        <ele>1049</ele>
        <time>2019-06-11T15:50:49Z</time>
      </trkpt>
      <trkpt lat="46.20804" lon="6.71339">
        <ele>1048</ele>
        <time>2019-06-11T15:50:51Z</time>
      </trkpt>
      <trkpt lat="46.20808" lon="6.71332">
        <ele>1049</ele>
        <time>2019-06-11T15:50:52Z</time>
      </trkpt>
      <trkpt lat="46.20821" lon="6.71318">
        <ele>1050</ele>
        <time>2019-06-11T15:50:55Z</time>
      </trkpt>
      <trkpt lat="46.20836" lon="6.7131">
        <ele>1053</ele>
        <time>2019-06-11T15:50:57Z</time>
      </trkpt>
      <trkpt lat="46.2084" lon="6.71301">
        <ele>1054</ele>
        <time>2019-06-11T15:50:59Z</time>
      </trkpt>
      <trkpt lat="46.20847" lon="6.71262">
        <ele>1051</ele>
        <time>2019-06-11T15:51:04Z</time>
      </trkpt>
      <trkpt lat="46.20846" lon="6.71219">
        <ele>1050</ele>
        <time>2019-06-11T15:51:09Z</time>
      </trkpt>
      <trkpt lat="46.20844" lon="6.7121">
        <ele>1049</ele>
        <time>2019-06-11T15:51:10Z</time>
      </trkpt>
      <trkpt lat="46.20796" lon="6.71154">
        <ele>1033</ele>
        <time>2019-06-11T15:51:21Z</time>
      </trkpt>
      <trkpt lat="46.20785" lon="6.71139">
        <ele>1031</ele>
        <time>2019-06-11T15:51:24Z</time>
      </trkpt>
      <trkpt lat="46.20753" lon="6.71082">
        <ele>1026</ele>
        <time>2019-06-11T15:51:33Z</time>
      </trkpt>
      <trkpt lat="46.20747" lon="6.71077">
        <ele>1025</ele>
        <time>2019-06-11T15:51:34Z</time>
      </trkpt>
      <trkpt lat="46.20745" lon="6.71078">
        <ele>1024</ele>
        <time>2019-06-11T15:51:34Z</time>
      </trkpt>
      <trkpt lat="46.20744" lon="6.71082">
        <ele>1023</ele>
        <time>2019-06-11T15:51:35Z</time>
      </trkpt>
      <trkpt lat="46.2075" lon="6.71126">
        <ele>1019</ele>
        <time>2019-06-11T15:51:41Z</time>
      </trkpt>
      <trkpt lat="46.20748" lon="6.71149">
        <ele>1016</ele>
        <time>2019-06-11T15:51:43Z</time>
      </trkpt>
      <trkpt lat="46.20745" lon="6.71164">
        <ele>1013</ele>
        <time>2019-06-11T15:51:45Z</time>
      </trkpt>
      <trkpt lat="46.20732" lon="6.712">
        <ele>1013</ele>
        <time>2019-06-11T15:51:50Z</time>
      </trkpt>
      <trkpt lat="46.20723" lon="6.71214">
        <ele>1012</ele>
        <time>2019-06-11T15:51:53Z</time>
      </trkpt>
      <trkpt lat="46.20715" lon="6.7122">
        <ele>1011</ele>
        <time>2019-06-11T15:51:54Z</time>
      </trkpt>
      <trkpt lat="46.20705" lon="6.71219">
        <ele>1009</ele>
        <time>2019-06-11T15:51:56Z</time>
      </trkpt>
      <trkpt lat="46.20693" lon="6.7121">
        <ele>1006</ele>
        <time>2019-06-11T15:51:58Z</time>
      </trkpt>
      <trkpt lat="46.20675" lon="6.71164">
        <ele>999</ele>
        <time>2019-06-11T15:52:05Z</time>
      </trkpt>
      <trkpt lat="46.20671" lon="6.71149">
        <ele>997</ele>
        <time>2019-06-11T15:52:07Z</time>
      </trkpt>
      <trkpt lat="46.2066" lon="6.71079">
        <ele>994</ele>
        <time>2019-06-11T15:52:16Z</time>
      </trkpt>
      <trkpt lat="46.20648" lon="6.71029">
        <ele>997</ele>
        <time>2019-06-11T15:52:22Z</time>
      </trkpt>
      <trkpt lat="46.20641" lon="6.71011">
        <ele>996</ele>
        <time>2019-06-11T15:52:25Z</time>
      </trkpt>
      <trkpt lat="46.2057" lon="6.7086">
        <ele>993</ele>
        <time>2019-06-11T15:52:47Z</time>
      </trkpt>
      <trkpt lat="46.20546" lon="6.70802">
        <ele>991</ele>
        <time>2019-06-11T15:52:56Z</time>
      </trkpt>
      <trkpt lat="46.20537" lon="6.70724">
        <ele>991</ele>
        <time>2019-06-11T15:53:05Z</time>
      </trkpt>
      <trkpt lat="46.20529" lon="6.70595">
        <ele>992</ele>
        <time>2019-06-11T15:53:21Z</time>
      </trkpt>
      <trkpt lat="46.20531" lon="6.7057">
        <ele>992</ele>
        <time>2019-06-11T15:53:24Z</time>
      </trkpt>
      <trkpt lat="46.20536" lon="6.70526">
        <ele>992</ele>
        <time>2019-06-11T15:53:30Z</time>
      </trkpt>
      <trkpt lat="46.20536" lon="6.70505">
        <ele>991</ele>
        <time>2019-06-11T15:53:33Z</time>
      </trkpt>
      <trkpt lat="46.20531" lon="6.70482">
        <ele>991</ele>
        <time>2019-06-11T15:53:35Z</time>
      </trkpt>
      <trkpt lat="46.2049" lon="6.70383">
        <ele>987</ele>
        <time>2019-06-11T15:53:50Z</time>
      </trkpt>
      <trkpt lat="46.20484" lon="6.70356">
        <ele>987</ele>
        <time>2019-06-11T15:53:53Z</time>
      </trkpt>
      <trkpt lat="46.2046" lon="6.70188">
        <ele>989</ele>
        <time>2019-06-11T15:54:14Z</time>
      </trkpt>
      <trkpt lat="46.20452" lon="6.70168">
        <ele>987</ele>
        <time>2019-06-11T15:54:17Z</time>
      </trkpt>
      <trkpt lat="46.20445" lon="6.70156">
        <ele>985</ele>
        <time>2019-06-11T15:54:19Z</time>
      </trkpt>
      <trkpt lat="46.20433" lon="6.70142">
        <ele>981</ele>
        <time>2019-06-11T15:54:22Z</time>
      </trkpt>
      <trkpt lat="46.20418" lon="6.70116">
        <ele>977</ele>
        <time>2019-06-11T15:54:26Z</time>
      </trkpt>
      <trkpt lat="46.20409" lon="6.70094">
        <ele>976</ele>
        <time>2019-06-11T15:54:29Z</time>
      </trkpt>
      <trkpt lat="46.20389" lon="6.70037">
        <ele>972</ele>
        <time>2019-06-11T15:54:37Z</time>
      </trkpt>
      <trkpt lat="46.20378" lon="6.69945">
        <ele>973</ele>
        <time>2019-06-11T15:54:48Z</time>
      </trkpt>
      <trkpt lat="46.20357" lon="6.69817">
        <ele>972</ele>
        <time>2019-06-11T15:55:05Z</time>
      </trkpt>
      <trkpt lat="46.20353" lon="6.69771">
        <ele>973</ele>
        <time>2019-06-11T15:55:10Z</time>
      </trkpt>
      <trkpt lat="46.20349" lon="6.69756">
        <ele>972</ele>
        <time>2019-06-11T15:55:12Z</time>
      </trkpt>
      <trkpt lat="46.20316" lon="6.69658">
        <ele>961</ele>
        <time>2019-06-11T15:55:26Z</time>
      </trkpt>
      <trkpt lat="46.20306" lon="6.69636">
        <ele>959</ele>
        <time>2019-06-11T15:55:29Z</time>
      </trkpt>
      <trkpt lat="46.20276" lon="6.69592">
        <ele>952</ele>
        <time>2019-06-11T15:55:37Z</time>
      </trkpt>
      <trkpt lat="46.2026" lon="6.69572">
        <ele>949</ele>
        <time>2019-06-11T15:55:40Z</time>
      </trkpt>
      <trkpt lat="46.20255" lon="6.69563">
        <ele>948</ele>
        <time>2019-06-11T15:55:42Z</time>
      </trkpt>
      <trkpt lat="46.20243" lon="6.69529">
        <ele>944</ele>
        <time>2019-06-11T15:55:47Z</time>
      </trkpt>
      <trkpt lat="46.2024" lon="6.695">
        <ele>942</ele>
        <time>2019-06-11T15:55:50Z</time>
      </trkpt>
      <trkpt lat="46.20247" lon="6.69444">
        <ele>945</ele>
        <time>2019-06-11T15:55:57Z</time>
      </trkpt>
      <trkpt lat="46.20248" lon="6.6941">
        <ele>946</ele>
        <time>2019-06-11T15:56:01Z</time>
      </trkpt>
      <trkpt lat="46.20244" lon="6.69373">
        <ele>946</ele>
        <time>2019-06-11T15:56:06Z</time>
      </trkpt>
      <trkpt lat="46.20233" lon="6.69334">
        <ele>946</ele>
        <time>2019-06-11T15:56:11Z</time>
      </trkpt>
      <trkpt lat="46.20192" lon="6.69223">
        <ele>942</ele>
        <time>2019-06-11T15:56:27Z</time>
      </trkpt>
      <trkpt lat="46.20184" lon="6.6919">
        <ele>942</ele>
        <time>2019-06-11T15:56:31Z</time>
      </trkpt>
      <trkpt lat="46.20141" lon="6.68937">
        <ele>925</ele>
        <time>2019-06-11T15:57:03Z</time>
      </trkpt>
      <trkpt lat="46.20141" lon="6.68918">
        <ele>925</ele>
        <time>2019-06-11T15:57:05Z</time>
      </trkpt>
      <trkpt lat="46.20142" lon="6.689">
        <ele>924</ele>
        <time>2019-06-11T15:57:08Z</time>
      </trkpt>
      <trkpt lat="46.20156" lon="6.68788">
        <ele>919</ele>
        <time>2019-06-11T15:57:22Z</time>
      </trkpt>
      <trkpt lat="46.20155" lon="6.68598">
        <ele>904</ele>
        <time>2019-06-11T15:57:45Z</time>
      </trkpt>
      <trkpt lat="46.20157" lon="6.68577">
        <ele>903</ele>
        <time>2019-06-11T15:57:48Z</time>
      </trkpt>
      <trkpt lat="46.20164" lon="6.68533">
        <ele>902</ele>
        <time>2019-06-11T15:57:53Z</time>
      </trkpt>
      <trkpt lat="46.20166" lon="6.68506">
        <ele>900</ele>
        <time>2019-06-11T15:57:57Z</time>
      </trkpt>
      <trkpt lat="46.20164" lon="6.68488">
        <ele>899</ele>
        <time>2019-06-11T15:57:59Z</time>
      </trkpt>
      <trkpt lat="46.20159" lon="6.68462">
        <ele>898</ele>
        <time>2019-06-11T15:58:02Z</time>
      </trkpt>
      <trkpt lat="46.20152" lon="6.68444">
        <ele>897</ele>
        <time>2019-06-11T15:58:05Z</time>
      </trkpt>
      <trkpt lat="46.20138" lon="6.68428">
        <ele>896</ele>
        <time>2019-06-11T15:58:08Z</time>
      </trkpt>
      <trkpt lat="46.20184" lon="6.68359">
        <ele>893</ele>
        <time>2019-06-11T15:58:20Z</time>
      </trkpt>
      <trkpt lat="46.20196" lon="6.68335">
        <ele>892</ele>
        <time>2019-06-11T15:58:23Z</time>
      </trkpt>
      <trkpt lat="46.20198" lon="6.68335">
        <ele>892</ele>
        <time>2019-06-11T15:58:24Z</time>
      </trkpt>
      <trkpt lat="46.20202" lon="6.68332">
        <ele>893</ele>
        <time>2019-06-11T15:58:24Z</time>
      </trkpt>
      <trkpt lat="46.20203" lon="6.68328">
        <ele>893</ele>
        <time>2019-06-11T15:58:25Z</time>
      </trkpt>
      <trkpt lat="46.20202" lon="6.68322">
        <ele>892</ele>
        <time>2019-06-11T15:58:26Z</time>
      </trkpt>
      <trkpt lat="46.20197" lon="6.68318">
        <ele>892</ele>
        <time>2019-06-11T15:58:27Z</time>
      </trkpt>
      <trkpt lat="46.20192" lon="6.68324">
        <ele>892</ele>
        <time>2019-06-11T15:58:28Z</time>
      </trkpt>
      <trkpt lat="46.20188" lon="6.68321">
        <ele>891</ele>
        <time>2019-06-11T15:58:29Z</time>
      </trkpt>
      <trkpt lat="46.20138" lon="6.68303">
        <ele>891</ele>
        <time>2019-06-11T15:58:38Z</time>
      </trkpt>
      <trkpt lat="46.19618" lon="6.68124">
        <ele>922</ele>
        <time>2019-06-11T16:00:13Z</time>
      </trkpt>
      <trkpt lat="46.19606" lon="6.68116">
        <ele>921</ele>
        <time>2019-06-11T16:00:15Z</time>
      </trkpt>
      <trkpt lat="46.1959" lon="6.68101">
        <ele>919</ele>
        <time>2019-06-11T16:00:19Z</time>
      </trkpt>
      <trkpt lat="46.19549" lon="6.68038">
        <ele>924</ele>
        <time>2019-06-11T16:00:29Z</time>
      </trkpt>
      <trkpt lat="46.19541" lon="6.68033">
        <ele>925</ele>
        <time>2019-06-11T16:00:31Z</time>
      </trkpt>
      <trkpt lat="46.19528" lon="6.68035">
        <ele>928</ele>
        <time>2019-06-11T16:00:33Z</time>
      </trkpt>
      <trkpt lat="46.19519" lon="6.68045">
        <ele>930</ele>
        <time>2019-06-11T16:00:35Z</time>
      </trkpt>
      <trkpt lat="46.19515" lon="6.68057">
        <ele>932</ele>
        <time>2019-06-11T16:00:37Z</time>
      </trkpt>
      <trkpt lat="46.19515" lon="6.6807">
        <ele>933</ele>
        <time>2019-06-11T16:00:38Z</time>
      </trkpt>
      <trkpt lat="46.19521" lon="6.68088">
        <ele>934</ele>
        <time>2019-06-11T16:00:41Z</time>
      </trkpt>
      <trkpt lat="46.19528" lon="6.68101">
        <ele>934</ele>
        <time>2019-06-11T16:00:43Z</time>
      </trkpt>
      <trkpt lat="46.19538" lon="6.68114">
        <ele>933</ele>
        <time>2019-06-11T16:00:45Z</time>
      </trkpt>
      <trkpt lat="46.1967" lon="6.6822">
        <ele>934</ele>
        <time>2019-06-11T16:01:12Z</time>
      </trkpt>
      <trkpt lat="46.19679" lon="6.68236">
        <ele>935</ele>
        <time>2019-06-11T16:01:15Z</time>
      </trkpt>
      <trkpt lat="46.19682" lon="6.68248">
        <ele>936</ele>
        <time>2019-06-11T16:01:16Z</time>
      </trkpt>
      <trkpt lat="46.19682" lon="6.68263">
        <ele>937</ele>
        <time>2019-06-11T16:01:18Z</time>
      </trkpt>
      <trkpt lat="46.19681" lon="6.68279">
        <ele>938</ele>
        <time>2019-06-11T16:01:20Z</time>
      </trkpt>
      <trkpt lat="46.19674" lon="6.68299">
        <ele>939</ele>
        <time>2019-06-11T16:01:23Z</time>
      </trkpt>
      <trkpt lat="46.19663" lon="6.68317">
        <ele>940</ele>
        <time>2019-06-11T16:01:26Z</time>
      </trkpt>
      <trkpt lat="46.19569" lon="6.68424">
        <ele>946</ele>
        <time>2019-06-11T16:01:47Z</time>
      </trkpt>
      <trkpt lat="46.19555" lon="6.68441">
        <ele>947</ele>
        <time>2019-06-11T16:01:50Z</time>
      </trkpt>
      <trkpt lat="46.19541" lon="6.68464">
        <ele>948</ele>
        <time>2019-06-11T16:01:54Z</time>
      </trkpt>
      <trkpt lat="46.19529" lon="6.68494">
        <ele>949</ele>
        <time>2019-06-11T16:01:58Z</time>
      </trkpt>
      <trkpt lat="46.19484" lon="6.68637">
        <ele>950</ele>
        <time>2019-06-11T16:02:18Z</time>
      </trkpt>
      <trkpt lat="46.19481" lon="6.68659">
        <ele>949</ele>
        <time>2019-06-11T16:02:21Z</time>
      </trkpt>
      <trkpt lat="46.19482" lon="6.68667">
        <ele>949</ele>
        <time>2019-06-11T16:02:22Z</time>
      </trkpt>
      <trkpt lat="46.19471" lon="6.68671">
        <ele>950</ele>
        <time>2019-06-11T16:02:24Z</time>
      </trkpt>
      <trkpt lat="46.19466" lon="6.68679">
        <ele>951</ele>
        <time>2019-06-11T16:02:25Z</time>
      </trkpt>
      <trkpt lat="46.19465" lon="6.68691">
        <ele>951</ele>
        <time>2019-06-11T16:02:26Z</time>
      </trkpt>
      <trkpt lat="46.19469" lon="6.68704">
        <ele>950</ele>
        <time>2019-06-11T16:02:28Z</time>
      </trkpt>
      <trkpt lat="46.19465" lon="6.68708">
        <ele>951</ele>
        <time>2019-06-11T16:02:29Z</time>
      </trkpt>
      <trkpt lat="46.1946" lon="6.68722">
        <ele>951</ele>
        <time>2019-06-11T16:02:31Z</time>
      </trkpt>
      <trkpt lat="46.19455" lon="6.68754">
        <ele>952</ele>
        <time>2019-06-11T16:02:35Z</time>
      </trkpt>
      <trkpt lat="46.1945" lon="6.68772">
        <ele>952</ele>
        <time>2019-06-11T16:02:37Z</time>
      </trkpt>
      <trkpt lat="46.19441" lon="6.68793">
        <ele>953</ele>
        <time>2019-06-11T16:02:40Z</time>
      </trkpt>
      <trkpt lat="46.19421" lon="6.68816">
        <ele>954</ele>
        <time>2019-06-11T16:02:45Z</time>
      </trkpt>
      <trkpt lat="46.19349" lon="6.68874">
        <ele>958</ele>
        <time>2019-06-11T16:03:00Z</time>
      </trkpt>
      <trkpt lat="46.19263" lon="6.68927">
        <ele>963</ele>
        <time>2019-06-11T16:03:16Z</time>
      </trkpt>
      <trkpt lat="46.19254" lon="6.6893">
        <ele>963</ele>
        <time>2019-06-11T16:03:18Z</time>
      </trkpt>
      <trkpt lat="46.1925" lon="6.6893">
        <ele>964</ele>
        <time>2019-06-11T16:03:19Z</time>
      </trkpt>
      <trkpt lat="46.19241" lon="6.68924">
        <ele>966</ele>
        <time>2019-06-11T16:03:20Z</time>
      </trkpt>
      <trkpt lat="46.19238" lon="6.68919">
        <ele>967</ele>
        <time>2019-06-11T16:03:21Z</time>
      </trkpt>
      <trkpt lat="46.19237" lon="6.68913">
        <ele>968</ele>
        <time>2019-06-11T16:03:22Z</time>
      </trkpt>
      <trkpt lat="46.19236" lon="6.68899">
        <ele>970</ele>
        <time>2019-06-11T16:03:24Z</time>
      </trkpt>
      <trkpt lat="46.19237" lon="6.68893">
        <ele>970</ele>
        <time>2019-06-11T16:03:24Z</time>
      </trkpt>
      <trkpt lat="46.19244" lon="6.68883">
        <ele>971</ele>
        <time>2019-06-11T16:03:26Z</time>
      </trkpt>
      <trkpt lat="46.19296" lon="6.68846">
        <ele>968</ele>
        <time>2019-06-11T16:03:37Z</time>
      </trkpt>
      <trkpt lat="46.19362" lon="6.6878">
        <ele>965</ele>
        <time>2019-06-11T16:03:51Z</time>
      </trkpt>
      <trkpt lat="46.1937" lon="6.68767">
        <ele>965</ele>
        <time>2019-06-11T16:03:53Z</time>
      </trkpt>
      <trkpt lat="46.19375" lon="6.68755">
        <ele>965</ele>
        <time>2019-06-11T16:03:55Z</time>
      </trkpt>
      <trkpt lat="46.19381" lon="6.68727">
        <ele>964</ele>
        <time>2019-06-11T16:03:58Z</time>
      </trkpt>
      <trkpt lat="46.19383" lon="6.68707">
        <ele>964</ele>
        <time>2019-06-11T16:04:01Z</time>
      </trkpt>
      <trkpt lat="46.19383" lon="6.68683">
        <ele>964</ele>
        <time>2019-06-11T16:04:04Z</time>
      </trkpt>
      <trkpt lat="46.19369" lon="6.68616">
        <ele>970</ele>
        <time>2019-06-11T16:04:12Z</time>
      </trkpt>
      <trkpt lat="46.19358" lon="6.68573">
        <ele>973</ele>
        <time>2019-06-11T16:04:18Z</time>
      </trkpt>
      <trkpt lat="46.19351" lon="6.68558">
        <ele>973</ele>
        <time>2019-06-11T16:04:20Z</time>
      </trkpt>
      <trkpt lat="46.1934" lon="6.68544">
        <ele>974</ele>
        <time>2019-06-11T16:04:23Z</time>
      </trkpt>
      <trkpt lat="46.19321" lon="6.68534">
        <ele>976</ele>
        <time>2019-06-11T16:04:26Z</time>
      </trkpt>
      <trkpt lat="46.19312" lon="6.68533">
        <ele>977</ele>
        <time>2019-06-11T16:04:28Z</time>
      </trkpt>
      <trkpt lat="46.19302" lon="6.68534">
        <ele>977</ele>
        <time>2019-06-11T16:04:30Z</time>
      </trkpt>
      <trkpt lat="46.19287" lon="6.68541">
        <ele>979</ele>
        <time>2019-06-11T16:04:33Z</time>
      </trkpt>
      <trkpt lat="46.19278" lon="6.68549">
        <ele>980</ele>
        <time>2019-06-11T16:04:35Z</time>
      </trkpt>
      <trkpt lat="46.19271" lon="6.68559">
        <ele>981</ele>
        <time>2019-06-11T16:04:36Z</time>
      </trkpt>
      <trkpt lat="46.19254" lon="6.68596">
        <ele>983</ele>
        <time>2019-06-11T16:04:42Z</time>
      </trkpt>
      <trkpt lat="46.1925" lon="6.68611">
        <ele>983</ele>
        <time>2019-06-11T16:04:44Z</time>
      </trkpt>
      <trkpt lat="46.19246" lon="6.68636">
        <ele>984</ele>
        <time>2019-06-11T16:04:47Z</time>
      </trkpt>
      <trkpt lat="46.1924" lon="6.68714">
        <ele>984</ele>
        <time>2019-06-11T16:04:57Z</time>
      </trkpt>
      <trkpt lat="46.19233" lon="6.68738">
        <ele>985</ele>
        <time>2019-06-11T16:05:00Z</time>
      </trkpt>
      <trkpt lat="46.19217" lon="6.68773">
        <ele>987</ele>
        <time>2019-06-11T16:05:05Z</time>
      </trkpt>
      <trkpt lat="46.19199" lon="6.68805">
        <ele>988</ele>
        <time>2019-06-11T16:05:10Z</time>
      </trkpt>
      <trkpt lat="46.19191" lon="6.68817">
        <ele>989</ele>
        <time>2019-06-11T16:05:12Z</time>
      </trkpt>
      <trkpt lat="46.19174" lon="6.68832">
        <ele>992</ele>
        <time>2019-06-11T16:05:16Z</time>
      </trkpt>
      <trkpt lat="46.19159" lon="6.68851">
        <ele>993</ele>
        <time>2019-06-11T16:05:19Z</time>
      </trkpt>
      <trkpt lat="46.19126" lon="6.68908">
        <ele>990</ele>
        <time>2019-06-11T16:05:28Z</time>
      </trkpt>
      <trkpt lat="46.19116" lon="6.68917">
        <ele>990</ele>
        <time>2019-06-11T16:05:30Z</time>
      </trkpt>
      <trkpt lat="46.19103" lon="6.68924">
        <ele>992</ele>
        <time>2019-06-11T16:05:33Z</time>
      </trkpt>
      <trkpt lat="46.19083" lon="6.68926">
        <ele>996</ele>
        <time>2019-06-11T16:05:36Z</time>
      </trkpt>
      <trkpt lat="46.19058" lon="6.68921">
        <ele>1007</ele>
        <time>2019-06-11T16:05:41Z</time>
      </trkpt>
      <trkpt lat="46.19047" lon="6.68921">
        <ele>1012</ele>
        <time>2019-06-11T16:05:43Z</time>
      </trkpt>
      <trkpt lat="46.19037" lon="6.68927">
        <ele>1014</ele>
        <time>2019-06-11T16:05:45Z</time>
      </trkpt>
      <trkpt lat="46.18911" lon="6.69055">
        <ele>1020</ele>
        <time>2019-06-11T16:06:12Z</time>
      </trkpt>
      <trkpt lat="46.18903" lon="6.69068">
        <ele>1018</ele>
        <time>2019-06-11T16:06:14Z</time>
      </trkpt>
      <trkpt lat="46.18897" lon="6.69084">
        <ele>1013</ele>
        <time>2019-06-11T16:06:17Z</time>
      </trkpt>
      <trkpt lat="46.1889" lon="6.69107">
        <ele>1008</ele>
        <time>2019-06-11T16:06:20Z</time>
      </trkpt>
      <trkpt lat="46.18884" lon="6.6912">
        <ele>1006</ele>
        <time>2019-06-11T16:06:22Z</time>
      </trkpt>
      <trkpt lat="46.1888" lon="6.69126">
        <ele>1005</ele>
        <time>2019-06-11T16:06:23Z</time>
      </trkpt>
      <trkpt lat="46.1887" lon="6.69133">
        <ele>1006</ele>
        <time>2019-06-11T16:06:25Z</time>
      </trkpt>
      <trkpt lat="46.18859" lon="6.69137">
        <ele>1007</ele>
        <time>2019-06-11T16:06:27Z</time>
      </trkpt>
      <trkpt lat="46.18849" lon="6.69136">
        <ele>1010</ele>
        <time>2019-06-11T16:06:28Z</time>
      </trkpt>
      <trkpt lat="46.18836" lon="6.69129">
        <ele>1015</ele>
        <time>2019-06-11T16:06:31Z</time>
      </trkpt>
      <trkpt lat="46.18837" lon="6.69123">
        <ele>1016</ele>
        <time>2019-06-11T16:06:32Z</time>
      </trkpt>
      <trkpt lat="46.18835" lon="6.69112">
        <ele>1020</ele>
        <time>2019-06-11T16:06:33Z</time>
      </trkpt>
      <trkpt lat="46.18829" lon="6.69104">
        <ele>1024</ele>
        <time>2019-06-11T16:06:35Z</time>
      </trkpt>
      <trkpt lat="46.18833" lon="6.69086">
        <ele>1027</ele>
        <time>2019-06-11T16:06:37Z</time>
      </trkpt>
      <trkpt lat="46.18838" lon="6.69072">
        <ele>1031</ele>
        <time>2019-06-11T16:06:39Z</time>
      </trkpt>
      <trkpt lat="46.18843" lon="6.69066">
        <ele>1032</ele>
        <time>2019-06-11T16:06:40Z</time>
      </trkpt>
      <trkpt lat="46.189" lon="6.69025">
        <ele>1034</ele>
        <time>2019-06-11T16:06:51Z</time>
      </trkpt>
      <trkpt lat="46.18909" lon="6.69016">
        <ele>1035</ele>
        <time>2019-06-11T16:06:53Z</time>
      </trkpt>
      <trkpt lat="46.18941" lon="6.68977">
        <ele>1037</ele>
        <time>2019-06-11T16:07:01Z</time>
      </trkpt>
      <trkpt lat="46.19024" lon="6.68845">
        <ele>1048</ele>
        <time>2019-06-11T16:07:23Z</time>
      </trkpt>
      <trkpt lat="46.19081" lon="6.68748">
        <ele>1043</ele>
        <time>2019-06-11T16:07:38Z</time>
      </trkpt>
      <trkpt lat="46.19085" lon="6.68733">
        <ele>1042</ele>
        <time>2019-06-11T16:07:40Z</time>
      </trkpt>
      <trkpt lat="46.19086" lon="6.68706">
        <ele>1043</ele>
        <time>2019-06-11T16:07:44Z</time>
      </trkpt>
      <trkpt lat="46.19077" lon="6.68632">
        <ele>1047</ele>
        <time>2019-06-11T16:07:53Z</time>
      </trkpt>
      <trkpt lat="46.19071" lon="6.68604">
        <ele>1047</ele>
        <time>2019-06-11T16:07:56Z</time>
      </trkpt>
      <trkpt lat="46.19064" lon="6.68585">
        <ele>1048</ele>
        <time>2019-06-11T16:07:59Z</time>
      </trkpt>
      <trkpt lat="46.19055" lon="6.68569">
        <ele>1048</ele>
        <time>2019-06-11T16:08:02Z</time>
      </trkpt>
      <trkpt lat="46.19039" lon="6.68549">
        <ele>1050</ele>
        <time>2019-06-11T16:08:05Z</time>
      </trkpt>
      <trkpt lat="46.18996" lon="6.6851">
        <ele>1057</ele>
        <time>2019-06-11T16:08:14Z</time>
      </trkpt>
      <trkpt lat="46.18833" lon="6.68382">
        <ele>1071</ele>
        <time>2019-06-11T16:08:47Z</time>
      </trkpt>
      <trkpt lat="46.18748" lon="6.6832">
        <ele>1069</ele>
        <time>2019-06-11T16:09:04Z</time>
      </trkpt>
      <trkpt lat="46.18666" lon="6.68269">
        <ele>1069</ele>
        <time>2019-06-11T16:09:20Z</time>
      </trkpt>
      <trkpt lat="46.1864" lon="6.68258">
        <ele>1068</ele>
        <time>2019-06-11T16:09:25Z</time>
      </trkpt>
      <trkpt lat="46.18562" lon="6.68248">
        <ele>1078</ele>
        <time>2019-06-11T16:09:39Z</time>
      </trkpt>
      <trkpt lat="46.18549" lon="6.68245">
        <ele>1081</ele>
        <time>2019-06-11T16:09:41Z</time>
      </trkpt>
      <trkpt lat="46.18527" lon="6.68235">
        <ele>1084</ele>
        <time>2019-06-11T16:09:46Z</time>
      </trkpt>
      <trkpt lat="46.18405" lon="6.68162">
        <ele>1090</ele>
        <time>2019-06-11T16:10:09Z</time>
      </trkpt>
      <trkpt lat="46.18355" lon="6.6814">
        <ele>1084</ele>
        <time>2019-06-11T16:10:18Z</time>
      </trkpt>
      <trkpt lat="46.18333" lon="6.68139">
        <ele>1085</ele>
        <time>2019-06-11T16:10:22Z</time>
      </trkpt>
      <trkpt lat="46.18294" lon="6.68146">
        <ele>1083</ele>
        <time>2019-06-11T16:10:29Z</time>
      </trkpt>
      <trkpt lat="46.18275" lon="6.68156">
        <ele>1083</ele>
        <time>2019-06-11T16:10:33Z</time>
      </trkpt>
      <trkpt lat="46.18232" lon="6.68192">
        <ele>1085</ele>
        <time>2019-06-11T16:10:42Z</time>
      </trkpt>
      <trkpt lat="46.1822" lon="6.68206">
        <ele>1087</ele>
        <time>2019-06-11T16:10:44Z</time>
      </trkpt>
      <trkpt lat="46.18201" lon="6.6823">
        <ele>1089</ele>
        <time>2019-06-11T16:10:49Z</time>
      </trkpt>
      <trkpt lat="46.18192" lon="6.68238">
        <ele>1090</ele>
        <time>2019-06-11T16:10:51Z</time>
      </trkpt>
      <trkpt lat="46.18187" lon="6.68241">
        <ele>1090</ele>
        <time>2019-06-11T16:10:52Z</time>
      </trkpt>
      <trkpt lat="46.18153" lon="6.68252">
        <ele>1091</ele>
        <time>2019-06-11T16:10:58Z</time>
      </trkpt>
      <trkpt lat="46.18142" lon="6.68259">
        <ele>1092</ele>
        <time>2019-06-11T16:11:00Z</time>
      </trkpt>
      <trkpt lat="46.18111" lon="6.68287">
        <ele>1096</ele>
        <time>2019-06-11T16:11:07Z</time>
      </trkpt>
      <trkpt lat="46.181" lon="6.68291">
        <ele>1096</ele>
        <time>2019-06-11T16:11:09Z</time>
      </trkpt>
      <trkpt lat="46.18065" lon="6.68294">
        <ele>1096</ele>
        <time>2019-06-11T16:11:15Z</time>
      </trkpt>
      <trkpt lat="46.18048" lon="6.68297">
        <ele>1096</ele>
        <time>2019-06-11T16:11:18Z</time>
      </trkpt>
      <trkpt lat="46.18037" lon="6.68302">
        <ele>1097</ele>
        <time>2019-06-11T16:11:20Z</time>
      </trkpt>
      <trkpt lat="46.1801" lon="6.68323">
        <ele>1099</ele>
        <time>2019-06-11T16:11:25Z</time>
      </trkpt>
      <trkpt lat="46.17999" lon="6.68328">
        <ele>1099</ele>
        <time>2019-06-11T16:11:27Z</time>
      </trkpt>
      <trkpt lat="46.17946" lon="6.68337">
        <ele>1104</ele>
        <time>2019-06-11T16:11:37Z</time>
      </trkpt>
      <trkpt lat="46.17935" lon="6.68336">
        <ele>1105</ele>
        <time>2019-06-11T16:11:39Z</time>
      </trkpt>
      <trkpt lat="46.17887" lon="6.68318">
        <ele>1108</ele>
        <time>2019-06-11T16:11:48Z</time>
      </trkpt>
      <trkpt lat="46.1788" lon="6.68317">
        <ele>1109</ele>
        <time>2019-06-11T16:11:49Z</time>
      </trkpt>
      <trkpt lat="46.17839" lon="6.68321">
        <ele>1117</ele>
        <time>2019-06-11T16:11:56Z</time>
      </trkpt>
      <trkpt lat="46.17806" lon="6.68316">
        <ele>1126</ele>
        <time>2019-06-11T16:12:02Z</time>
      </trkpt>
      <trkpt lat="46.17788" lon="6.68307">
        <ele>1130</ele>
        <time>2019-06-11T16:12:06Z</time>
      </trkpt>
      <trkpt lat="46.17775" lon="6.68299">
        <ele>1132</ele>
        <time>2019-06-11T16:12:08Z</time>
      </trkpt>
      <trkpt lat="46.17726" lon="6.68253">
        <ele>1132</ele>
        <time>2019-06-11T16:12:18Z</time>
      </trkpt>
      <trkpt lat="46.17694" lon="6.68211">
        <ele>1127</ele>
        <time>2019-06-11T16:12:26Z</time>
      </trkpt>
      <trkpt lat="46.17664" lon="6.68162">
        <ele>1117</ele>
        <time>2019-06-11T16:12:34Z</time>
      </trkpt>
      <trkpt lat="46.17653" lon="6.68147">
        <ele>1115</ele>
        <time>2019-06-11T16:12:37Z</time>
      </trkpt>
      <trkpt lat="46.17642" lon="6.68136">
        <ele>1113</ele>
        <time>2019-06-11T16:12:39Z</time>
      </trkpt>
      <trkpt lat="46.1763" lon="6.68127">
        <ele>1113</ele>
        <time>2019-06-11T16:12:42Z</time>
      </trkpt>
      <trkpt lat="46.17618" lon="6.68123">
        <ele>1113</ele>
        <time>2019-06-11T16:12:44Z</time>
      </trkpt>
      <trkpt lat="46.17604" lon="6.68124">
        <ele>1114</ele>
        <time>2019-06-11T16:12:46Z</time>
      </trkpt>
      <trkpt lat="46.17597" lon="6.68126">
        <ele>1115</ele>
        <time>2019-06-11T16:12:48Z</time>
      </trkpt>
      <trkpt lat="46.17574" lon="6.68142">
        <ele>1120</ele>
        <time>2019-06-11T16:12:52Z</time>
      </trkpt>
      <trkpt lat="46.17556" lon="6.68151">
        <ele>1124</ele>
        <time>2019-06-11T16:12:56Z</time>
      </trkpt>
      <trkpt lat="46.1755" lon="6.68153">
        <ele>1126</ele>
        <time>2019-06-11T16:12:57Z</time>
      </trkpt>
      <trkpt lat="46.17537" lon="6.68151">
        <ele>1127</ele>
        <time>2019-06-11T16:12:59Z</time>
      </trkpt>
      <trkpt lat="46.17435" lon="6.68116">
        <ele>1137</ele>
        <time>2019-06-11T16:13:18Z</time>
      </trkpt>
      <trkpt lat="46.17425" lon="6.68111">
        <ele>1137</ele>
        <time>2019-06-11T16:13:20Z</time>
      </trkpt>
      <trkpt lat="46.17388" lon="6.68081">
        <ele>1130</ele>
        <time>2019-06-11T16:13:27Z</time>
      </trkpt>
      <trkpt lat="46.17375" lon="6.68073">
        <ele>1130</ele>
        <time>2019-06-11T16:13:30Z</time>
      </trkpt>
      <trkpt lat="46.17357" lon="6.68068">
        <ele>1131</ele>
        <time>2019-06-11T16:13:33Z</time>
      </trkpt>
      <trkpt lat="46.17283" lon="6.68061">
        <ele>1142</ele>
        <time>2019-06-11T16:13:46Z</time>
      </trkpt>
      <trkpt lat="46.17249" lon="6.68049">
        <ele>1144</ele>
        <time>2019-06-11T16:13:52Z</time>
      </trkpt>
      <trkpt lat="46.17222" lon="6.68031">
        <ele>1146</ele>
        <time>2019-06-11T16:13:58Z</time>
      </trkpt>
      <trkpt lat="46.17209" lon="6.68017">
        <ele>1145</ele>
        <time>2019-06-11T16:14:00Z</time>
      </trkpt>
      <trkpt lat="46.17127" lon="6.67921">
        <ele>1139</ele>
        <time>2019-06-11T16:14:19Z</time>
      </trkpt>
      <trkpt lat="46.17108" lon="6.67902">
        <ele>1139</ele>
        <time>2019-06-11T16:14:23Z</time>
      </trkpt>
      <trkpt lat="46.17078" lon="6.67877">
        <ele>1137</ele>
        <time>2019-06-11T16:14:30Z</time>
      </trkpt>
      <trkpt lat="46.17056" lon="6.67861">
        <ele>1136</ele>
        <time>2019-06-11T16:14:34Z</time>
      </trkpt>
      <trkpt lat="46.17038" lon="6.67851">
        <ele>1136</ele>
        <time>2019-06-11T16:14:37Z</time>
      </trkpt>
      <trkpt lat="46.17015" lon="6.67842">
        <ele>1138</ele>
        <time>2019-06-11T16:14:42Z</time>
      </trkpt>
      <trkpt lat="46.16969" lon="6.67835">
        <ele>1144</ele>
        <time>2019-06-11T16:14:50Z</time>
      </trkpt>
      <trkpt lat="46.16948" lon="6.67828">
        <ele>1146</ele>
        <time>2019-06-11T16:14:54Z</time>
      </trkpt>
      <trkpt lat="46.16808" lon="6.6774">
        <ele>1148</ele>
        <time>2019-06-11T16:15:21Z</time>
      </trkpt>
      <trkpt lat="46.16737" lon="6.67701">
        <ele>1154</ele>
        <time>2019-06-11T16:15:34Z</time>
      </trkpt>
      <trkpt lat="46.16673" lon="6.67652">
        <ele>1146</ele>
        <time>2019-06-11T16:15:47Z</time>
      </trkpt>
      <trkpt lat="46.16627" lon="6.67633">
        <ele>1154</ele>
        <time>2019-06-11T16:15:56Z</time>
      </trkpt>
      <trkpt lat="46.16612" lon="6.67622">
        <ele>1154</ele>
        <time>2019-06-11T16:15:59Z</time>
      </trkpt>
      <trkpt lat="46.16597" lon="6.67609">
        <ele>1153</ele>
        <time>2019-06-11T16:16:02Z</time>
      </trkpt>
      <trkpt lat="46.16565" lon="6.67571">
        <ele>1148</ele>
        <time>2019-06-11T16:16:09Z</time>
      </trkpt>
      <trkpt lat="46.16539" lon="6.67549">
        <ele>1150</ele>
        <time>2019-06-11T16:16:15Z</time>
      </trkpt>
      <trkpt lat="46.16511" lon="6.67532">
        <ele>1151</ele>
        <time>2019-06-11T16:16:20Z</time>
      </trkpt>
      <trkpt lat="46.16454" lon="6.67501">
        <ele>1151</ele>
        <time>2019-06-11T16:16:31Z</time>
      </trkpt>
      <trkpt lat="46.16397" lon="6.67463">
        <ele>1156</ele>
        <time>2019-06-11T16:16:42Z</time>
      </trkpt>
      <trkpt lat="46.16365" lon="6.67436">
        <ele>1159</ele>
        <time>2019-06-11T16:16:49Z</time>
      </trkpt>
      <trkpt lat="46.16264" lon="6.67342">
        <ele>1158</ele>
        <time>2019-06-11T16:17:10Z</time>
      </trkpt>
      <trkpt lat="46.16252" lon="6.67337">
        <ele>1158</ele>
        <time>2019-06-11T16:17:12Z</time>
      </trkpt>
      <trkpt lat="46.16239" lon="6.67334">
        <ele>1158</ele>
        <time>2019-06-11T16:17:15Z</time>
      </trkpt>
      <trkpt lat="46.16198" lon="6.6733">
        <ele>1161</ele>
        <time>2019-06-11T16:17:22Z</time>
      </trkpt>
      <trkpt lat="46.16179" lon="6.67322">
        <ele>1162</ele>
        <time>2019-06-11T16:17:25Z</time>
      </trkpt>
      <trkpt lat="46.16165" lon="6.67311">
        <ele>1163</ele>
        <time>2019-06-11T16:17:28Z</time>
      </trkpt>
      <trkpt lat="46.16133" lon="6.67276">
        <ele>1166</ele>
        <time>2019-06-11T16:17:35Z</time>
      </trkpt>
      <trkpt lat="46.16104" lon="6.67227">
        <ele>1167</ele>
        <time>2019-06-11T16:17:43Z</time>
      </trkpt>
      <trkpt lat="46.16099" lon="6.67211">
        <ele>1166</ele>
        <time>2019-06-11T16:17:45Z</time>
      </trkpt>
      <trkpt lat="46.16098" lon="6.67204">
        <ele>1165</ele>
        <time>2019-06-11T16:17:46Z</time>
      </trkpt>
      <trkpt lat="46.16102" lon="6.67173">
        <ele>1163</ele>
        <time>2019-06-11T16:17:50Z</time>
      </trkpt>
      <trkpt lat="46.161" lon="6.67146">
        <ele>1162</ele>
        <time>2019-06-11T16:17:54Z</time>
      </trkpt>
      <trkpt lat="46.1606" lon="6.66992">
        <ele>1165</ele>
        <time>2019-06-11T16:18:14Z</time>
      </trkpt>
      <trkpt lat="46.16036" lon="6.66913">
        <ele>1168</ele>
        <time>2019-06-11T16:18:24Z</time>
      </trkpt>
      <trkpt lat="46.16038" lon="6.66906">
        <ele>1169</ele>
        <time>2019-06-11T16:18:25Z</time>
      </trkpt>
      <trkpt lat="46.16036" lon="6.66899">
        <ele>1169</ele>
        <time>2019-06-11T16:18:26Z</time>
      </trkpt>
      <trkpt lat="46.16029" lon="6.66894">
        <ele>1169</ele>
        <time>2019-06-11T16:18:28Z</time>
      </trkpt>
      <trkpt lat="46.16024" lon="6.66897">
        <ele>1168</ele>
        <time>2019-06-11T16:18:29Z</time>
      </trkpt>
      <trkpt lat="46.15981" lon="6.66867">
        <ele>1167</ele>
        <time>2019-06-11T16:18:37Z</time>
      </trkpt>
      <trkpt lat="46.15962" lon="6.66849">
        <ele>1168</ele>
        <time>2019-06-11T16:18:41Z</time>
      </trkpt>
      <trkpt lat="46.15904" lon="6.66781">
        <ele>1166</ele>
        <time>2019-06-11T16:18:55Z</time>
      </trkpt>
      <trkpt lat="46.1586" lon="6.66746">
        <ele>1166</ele>
        <time>2019-06-11T16:19:03Z</time>
      </trkpt>
      <trkpt lat="46.15815" lon="6.66712">
        <ele>1165</ele>
        <time>2019-06-11T16:19:13Z</time>
      </trkpt>
      <trkpt lat="46.158" lon="6.66696">
        <ele>1165</ele>
        <time>2019-06-11T16:19:16Z</time>
      </trkpt>
      <trkpt lat="46.1575" lon="6.66609">
        <ele>1165</ele>
        <time>2019-06-11T16:19:30Z</time>
      </trkpt>
      <trkpt lat="46.1567" lon="6.6648">
        <ele>1163</ele>
        <time>2019-06-11T16:19:51Z</time>
      </trkpt>
      <trkpt lat="46.15557" lon="6.66304">
        <ele>1166</ele>
        <time>2019-06-11T16:20:21Z</time>
      </trkpt>
      <trkpt lat="46.15503" lon="6.66215">
        <ele>1159</ele>
        <time>2019-06-11T16:20:35Z</time>
      </trkpt>
      <trkpt lat="46.15494" lon="6.6621">
        <ele>1157</ele>
        <time>2019-06-11T16:20:37Z</time>
      </trkpt>
      <trkpt lat="46.15483" lon="6.66208">
        <ele>1157</ele>
        <time>2019-06-11T16:20:39Z</time>
      </trkpt>
      <trkpt lat="46.15478" lon="6.66203">
        <ele>1156</ele>
        <time>2019-06-11T16:20:40Z</time>
      </trkpt>
      <trkpt lat="46.15473" lon="6.66204">
        <ele>1156</ele>
        <time>2019-06-11T16:20:41Z</time>
      </trkpt>
      <trkpt lat="46.15468" lon="6.66201">
        <ele>1156</ele>
        <time>2019-06-11T16:20:42Z</time>
      </trkpt>
      <trkpt lat="46.15446" lon="6.66182">
        <ele>1154</ele>
        <time>2019-06-11T16:20:46Z</time>
      </trkpt>
      <trkpt lat="46.15412" lon="6.6616">
        <ele>1150</ele>
        <time>2019-06-11T16:20:53Z</time>
      </trkpt>
      <trkpt lat="46.15389" lon="6.66141">
        <ele>1150</ele>
        <time>2019-06-11T16:20:58Z</time>
      </trkpt>
      <trkpt lat="46.15375" lon="6.66119">
        <ele>1149</ele>
        <time>2019-06-11T16:21:01Z</time>
      </trkpt>
      <trkpt lat="46.15359" lon="6.66088">
        <ele>1148</ele>
        <time>2019-06-11T16:21:06Z</time>
      </trkpt>
      <trkpt lat="46.15329" lon="6.66036">
        <ele>1147</ele>
        <time>2019-06-11T16:21:15Z</time>
      </trkpt>
      <trkpt lat="46.15308" lon="6.66008">
        <ele>1146</ele>
        <time>2019-06-11T16:21:20Z</time>
      </trkpt>
      <trkpt lat="46.15295" lon="6.65997">
        <ele>1146</ele>
        <time>2019-06-11T16:21:22Z</time>
      </trkpt>
      <trkpt lat="46.1528" lon="6.6599">
        <ele>1145</ele>
        <time>2019-06-11T16:21:25Z</time>
      </trkpt>
      <trkpt lat="46.15245" lon="6.65975">
        <ele>1142</ele>
        <time>2019-06-11T16:21:32Z</time>
      </trkpt>
      <trkpt lat="46.15233" lon="6.65966">
        <ele>1140</ele>
        <time>2019-06-11T16:21:34Z</time>
      </trkpt>
      <trkpt lat="46.15223" lon="6.65953">
        <ele>1139</ele>
        <time>2019-06-11T16:21:36Z</time>
      </trkpt>
      <trkpt lat="46.15177" lon="6.65844">
        <ele>1134</ele>
        <time>2019-06-11T16:21:52Z</time>
      </trkpt>
      <trkpt lat="46.15165" lon="6.65821">
        <ele>1133</ele>
        <time>2019-06-11T16:21:56Z</time>
      </trkpt>
      <trkpt lat="46.15154" lon="6.6581">
        <ele>1133</ele>
        <time>2019-06-11T16:21:58Z</time>
      </trkpt>
      <trkpt lat="46.15087" lon="6.65754">
        <ele>1126</ele>
        <time>2019-06-11T16:22:12Z</time>
      </trkpt>
      <trkpt lat="46.1505" lon="6.65714">
        <ele>1125</ele>
        <time>2019-06-11T16:22:20Z</time>
      </trkpt>
      <trkpt lat="46.15024" lon="6.65678">
        <ele>1125</ele>
        <time>2019-06-11T16:22:27Z</time>
      </trkpt>
      <trkpt lat="46.14968" lon="6.6562">
        <ele>1122</ele>
        <time>2019-06-11T16:22:39Z</time>
      </trkpt>
      <trkpt lat="46.14948" lon="6.65607">
        <ele>1120</ele>
        <time>2019-06-11T16:22:43Z</time>
      </trkpt>
      <trkpt lat="46.14938" lon="6.65604">
        <ele>1119</ele>
        <time>2019-06-11T16:22:45Z</time>
      </trkpt>
      <trkpt lat="46.14934" lon="6.65605">
        <ele>1118</ele>
        <time>2019-06-11T16:22:45Z</time>
      </trkpt>
      <trkpt lat="46.14928" lon="6.65609">
        <ele>1117</ele>
        <time>2019-06-11T16:22:46Z</time>
      </trkpt>
      <trkpt lat="46.14924" lon="6.65603">
        <ele>1117</ele>
        <time>2019-06-11T16:22:47Z</time>
      </trkpt>
      <trkpt lat="46.14917" lon="6.65599">
        <ele>1116</ele>
        <time>2019-06-11T16:22:49Z</time>
      </trkpt>
      <trkpt lat="46.14911" lon="6.65602">
        <ele>1115</ele>
        <time>2019-06-11T16:22:50Z</time>
      </trkpt>
      <trkpt lat="46.14906" lon="6.65611">
        <ele>1114</ele>
        <time>2019-06-11T16:22:51Z</time>
      </trkpt>
      <trkpt lat="46.14905" lon="6.65615">
        <ele>1114</ele>
        <time>2019-06-11T16:22:52Z</time>
      </trkpt>
      <trkpt lat="46.14894" lon="6.65612">
        <ele>1114</ele>
        <time>2019-06-11T16:22:54Z</time>
      </trkpt>
      <trkpt lat="46.14874" lon="6.65611">
        <ele>1112</ele>
        <time>2019-06-11T16:22:57Z</time>
      </trkpt>
      <trkpt lat="46.14838" lon="6.65617">
        <ele>1110</ele>
        <time>2019-06-11T16:23:04Z</time>
      </trkpt>
      <trkpt lat="46.14819" lon="6.65617">
        <ele>1109</ele>
        <time>2019-06-11T16:23:07Z</time>
      </trkpt>
      <trkpt lat="46.14801" lon="6.65612">
        <ele>1109</ele>
        <time>2019-06-11T16:23:11Z</time>
      </trkpt>
      <trkpt lat="46.1479" lon="6.65604">
        <ele>1108</ele>
        <time>2019-06-11T16:23:13Z</time>
      </trkpt>
      <trkpt lat="46.14776" lon="6.65584">
        <ele>1107</ele>
        <time>2019-06-11T16:23:16Z</time>
      </trkpt>
      <trkpt lat="46.14688" lon="6.65441">
        <ele>1104</ele>
        <time>2019-06-11T16:23:40Z</time>
      </trkpt>
      <trkpt lat="46.1465" lon="6.65353">
        <ele>1099</ele>
        <time>2019-06-11T16:23:53Z</time>
      </trkpt>
      <trkpt lat="46.14621" lon="6.65308">
        <ele>1098</ele>
        <time>2019-06-11T16:24:00Z</time>
      </trkpt>
      <trkpt lat="46.14571" lon="6.65239">
        <ele>1095</ele>
        <time>2019-06-11T16:24:12Z</time>
      </trkpt>
      <trkpt lat="46.14561" lon="6.65222">
        <ele>1094</ele>
        <time>2019-06-11T16:24:15Z</time>
      </trkpt>
      <trkpt lat="46.14526" lon="6.65147">
        <ele>1090</ele>
        <time>2019-06-11T16:24:26Z</time>
      </trkpt>
      <trkpt lat="46.14517" lon="6.6512">
        <ele>1089</ele>
        <time>2019-06-11T16:24:30Z</time>
      </trkpt>
      <trkpt lat="46.14488" lon="6.64986">
        <ele>1089</ele>
        <time>2019-06-11T16:24:47Z</time>
      </trkpt>
      <trkpt lat="46.14481" lon="6.64967">
        <ele>1090</ele>
        <time>2019-06-11T16:24:50Z</time>
      </trkpt>
      <trkpt lat="46.14455" lon="6.64931">
        <ele>1088</ele>
        <time>2019-06-11T16:24:56Z</time>
      </trkpt>
      <trkpt lat="46.14448" lon="6.64919">
        <ele>1088</ele>
        <time>2019-06-11T16:24:58Z</time>
      </trkpt>
      <trkpt lat="46.1444" lon="6.649">
        <ele>1087</ele>
        <time>2019-06-11T16:25:01Z</time>
      </trkpt>
      <trkpt lat="46.1442" lon="6.64825">
        <ele>1085</ele>
        <time>2019-06-11T16:25:11Z</time>
      </trkpt>
      <trkpt lat="46.14376" lon="6.64704">
        <ele>1095</ele>
        <time>2019-06-11T16:25:28Z</time>
      </trkpt>
      <trkpt lat="46.14369" lon="6.64671">
        <ele>1095</ele>
        <time>2019-06-11T16:25:32Z</time>
      </trkpt>
      <trkpt lat="46.14369" lon="6.64635">
        <ele>1096</ele>
        <time>2019-06-11T16:25:37Z</time>
      </trkpt>
      <trkpt lat="46.14381" lon="6.64573">
        <ele>1101</ele>
        <time>2019-06-11T16:25:44Z</time>
      </trkpt>
      <trkpt lat="46.1438" lon="6.64556">
        <ele>1101</ele>
        <time>2019-06-11T16:25:47Z</time>
      </trkpt>
      <trkpt lat="46.14376" lon="6.6454">
        <ele>1102</ele>
        <time>2019-06-11T16:25:49Z</time>
      </trkpt>
      <trkpt lat="46.14369" lon="6.64525">
        <ele>1101</ele>
        <time>2019-06-11T16:25:51Z</time>
      </trkpt>
      <trkpt lat="46.14351" lon="6.645">
        <ele>1096</ele>
        <time>2019-06-11T16:25:55Z</time>
      </trkpt>
      <trkpt lat="46.14344" lon="6.64486">
        <ele>1095</ele>
        <time>2019-06-11T16:25:57Z</time>
      </trkpt>
      <trkpt lat="46.14334" lon="6.64455">
        <ele>1094</ele>
        <time>2019-06-11T16:26:02Z</time>
      </trkpt>
      <trkpt lat="46.14331" lon="6.64449">
        <ele>1094</ele>
        <time>2019-06-11T16:26:03Z</time>
      </trkpt>
      <trkpt lat="46.14317" lon="6.64435">
        <ele>1092</ele>
        <time>2019-06-11T16:26:06Z</time>
      </trkpt>
      <trkpt lat="46.14291" lon="6.64422">
        <ele>1089</ele>
        <time>2019-06-11T16:26:11Z</time>
      </trkpt>
      <trkpt lat="46.14283" lon="6.64409">
        <ele>1088</ele>
        <time>2019-06-11T16:26:13Z</time>
      </trkpt>
      <trkpt lat="46.14279" lon="6.64384">
        <ele>1087</ele>
        <time>2019-06-11T16:26:16Z</time>
      </trkpt>
      <trkpt lat="46.14286" lon="6.64314">
        <ele>1089</ele>
        <time>2019-06-11T16:26:25Z</time>
      </trkpt>
      <trkpt lat="46.14283" lon="6.64298">
        <ele>1089</ele>
        <time>2019-06-11T16:26:27Z</time>
      </trkpt>
      <trkpt lat="46.14276" lon="6.64286">
        <ele>1087</ele>
        <time>2019-06-11T16:26:29Z</time>
      </trkpt>
      <trkpt lat="46.14271" lon="6.64281">
        <ele>1086</ele>
        <time>2019-06-11T16:26:30Z</time>
      </trkpt>
      <trkpt lat="46.14259" lon="6.64276">
        <ele>1082</ele>
        <time>2019-06-11T16:26:32Z</time>
      </trkpt>
      <trkpt lat="46.14231" lon="6.64281">
        <ele>1082</ele>
        <time>2019-06-11T16:26:37Z</time>
      </trkpt>
      <trkpt lat="46.1422" lon="6.6428">
        <ele>1083</ele>
        <time>2019-06-11T16:26:39Z</time>
      </trkpt>
      <trkpt lat="46.14206" lon="6.64269">
        <ele>1084</ele>
        <time>2019-06-11T16:26:42Z</time>
      </trkpt>
      <trkpt lat="46.14201" lon="6.64257">
        <ele>1083</ele>
        <time>2019-06-11T16:26:43Z</time>
      </trkpt>
      <trkpt lat="46.14198" lon="6.64241">
        <ele>1082</ele>
        <time>2019-06-11T16:26:45Z</time>
      </trkpt>
      <trkpt lat="46.14199" lon="6.64231">
        <ele>1081</ele>
        <time>2019-06-11T16:26:47Z</time>
      </trkpt>
      <trkpt lat="46.14208" lon="6.64181">
        <ele>1081</ele>
        <time>2019-06-11T16:26:53Z</time>
      </trkpt>
      <trkpt lat="46.14208" lon="6.6416">
        <ele>1081</ele>
        <time>2019-06-11T16:26:56Z</time>
      </trkpt>
      <trkpt lat="46.14205" lon="6.64139">
        <ele>1084</ele>
        <time>2019-06-11T16:26:58Z</time>
      </trkpt>
      <trkpt lat="46.14198" lon="6.64109">
        <ele>1087</ele>
        <time>2019-06-11T16:27:02Z</time>
      </trkpt>
      <trkpt lat="46.14191" lon="6.64092">
        <ele>1087</ele>
        <time>2019-06-11T16:27:05Z</time>
      </trkpt>
      <trkpt lat="46.14173" lon="6.6407">
        <ele>1083</ele>
        <time>2019-06-11T16:27:09Z</time>
      </trkpt>
      <trkpt lat="46.14161" lon="6.64063">
        <ele>1081</ele>
        <time>2019-06-11T16:27:11Z</time>
      </trkpt>
      <trkpt lat="46.14149" lon="6.64063">
        <ele>1079</ele>
        <time>2019-06-11T16:27:13Z</time>
      </trkpt>
      <trkpt lat="46.14112" lon="6.6407">
        <ele>1072</ele>
        <time>2019-06-11T16:27:20Z</time>
      </trkpt>
      <trkpt lat="46.14107" lon="6.64069">
        <ele>1071</ele>
        <time>2019-06-11T16:27:21Z</time>
      </trkpt>
      <trkpt lat="46.14097" lon="6.64061">
        <ele>1069</ele>
        <time>2019-06-11T16:27:23Z</time>
      </trkpt>
      <trkpt lat="46.1409" lon="6.64047">
        <ele>1068</ele>
        <time>2019-06-11T16:27:25Z</time>
      </trkpt>
      <trkpt lat="46.14084" lon="6.6401">
        <ele>1066</ele>
        <time>2019-06-11T16:27:30Z</time>
      </trkpt>
      <trkpt lat="46.14079" lon="6.63993">
        <ele>1067</ele>
        <time>2019-06-11T16:27:32Z</time>
      </trkpt>
      <trkpt lat="46.14028" lon="6.6394">
        <ele>1062</ele>
        <time>2019-06-11T16:27:43Z</time>
      </trkpt>
      <trkpt lat="46.13991" lon="6.63887">
        <ele>1053</ele>
        <time>2019-06-11T16:27:52Z</time>
      </trkpt>
      <trkpt lat="46.13966" lon="6.63829">
        <ele>1049</ele>
        <time>2019-06-11T16:28:01Z</time>
      </trkpt>
      <trkpt lat="46.13957" lon="6.63783">
        <ele>1051</ele>
        <time>2019-06-11T16:28:07Z</time>
      </trkpt>
      <trkpt lat="46.13953" lon="6.63767">
        <ele>1051</ele>
        <time>2019-06-11T16:28:09Z</time>
      </trkpt>
      <trkpt lat="46.13934" lon="6.63723">
        <ele>1048</ele>
        <time>2019-06-11T16:28:15Z</time>
      </trkpt>
      <trkpt lat="46.13926" lon="6.63707">
        <ele>1046</ele>
        <time>2019-06-11T16:28:18Z</time>
      </trkpt>
      <trkpt lat="46.13912" lon="6.63689">
        <ele>1045</ele>
        <time>2019-06-11T16:28:21Z</time>
      </trkpt>
      <trkpt lat="46.13869" lon="6.63639">
        <ele>1044</ele>
        <time>2019-06-11T16:28:31Z</time>
      </trkpt>
      <trkpt lat="46.13829" lon="6.63619">
        <ele>1035</ele>
        <time>2019-06-11T16:28:38Z</time>
      </trkpt>
      <trkpt lat="46.13814" lon="6.63605">
        <ele>1035</ele>
        <time>2019-06-11T16:28:41Z</time>
      </trkpt>
      <trkpt lat="46.13783" lon="6.63563">
        <ele>1033</ele>
        <time>2019-06-11T16:28:49Z</time>
      </trkpt>
      <trkpt lat="46.13741" lon="6.63512">
        <ele>1028</ele>
        <time>2019-06-11T16:28:59Z</time>
      </trkpt>
      <trkpt lat="46.13727" lon="6.63488">
        <ele>1030</ele>
        <time>2019-06-11T16:29:03Z</time>
      </trkpt>
      <trkpt lat="46.13714" lon="6.63462">
        <ele>1032</ele>
        <time>2019-06-11T16:29:07Z</time>
      </trkpt>
      <trkpt lat="46.13697" lon="6.63403">
        <ele>1029</ele>
        <time>2019-06-11T16:29:14Z</time>
      </trkpt>
      <trkpt lat="46.13681" lon="6.63361">
        <ele>1030</ele>
        <time>2019-06-11T16:29:20Z</time>
      </trkpt>
      <trkpt lat="46.13676" lon="6.63351">
        <ele>1029</ele>
        <time>2019-06-11T16:29:22Z</time>
      </trkpt>
      <trkpt lat="46.13663" lon="6.63332">
        <ele>1027</ele>
        <time>2019-06-11T16:29:25Z</time>
      </trkpt>
      <trkpt lat="46.13651" lon="6.6332">
        <ele>1027</ele>
        <time>2019-06-11T16:29:28Z</time>
      </trkpt>
      <trkpt lat="46.13637" lon="6.63312">
        <ele>1025</ele>
        <time>2019-06-11T16:29:30Z</time>
      </trkpt>
      <trkpt lat="46.13601" lon="6.63311">
        <ele>1015</ele>
        <time>2019-06-11T16:29:37Z</time>
      </trkpt>
      <trkpt lat="46.13591" lon="6.63304">
        <ele>1012</ele>
        <time>2019-06-11T16:29:39Z</time>
      </trkpt>
      <trkpt lat="46.13584" lon="6.63293">
        <ele>1010</ele>
        <time>2019-06-11T16:29:41Z</time>
      </trkpt>
      <trkpt lat="46.13537" lon="6.63196">
        <ele>1015</ele>
        <time>2019-06-11T16:29:55Z</time>
      </trkpt>
      <trkpt lat="46.13521" lon="6.63144">
        <ele>1011</ele>
        <time>2019-06-11T16:30:02Z</time>
      </trkpt>
      <trkpt lat="46.13513" lon="6.6312">
        <ele>1007</ele>
        <time>2019-06-11T16:30:06Z</time>
      </trkpt>
      <trkpt lat="46.13465" lon="6.63033">
        <ele>1001</ele>
        <time>2019-06-11T16:30:19Z</time>
      </trkpt>
      <trkpt lat="46.13457" lon="6.63016">
        <ele>999</ele>
        <time>2019-06-11T16:30:22Z</time>
      </trkpt>
      <trkpt lat="46.13447" lon="6.62981">
        <ele>996</ele>
        <time>2019-06-11T16:30:27Z</time>
      </trkpt>
      <trkpt lat="46.13432" lon="6.62914">
        <ele>989</ele>
        <time>2019-06-11T16:30:35Z</time>
      </trkpt>
      <trkpt lat="46.1343" lon="6.62864">
        <ele>985</ele>
        <time>2019-06-11T16:30:41Z</time>
      </trkpt>
      <trkpt lat="46.13426" lon="6.6285">
        <ele>982</ele>
        <time>2019-06-11T16:30:43Z</time>
      </trkpt>
      <trkpt lat="46.13424" lon="6.62844">
        <ele>981</ele>
        <time>2019-06-11T16:30:44Z</time>
      </trkpt>
      <trkpt lat="46.13425" lon="6.62832">
        <ele>980</ele>
        <time>2019-06-11T16:30:46Z</time>
      </trkpt>
      <trkpt lat="46.13426" lon="6.62778">
        <ele>977</ele>
        <time>2019-06-11T16:30:52Z</time>
      </trkpt>
      <trkpt lat="46.13421" lon="6.62742">
        <ele>973</ele>
        <time>2019-06-11T16:30:57Z</time>
      </trkpt>
      <trkpt lat="46.13421" lon="6.62723">
        <ele>971</ele>
        <time>2019-06-11T16:30:59Z</time>
      </trkpt>
      <trkpt lat="46.13425" lon="6.62701">
        <ele>971</ele>
        <time>2019-06-11T16:31:02Z</time>
      </trkpt>
      <trkpt lat="46.13441" lon="6.62652">
        <ele>970</ele>
        <time>2019-06-11T16:31:09Z</time>
      </trkpt>
      <trkpt lat="46.13453" lon="6.62628">
        <ele>969</ele>
        <time>2019-06-11T16:31:12Z</time>
      </trkpt>
      <trkpt lat="46.13471" lon="6.62601">
        <ele>969</ele>
        <time>2019-06-11T16:31:17Z</time>
      </trkpt>
      <trkpt lat="46.13489" lon="6.62579">
        <ele>968</ele>
        <time>2019-06-11T16:31:21Z</time>
      </trkpt>
      <trkpt lat="46.13556" lon="6.62523">
        <ele>974</ele>
        <time>2019-06-11T16:31:35Z</time>
      </trkpt>
      <trkpt lat="46.13567" lon="6.62509">
        <ele>971</ele>
        <time>2019-06-11T16:31:37Z</time>
      </trkpt>
      <trkpt lat="46.13601" lon="6.62446">
        <ele>966</ele>
        <time>2019-06-11T16:31:47Z</time>
      </trkpt>
      <trkpt lat="46.13613" lon="6.62426">
        <ele>965</ele>
        <time>2019-06-11T16:31:51Z</time>
      </trkpt>
      <trkpt lat="46.13634" lon="6.62405">
        <ele>968</ele>
        <time>2019-06-11T16:31:55Z</time>
      </trkpt>
      <trkpt lat="46.13672" lon="6.62372">
        <ele>973</ele>
        <time>2019-06-11T16:32:03Z</time>
      </trkpt>
      <trkpt lat="46.13679" lon="6.6236">
        <ele>974</ele>
        <time>2019-06-11T16:32:05Z</time>
      </trkpt>
      <trkpt lat="46.13681" lon="6.62352">
        <ele>973</ele>
        <time>2019-06-11T16:32:06Z</time>
      </trkpt>
      <trkpt lat="46.13682" lon="6.62337">
        <ele>972</ele>
        <time>2019-06-11T16:32:08Z</time>
      </trkpt>
      <trkpt lat="46.13681" lon="6.62325">
        <ele>972</ele>
        <time>2019-06-11T16:32:09Z</time>
      </trkpt>
      <trkpt lat="46.13669" lon="6.62298">
        <ele>976</ele>
        <time>2019-06-11T16:32:13Z</time>
      </trkpt>
      <trkpt lat="46.13665" lon="6.62295">
        <ele>977</ele>
        <time>2019-06-11T16:32:14Z</time>
      </trkpt>
      <trkpt lat="46.13654" lon="6.62292">
        <ele>978</ele>
        <time>2019-06-11T16:32:16Z</time>
      </trkpt>
      <trkpt lat="46.13647" lon="6.62294">
        <ele>978</ele>
        <time>2019-06-11T16:32:17Z</time>
      </trkpt>
      <trkpt lat="46.13607" lon="6.62328">
        <ele>971</ele>
        <time>2019-06-11T16:32:26Z</time>
      </trkpt>
      <trkpt lat="46.13548" lon="6.62363">
        <ele>967</ele>
        <time>2019-06-11T16:32:37Z</time>
      </trkpt>
      <trkpt lat="46.13536" lon="6.62368">
        <ele>968</ele>
        <time>2019-06-11T16:32:39Z</time>
      </trkpt>
      <trkpt lat="46.13516" lon="6.6237">
        <ele>969</ele>
        <time>2019-06-11T16:32:43Z</time>
      </trkpt>
      <trkpt lat="46.13504" lon="6.62368">
        <ele>970</ele>
        <time>2019-06-11T16:32:45Z</time>
      </trkpt>
      <trkpt lat="46.13489" lon="6.62361">
        <ele>972</ele>
        <time>2019-06-11T16:32:48Z</time>
      </trkpt>
      <trkpt lat="46.13475" lon="6.62349">
        <ele>973</ele>
        <time>2019-06-11T16:32:51Z</time>
      </trkpt>
      <trkpt lat="46.13469" lon="6.62342">
        <ele>974</ele>
        <time>2019-06-11T16:32:52Z</time>
      </trkpt>
      <trkpt lat="46.13468" lon="6.62338">
        <ele>975</ele>
        <time>2019-06-11T16:32:52Z</time>
      </trkpt>
      <trkpt lat="46.13395" lon="6.62296">
        <ele>984</ele>
        <time>2019-06-11T16:33:06Z</time>
      </trkpt>
      <trkpt lat="46.13223" lon="6.6219">
        <ele>978</ele>
        <time>2019-06-11T16:33:40Z</time>
      </trkpt>
      <trkpt lat="46.13184" lon="6.62177">
        <ele>977</ele>
        <time>2019-06-11T16:33:47Z</time>
      </trkpt>
      <trkpt lat="46.13133" lon="6.6215">
        <ele>982</ele>
        <time>2019-06-11T16:33:57Z</time>
      </trkpt>
      <trkpt lat="46.13125" lon="6.62148">
        <ele>982</ele>
        <time>2019-06-11T16:33:58Z</time>
      </trkpt>
      <trkpt lat="46.131" lon="6.62149">
        <ele>979</ele>
        <time>2019-06-11T16:34:02Z</time>
      </trkpt>
      <trkpt lat="46.13029" lon="6.62143">
        <ele>972</ele>
        <time>2019-06-11T16:34:15Z</time>
      </trkpt>
      <trkpt lat="46.13014" lon="6.62137">
        <ele>971</ele>
        <time>2019-06-11T16:34:18Z</time>
      </trkpt>
      <trkpt lat="46.13001" lon="6.62129">
        <ele>972</ele>
        <time>2019-06-11T16:34:20Z</time>
      </trkpt>
      <trkpt lat="46.12985" lon="6.62112">
        <ele>976</ele>
        <time>2019-06-11T16:34:24Z</time>
      </trkpt>
      <trkpt lat="46.12973" lon="6.62106">
        <ele>977</ele>
        <time>2019-06-11T16:34:26Z</time>
      </trkpt>
      <trkpt lat="46.12895" lon="6.6211">
        <ele>967</ele>
        <time>2019-06-11T16:34:40Z</time>
      </trkpt>
      <trkpt lat="46.12869" lon="6.62105">
        <ele>967</ele>
        <time>2019-06-11T16:34:45Z</time>
      </trkpt>
      <trkpt lat="46.12842" lon="6.62094">
        <ele>969</ele>
        <time>2019-06-11T16:34:50Z</time>
      </trkpt>
      <trkpt lat="46.12773" lon="6.62061">
        <ele>970</ele>
        <time>2019-06-11T16:35:03Z</time>
      </trkpt>
      <trkpt lat="46.12751" lon="6.62054">
        <ele>969</ele>
        <time>2019-06-11T16:35:07Z</time>
      </trkpt>
      <trkpt lat="46.1269" lon="6.62041">
        <ele>959</ele>
        <time>2019-06-11T16:35:18Z</time>
      </trkpt>
      <trkpt lat="46.12659" lon="6.62027">
        <ele>956</ele>
        <time>2019-06-11T16:35:23Z</time>
      </trkpt>
      <trkpt lat="46.12571" lon="6.61948">
        <ele>957</ele>
        <time>2019-06-11T16:35:42Z</time>
      </trkpt>
      <trkpt lat="46.12543" lon="6.6192">
        <ele>955</ele>
        <time>2019-06-11T16:35:48Z</time>
      </trkpt>
      <trkpt lat="46.1247" lon="6.61809">
        <ele>961</ele>
        <time>2019-06-11T16:36:07Z</time>
      </trkpt>
      <trkpt lat="46.12446" lon="6.61761">
        <ele>956</ele>
        <time>2019-06-11T16:36:14Z</time>
      </trkpt>
      <trkpt lat="46.12423" lon="6.61701">
        <ele>953</ele>
        <time>2019-06-11T16:36:23Z</time>
      </trkpt>
      <trkpt lat="46.12379" lon="6.61568">
        <ele>946</ele>
        <time>2019-06-11T16:36:41Z</time>
      </trkpt>
      <trkpt lat="46.12369" lon="6.61547">
        <ele>945</ele>
        <time>2019-06-11T16:36:44Z</time>
      </trkpt>
      <trkpt lat="46.12363" lon="6.61538">
        <ele>944</ele>
        <time>2019-06-11T16:36:45Z</time>
      </trkpt>
      <trkpt lat="46.12332" lon="6.61498">
        <ele>939</ele>
        <time>2019-06-11T16:36:53Z</time>
      </trkpt>
      <trkpt lat="46.12321" lon="6.61482">
        <ele>935</ele>
        <time>2019-06-11T16:36:56Z</time>
      </trkpt>
      <trkpt lat="46.12315" lon="6.61468">
        <ele>934</ele>
        <time>2019-06-11T16:36:58Z</time>
      </trkpt>
      <trkpt lat="46.12308" lon="6.61445">
        <ele>932</ele>
        <time>2019-06-11T16:37:01Z</time>
      </trkpt>
      <trkpt lat="46.12306" lon="6.6143">
        <ele>933</ele>
        <time>2019-06-11T16:37:03Z</time>
      </trkpt>
      <trkpt lat="46.12305" lon="6.61414">
        <ele>933</ele>
        <time>2019-06-11T16:37:05Z</time>
      </trkpt>
      <trkpt lat="46.12308" lon="6.61374">
        <ele>935</ele>
        <time>2019-06-11T16:37:09Z</time>
      </trkpt>
      <trkpt lat="46.12304" lon="6.61329">
        <ele>932</ele>
        <time>2019-06-11T16:37:15Z</time>
      </trkpt>
      <trkpt lat="46.12304" lon="6.61308">
        <ele>933</ele>
        <time>2019-06-11T16:37:18Z</time>
      </trkpt>
      <trkpt lat="46.12309" lon="6.61249">
        <ele>936</ele>
        <time>2019-06-11T16:37:25Z</time>
      </trkpt>
      <trkpt lat="46.12308" lon="6.61208">
        <ele>933</ele>
        <time>2019-06-11T16:37:30Z</time>
      </trkpt>
      <trkpt lat="46.12309" lon="6.6117">
        <ele>932</ele>
        <time>2019-06-11T16:37:35Z</time>
      </trkpt>
      <trkpt lat="46.12319" lon="6.611">
        <ele>934</ele>
        <time>2019-06-11T16:37:44Z</time>
      </trkpt>
      <trkpt lat="46.12317" lon="6.6104">
        <ele>929</ele>
        <time>2019-06-11T16:37:51Z</time>
      </trkpt>
      <trkpt lat="46.12318" lon="6.61007">
        <ele>927</ele>
        <time>2019-06-11T16:37:55Z</time>
      </trkpt>
      <trkpt lat="46.12325" lon="6.60974">
        <ele>930</ele>
        <time>2019-06-11T16:37:59Z</time>
      </trkpt>
      <trkpt lat="46.12329" lon="6.60934">
        <ele>930</ele>
        <time>2019-06-11T16:38:04Z</time>
      </trkpt>
      <trkpt lat="46.12332" lon="6.60916">
        <ele>931</ele>
        <time>2019-06-11T16:38:07Z</time>
      </trkpt>
      <trkpt lat="46.12363" lon="6.60811">
        <ele>927</ele>
        <time>2019-06-11T16:38:21Z</time>
      </trkpt>
      <trkpt lat="46.12371" lon="6.60802">
        <ele>929</ele>
        <time>2019-06-11T16:38:22Z</time>
      </trkpt>
      <trkpt lat="46.12381" lon="6.60796">
        <ele>932</ele>
        <time>2019-06-11T16:38:24Z</time>
      </trkpt>
      <trkpt lat="46.12393" lon="6.60792">
        <ele>936</ele>
        <time>2019-06-11T16:38:27Z</time>
      </trkpt>
      <trkpt lat="46.12402" lon="6.60785">
        <ele>938</ele>
        <time>2019-06-11T16:38:28Z</time>
      </trkpt>
      <trkpt lat="46.12437" lon="6.60747">
        <ele>945</ele>
        <time>2019-06-11T16:38:36Z</time>
      </trkpt>
      <trkpt lat="46.12444" lon="6.60737">
        <ele>951</ele>
        <time>2019-06-11T16:38:38Z</time>
      </trkpt>
      <trkpt lat="46.12447" lon="6.60723">
        <ele>956</ele>
        <time>2019-06-11T16:38:40Z</time>
      </trkpt>
      <trkpt lat="46.12444" lon="6.60712">
        <ele>957</ele>
        <time>2019-06-11T16:38:41Z</time>
      </trkpt>
      <trkpt lat="46.12434" lon="6.60703">
        <ele>955</ele>
        <time>2019-06-11T16:38:43Z</time>
      </trkpt>
      <trkpt lat="46.12405" lon="6.60699">
        <ele>945</ele>
        <time>2019-06-11T16:38:48Z</time>
      </trkpt>
      <trkpt lat="46.12349" lon="6.60674">
        <ele>931</ele>
        <time>2019-06-11T16:38:59Z</time>
      </trkpt>
      <trkpt lat="46.12322" lon="6.60661">
        <ele>926</ele>
        <time>2019-06-11T16:39:04Z</time>
      </trkpt>
      <trkpt lat="46.12298" lon="6.60635">
        <ele>929</ele>
        <time>2019-06-11T16:39:09Z</time>
      </trkpt>
      <trkpt lat="46.12269" lon="6.60617">
        <ele>925</ele>
        <time>2019-06-11T16:39:15Z</time>
      </trkpt>
      <trkpt lat="46.12248" lon="6.60599">
        <ele>921</ele>
        <time>2019-06-11T16:39:19Z</time>
      </trkpt>
      <trkpt lat="46.12237" lon="6.60586">
        <ele>918</ele>
        <time>2019-06-11T16:39:22Z</time>
      </trkpt>
      <trkpt lat="46.12232" lon="6.60572">
        <ele>919</ele>
        <time>2019-06-11T16:39:24Z</time>
      </trkpt>
      <trkpt lat="46.1223" lon="6.60543">
        <ele>923</ele>
        <time>2019-06-11T16:39:27Z</time>
      </trkpt>
      <trkpt lat="46.12226" lon="6.60528">
        <ele>923</ele>
        <time>2019-06-11T16:39:29Z</time>
      </trkpt>
      <trkpt lat="46.12208" lon="6.60494">
        <ele>919</ele>
        <time>2019-06-11T16:39:35Z</time>
      </trkpt>
      <trkpt lat="46.122" lon="6.60483">
        <ele>917</ele>
        <time>2019-06-11T16:39:37Z</time>
      </trkpt>
      <trkpt lat="46.12194" lon="6.60467">
        <ele>916</ele>
        <time>2019-06-11T16:39:39Z</time>
      </trkpt>
      <trkpt lat="46.1218" lon="6.60422">
        <ele>914</ele>
        <time>2019-06-11T16:39:45Z</time>
      </trkpt>
      <trkpt lat="46.12149" lon="6.60375">
        <ele>902</ele>
        <time>2019-06-11T16:39:53Z</time>
      </trkpt>
      <trkpt lat="46.12126" lon="6.60322">
        <ele>897</ele>
        <time>2019-06-11T16:40:01Z</time>
      </trkpt>
      <trkpt lat="46.12111" lon="6.60271">
        <ele>901</ele>
        <time>2019-06-11T16:40:07Z</time>
      </trkpt>
      <trkpt lat="46.12108" lon="6.60254">
        <ele>905</ele>
        <time>2019-06-11T16:40:10Z</time>
      </trkpt>
      <trkpt lat="46.12108" lon="6.6023">
        <ele>911</ele>
        <time>2019-06-11T16:40:13Z</time>
      </trkpt>
      <trkpt lat="46.12103" lon="6.60215">
        <ele>911</ele>
        <time>2019-06-11T16:40:15Z</time>
      </trkpt>
      <trkpt lat="46.12046" lon="6.60133">
        <ele>886</ele>
        <time>2019-06-11T16:40:29Z</time>
      </trkpt>
      <trkpt lat="46.12036" lon="6.60111">
        <ele>882</ele>
        <time>2019-06-11T16:40:32Z</time>
      </trkpt>
      <trkpt lat="46.12031" lon="6.60092">
        <ele>882</ele>
        <time>2019-06-11T16:40:35Z</time>
      </trkpt>
      <trkpt lat="46.12032" lon="6.60051">
        <ele>894</ele>
        <time>2019-06-11T16:40:40Z</time>
      </trkpt>
      <trkpt lat="46.1203" lon="6.60035">
        <ele>897</ele>
        <time>2019-06-11T16:40:42Z</time>
      </trkpt>
      <trkpt lat="46.12024" lon="6.60022">
        <ele>897</ele>
        <time>2019-06-11T16:40:44Z</time>
      </trkpt>
      <trkpt lat="46.1202" lon="6.60016">
        <ele>897</ele>
        <time>2019-06-11T16:40:45Z</time>
      </trkpt>
      <trkpt lat="46.1201" lon="6.6001">
        <ele>893</ele>
        <time>2019-06-11T16:40:47Z</time>
      </trkpt>
      <trkpt lat="46.11996" lon="6.60004">
        <ele>886</ele>
        <time>2019-06-11T16:40:49Z</time>
      </trkpt>
      <trkpt lat="46.11981" lon="6.59994">
        <ele>881</ele>
        <time>2019-06-11T16:40:52Z</time>
      </trkpt>
      <trkpt lat="46.11932" lon="6.59941">
        <ele>867</ele>
        <time>2019-06-11T16:41:03Z</time>
      </trkpt>
      <trkpt lat="46.11916" lon="6.59914">
        <ele>865</ele>
        <time>2019-06-11T16:41:07Z</time>
      </trkpt>
      <trkpt lat="46.11892" lon="6.59881">
        <ele>862</ele>
        <time>2019-06-11T16:41:13Z</time>
      </trkpt>
      <trkpt lat="46.11852" lon="6.59814">
        <ele>859</ele>
        <time>2019-06-11T16:41:24Z</time>
      </trkpt>
      <trkpt lat="46.11842" lon="6.5979">
        <ele>858</ele>
        <time>2019-06-11T16:41:28Z</time>
      </trkpt>
      <trkpt lat="46.11827" lon="6.59764">
        <ele>855</ele>
        <time>2019-06-11T16:41:32Z</time>
      </trkpt>
      <trkpt lat="46.11808" lon="6.59716">
        <ele>856</ele>
        <time>2019-06-11T16:41:39Z</time>
      </trkpt>
      <trkpt lat="46.11803" lon="6.59708">
        <ele>855</ele>
        <time>2019-06-11T16:41:40Z</time>
      </trkpt>
      <trkpt lat="46.11793" lon="6.59699">
        <ele>851</ele>
        <time>2019-06-11T16:41:42Z</time>
      </trkpt>
      <trkpt lat="46.11772" lon="6.59688">
        <ele>840</ele>
        <time>2019-06-11T16:41:46Z</time>
      </trkpt>
      <trkpt lat="46.11768" lon="6.59683">
        <ele>838</ele>
        <time>2019-06-11T16:41:47Z</time>
      </trkpt>
      <trkpt lat="46.11766" lon="6.59676">
        <ele>838</ele>
        <time>2019-06-11T16:41:48Z</time>
      </trkpt>
      <trkpt lat="46.11761" lon="6.59653">
        <ele>837</ele>
        <time>2019-06-11T16:41:51Z</time>
      </trkpt>
      <trkpt lat="46.11752" lon="6.59631">
        <ele>833</ele>
        <time>2019-06-11T16:41:54Z</time>
      </trkpt>
      <trkpt lat="46.1175" lon="6.59621">
        <ele>833</ele>
        <time>2019-06-11T16:41:55Z</time>
      </trkpt>
      <trkpt lat="46.11749" lon="6.59603">
        <ele>835</ele>
        <time>2019-06-11T16:41:58Z</time>
      </trkpt>
      <trkpt lat="46.11751" lon="6.59562">
        <ele>844</ele>
        <time>2019-06-11T16:42:03Z</time>
      </trkpt>
      <trkpt lat="46.11748" lon="6.59547">
        <ele>847</ele>
        <time>2019-06-11T16:42:05Z</time>
      </trkpt>
      <trkpt lat="46.11744" lon="6.59541">
        <ele>848</ele>
        <time>2019-06-11T16:42:06Z</time>
      </trkpt>
      <trkpt lat="46.11731" lon="6.59529">
        <ele>847</ele>
        <time>2019-06-11T16:42:08Z</time>
      </trkpt>
      <trkpt lat="46.11721" lon="6.59529">
        <ele>844</ele>
        <time>2019-06-11T16:42:10Z</time>
      </trkpt>
      <trkpt lat="46.11704" lon="6.59536">
        <ele>836</ele>
        <time>2019-06-11T16:42:13Z</time>
      </trkpt>
      <trkpt lat="46.11692" lon="6.59533">
        <ele>833</ele>
        <time>2019-06-11T16:42:15Z</time>
      </trkpt>
      <trkpt lat="46.11671" lon="6.59515">
        <ele>834</ele>
        <time>2019-06-11T16:42:20Z</time>
      </trkpt>
      <trkpt lat="46.1166" lon="6.5951">
        <ele>832</ele>
        <time>2019-06-11T16:42:22Z</time>
      </trkpt>
      <trkpt lat="46.11592" lon="6.59514">
        <ele>814</ele>
        <time>2019-06-11T16:42:34Z</time>
      </trkpt>
      <trkpt lat="46.11579" lon="6.5951">
        <ele>811</ele>
        <time>2019-06-11T16:42:36Z</time>
      </trkpt>
      <trkpt lat="46.11567" lon="6.59503">
        <ele>809</ele>
        <time>2019-06-11T16:42:39Z</time>
      </trkpt>
      <trkpt lat="46.11558" lon="6.5949">
        <ele>808</ele>
        <time>2019-06-11T16:42:41Z</time>
      </trkpt>
      <trkpt lat="46.11551" lon="6.59473">
        <ele>807</ele>
        <time>2019-06-11T16:42:43Z</time>
      </trkpt>
      <trkpt lat="46.11528" lon="6.59389">
        <ele>804</ele>
        <time>2019-06-11T16:42:55Z</time>
      </trkpt>
      <trkpt lat="46.11485" lon="6.59243">
        <ele>797</ele>
        <time>2019-06-11T16:43:14Z</time>
      </trkpt>
      <trkpt lat="46.11467" lon="6.59194">
        <ele>794</ele>
        <time>2019-06-11T16:43:21Z</time>
      </trkpt>
      <trkpt lat="46.11446" lon="6.59152">
        <ele>790</ele>
        <time>2019-06-11T16:43:27Z</time>
      </trkpt>
      <trkpt lat="46.11433" lon="6.59134">
        <ele>786</ele>
        <time>2019-06-11T16:43:31Z</time>
      </trkpt>
      <trkpt lat="46.11428" lon="6.59118">
        <ele>785</ele>
        <time>2019-06-11T16:43:33Z</time>
      </trkpt>
      <trkpt lat="46.11426" lon="6.59103">
        <ele>785</ele>
        <time>2019-06-11T16:43:35Z</time>
      </trkpt>
      <trkpt lat="46.11433" lon="6.5907">
        <ele>789</ele>
        <time>2019-06-11T16:43:39Z</time>
      </trkpt>
      <trkpt lat="46.11435" lon="6.59054">
        <ele>791</ele>
        <time>2019-06-11T16:43:41Z</time>
      </trkpt>
      <trkpt lat="46.11434" lon="6.59038">
        <ele>790</ele>
        <time>2019-06-11T16:43:43Z</time>
      </trkpt>
      <trkpt lat="46.11428" lon="6.58996">
        <ele>789</ele>
        <time>2019-06-11T16:43:48Z</time>
      </trkpt>
      <trkpt lat="46.11411" lon="6.58954">
        <ele>787</ele>
        <time>2019-06-11T16:43:54Z</time>
      </trkpt>
      <trkpt lat="46.1141" lon="6.58919">
        <ele>792</ele>
        <time>2019-06-11T16:43:58Z</time>
      </trkpt>
      <trkpt lat="46.11408" lon="6.58914">
        <ele>791</ele>
        <time>2019-06-11T16:43:59Z</time>
      </trkpt>
      <trkpt lat="46.11372" lon="6.58871">
        <ele>781</ele>
        <time>2019-06-11T16:44:07Z</time>
      </trkpt>
      <trkpt lat="46.11363" lon="6.58846">
        <ele>780</ele>
        <time>2019-06-11T16:44:11Z</time>
      </trkpt>
      <trkpt lat="46.1136" lon="6.58828">
        <ele>781</ele>
        <time>2019-06-11T16:44:13Z</time>
      </trkpt>
      <trkpt lat="46.11352" lon="6.58805">
        <ele>779</ele>
        <time>2019-06-11T16:44:16Z</time>
      </trkpt>
      <trkpt lat="46.11328" lon="6.58762">
        <ele>773</ele>
        <time>2019-06-11T16:44:23Z</time>
      </trkpt>
      <trkpt lat="46.11325" lon="6.5875">
        <ele>773</ele>
        <time>2019-06-11T16:44:25Z</time>
      </trkpt>
      <trkpt lat="46.11323" lon="6.58726">
        <ele>774</ele>
        <time>2019-06-11T16:44:28Z</time>
      </trkpt>
      <trkpt lat="46.11326" lon="6.58644">
        <ele>778</ele>
        <time>2019-06-11T16:44:38Z</time>
      </trkpt>
      <trkpt lat="46.11323" lon="6.58626">
        <ele>777</ele>
        <time>2019-06-11T16:44:40Z</time>
      </trkpt>
      <trkpt lat="46.11313" lon="6.58578">
        <ele>774</ele>
        <time>2019-06-11T16:44:46Z</time>
      </trkpt>
      <trkpt lat="46.11287" lon="6.58421">
        <ele>762</ele>
        <time>2019-06-11T16:45:06Z</time>
      </trkpt>
      <trkpt lat="46.11287" lon="6.58374">
        <ele>761</ele>
        <time>2019-06-11T16:45:12Z</time>
      </trkpt>
      <trkpt lat="46.11279" lon="6.58313">
        <ele>758</ele>
        <time>2019-06-11T16:45:20Z</time>
      </trkpt>
      <trkpt lat="46.11272" lon="6.58291">
        <ele>756</ele>
        <time>2019-06-11T16:45:23Z</time>
      </trkpt>
      <trkpt lat="46.11248" lon="6.58246">
        <ele>753</ele>
        <time>2019-06-11T16:45:30Z</time>
      </trkpt>
      <trkpt lat="46.11243" lon="6.58231">
        <ele>752</ele>
        <time>2019-06-11T16:45:32Z</time>
      </trkpt>
      <trkpt lat="46.11239" lon="6.58206">
        <ele>753</ele>
        <time>2019-06-11T16:45:35Z</time>
      </trkpt>
      <trkpt lat="46.11232" lon="6.58196">
        <ele>751</ele>
        <time>2019-06-11T16:45:37Z</time>
      </trkpt>
      <trkpt lat="46.11227" lon="6.58194">
        <ele>749</ele>
        <time>2019-06-11T16:45:38Z</time>
      </trkpt>
      <trkpt lat="46.11223" lon="6.58195">
        <ele>748</ele>
        <time>2019-06-11T16:45:38Z</time>
      </trkpt>
      <trkpt lat="46.11217" lon="6.582">
        <ele>745</ele>
        <time>2019-06-11T16:45:40Z</time>
      </trkpt>
      <trkpt lat="46.11214" lon="6.58208">
        <ele>743</ele>
        <time>2019-06-11T16:45:41Z</time>
      </trkpt>
      <trkpt lat="46.11213" lon="6.58223">
        <ele>741</ele>
        <time>2019-06-11T16:45:43Z</time>
      </trkpt>
      <trkpt lat="46.11224" lon="6.58251">
        <ele>743</ele>
        <time>2019-06-11T16:45:46Z</time>
      </trkpt>
      <trkpt lat="46.11228" lon="6.58269">
        <ele>744</ele>
        <time>2019-06-11T16:45:49Z</time>
      </trkpt>
      <trkpt lat="46.11228" lon="6.58325">
        <ele>742</ele>
        <time>2019-06-11T16:45:56Z</time>
      </trkpt>
      <trkpt lat="46.11223" lon="6.58362">
        <ele>740</ele>
        <time>2019-06-11T16:46:00Z</time>
      </trkpt>
      <trkpt lat="46.11184" lon="6.58512">
        <ele>729</ele>
        <time>2019-06-11T16:46:20Z</time>
      </trkpt>
      <trkpt lat="46.11161" lon="6.58586">
        <ele>724</ele>
        <time>2019-06-11T16:46:30Z</time>
      </trkpt>
      <trkpt lat="46.11128" lon="6.58717">
        <ele>718</ele>
        <time>2019-06-11T16:46:47Z</time>
      </trkpt>
      <trkpt lat="46.11124" lon="6.5874">
        <ele>716</ele>
        <time>2019-06-11T16:46:50Z</time>
      </trkpt>
      <trkpt lat="46.11119" lon="6.58751">
        <ele>714</ele>
        <time>2019-06-11T16:46:52Z</time>
      </trkpt>
      <trkpt lat="46.1111" lon="6.58757">
        <ele>711</ele>
        <time>2019-06-11T16:46:54Z</time>
      </trkpt>
      <trkpt lat="46.11105" lon="6.58757">
        <ele>710</ele>
        <time>2019-06-11T16:46:55Z</time>
      </trkpt>
      <trkpt lat="46.111" lon="6.58754">
        <ele>709</ele>
        <time>2019-06-11T16:46:55Z</time>
      </trkpt>
      <trkpt lat="46.11097" lon="6.58747">
        <ele>709</ele>
        <time>2019-06-11T16:46:57Z</time>
      </trkpt>
      <trkpt lat="46.11097" lon="6.58732">
        <ele>709</ele>
        <time>2019-06-11T16:46:58Z</time>
      </trkpt>
      <trkpt lat="46.11102" lon="6.58701">
        <ele>712</ele>
        <time>2019-06-11T16:47:02Z</time>
      </trkpt>
      <trkpt lat="46.11104" lon="6.58673">
        <ele>714</ele>
        <time>2019-06-11T16:47:06Z</time>
      </trkpt>
      <trkpt lat="46.11104" lon="6.5865">
        <ele>713</ele>
        <time>2019-06-11T16:47:09Z</time>
      </trkpt>
      <trkpt lat="46.11102" lon="6.58622">
        <ele>711</ele>
        <time>2019-06-11T16:47:12Z</time>
      </trkpt>
      <trkpt lat="46.11082" lon="6.58446">
        <ele>698</ele>
        <time>2019-06-11T16:47:34Z</time>
      </trkpt>
      <trkpt lat="46.11081" lon="6.58421">
        <ele>697</ele>
        <time>2019-06-11T16:47:37Z</time>
      </trkpt>
      <trkpt lat="46.11085" lon="6.58388">
        <ele>698</ele>
        <time>2019-06-11T16:47:41Z</time>
      </trkpt>
      <trkpt lat="46.11097" lon="6.58308">
        <ele>700</ele>
        <time>2019-06-11T16:47:51Z</time>
      </trkpt>
      <trkpt lat="46.11096" lon="6.58299">
        <ele>699</ele>
        <time>2019-06-11T16:47:52Z</time>
      </trkpt>
      <trkpt lat="46.11086" lon="6.5828">
        <ele>695</ele>
        <time>2019-06-11T16:47:55Z</time>
      </trkpt>
      <trkpt lat="46.11076" lon="6.58274">
        <ele>692</ele>
        <time>2019-06-11T16:47:57Z</time>
      </trkpt>
      <trkpt lat="46.11066" lon="6.58274">
        <ele>689</ele>
        <time>2019-06-11T16:47:59Z</time>
      </trkpt>
      <trkpt lat="46.11054" lon="6.5828">
        <ele>686</ele>
        <time>2019-06-11T16:48:01Z</time>
      </trkpt>
      <trkpt lat="46.11049" lon="6.58286">
        <ele>685</ele>
        <time>2019-06-11T16:48:03Z</time>
      </trkpt>
      <trkpt lat="46.11045" lon="6.58295">
        <ele>685</ele>
        <time>2019-06-11T16:48:04Z</time>
      </trkpt>
      <trkpt lat="46.11039" lon="6.58324">
        <ele>684</ele>
        <time>2019-06-11T16:48:08Z</time>
      </trkpt>
      <trkpt lat="46.11033" lon="6.58376">
        <ele>682</ele>
        <time>2019-06-11T16:48:14Z</time>
      </trkpt>
      <trkpt lat="46.11028" lon="6.58453">
        <ele>681</ele>
        <time>2019-06-11T16:48:24Z</time>
      </trkpt>
      <trkpt lat="46.11025" lon="6.5847">
        <ele>680</ele>
        <time>2019-06-11T16:48:26Z</time>
      </trkpt>
      <trkpt lat="46.1102" lon="6.5849">
        <ele>678</ele>
        <time>2019-06-11T16:48:28Z</time>
      </trkpt>
      <trkpt lat="46.11" lon="6.58559">
        <ele>677</ele>
        <time>2019-06-11T16:48:38Z</time>
      </trkpt>
      <trkpt lat="46.10992" lon="6.58588">
        <ele>676</ele>
        <time>2019-06-11T16:48:42Z</time>
      </trkpt>
      <trkpt lat="46.10988" lon="6.58633">
        <ele>673</ele>
        <time>2019-06-11T16:48:47Z</time>
      </trkpt>
      <trkpt lat="46.10989" lon="6.58701">
        <ele>671</ele>
        <time>2019-06-11T16:48:56Z</time>
      </trkpt>
      <trkpt lat="46.10988" lon="6.58779">
        <ele>668</ele>
        <time>2019-06-11T16:49:05Z</time>
      </trkpt>
      <trkpt lat="46.10991" lon="6.58847">
        <ele>666</ele>
        <time>2019-06-11T16:49:14Z</time>
      </trkpt>
      <trkpt lat="46.10988" lon="6.58858">
        <ele>666</ele>
        <time>2019-06-11T16:49:15Z</time>
      </trkpt>
      <trkpt lat="46.10968" lon="6.58888">
        <ele>662</ele>
        <time>2019-06-11T16:49:20Z</time>
      </trkpt>
      <trkpt lat="46.10962" lon="6.58907">
        <ele>661</ele>
        <time>2019-06-11T16:49:23Z</time>
      </trkpt>
      <trkpt lat="46.10958" lon="6.58911">
        <ele>660</ele>
        <time>2019-06-11T16:49:24Z</time>
      </trkpt>
      <trkpt lat="46.1095" lon="6.58913">
        <ele>658</ele>
        <time>2019-06-11T16:49:25Z</time>
      </trkpt>
      <trkpt lat="46.10941" lon="6.58909">
        <ele>656</ele>
        <time>2019-06-11T16:49:27Z</time>
      </trkpt>
      <trkpt lat="46.10938" lon="6.58897">
        <ele>655</ele>
        <time>2019-06-11T16:49:28Z</time>
      </trkpt>
      <trkpt lat="46.10938" lon="6.58891">
        <ele>655</ele>
        <time>2019-06-11T16:49:29Z</time>
      </trkpt>
      <trkpt lat="46.1095" lon="6.58851">
        <ele>657</ele>
        <time>2019-06-11T16:49:34Z</time>
      </trkpt>
      <trkpt lat="46.10947" lon="6.58799">
        <ele>657</ele>
        <time>2019-06-11T16:49:41Z</time>
      </trkpt>
      <trkpt lat="46.10948" lon="6.58781">
        <ele>657</ele>
        <time>2019-06-11T16:49:43Z</time>
      </trkpt>
      <trkpt lat="46.10951" lon="6.58761">
        <ele>658</ele>
        <time>2019-06-11T16:49:46Z</time>
      </trkpt>
      <trkpt lat="46.10951" lon="6.58746">
        <ele>658</ele>
        <time>2019-06-11T16:49:47Z</time>
      </trkpt>
      <trkpt lat="46.10948" lon="6.5874">
        <ele>657</ele>
        <time>2019-06-11T16:49:48Z</time>
      </trkpt>
      <trkpt lat="46.10944" lon="6.58736">
        <ele>655</ele>
        <time>2019-06-11T16:49:49Z</time>
      </trkpt>
      <trkpt lat="46.10934" lon="6.58737">
        <ele>652</ele>
        <time>2019-06-11T16:49:51Z</time>
      </trkpt>
      <trkpt lat="46.1093" lon="6.58742">
        <ele>651</ele>
        <time>2019-06-11T16:49:52Z</time>
      </trkpt>
      <trkpt lat="46.10927" lon="6.58754">
        <ele>650</ele>
        <time>2019-06-11T16:49:53Z</time>
      </trkpt>
      <trkpt lat="46.1093" lon="6.58777">
        <ele>652</ele>
        <time>2019-06-11T16:49:56Z</time>
      </trkpt>
      <trkpt lat="46.10929" lon="6.58791">
        <ele>652</ele>
        <time>2019-06-11T16:49:58Z</time>
      </trkpt>
      <trkpt lat="46.10927" lon="6.58796">
        <ele>651</ele>
        <time>2019-06-11T16:49:59Z</time>
      </trkpt>
      <trkpt lat="46.10918" lon="6.58801">
        <ele>649</ele>
        <time>2019-06-11T16:50:01Z</time>
      </trkpt>
      <trkpt lat="46.1091" lon="6.58795">
        <ele>648</ele>
        <time>2019-06-11T16:50:02Z</time>
      </trkpt>
      <trkpt lat="46.10907" lon="6.5879">
        <ele>648</ele>
        <time>2019-06-11T16:50:03Z</time>
      </trkpt>
      <trkpt lat="46.10906" lon="6.58778">
        <ele>647</ele>
        <time>2019-06-11T16:50:04Z</time>
      </trkpt>
      <trkpt lat="46.10905" lon="6.58748">
        <ele>646</ele>
        <time>2019-06-11T16:50:08Z</time>
      </trkpt>
      <trkpt lat="46.10903" lon="6.5873">
        <ele>645</ele>
        <time>2019-06-11T16:50:10Z</time>
      </trkpt>
      <trkpt lat="46.10898" lon="6.58701">
        <ele>644</ele>
        <time>2019-06-11T16:50:14Z</time>
      </trkpt>
      <trkpt lat="46.1089" lon="6.5868">
        <ele>643</ele>
        <time>2019-06-11T16:50:17Z</time>
      </trkpt>
      <trkpt lat="46.10887" lon="6.58677">
        <ele>643</ele>
        <time>2019-06-11T16:50:18Z</time>
      </trkpt>
      <trkpt lat="46.10817" lon="6.58656">
        <ele>639</ele>
        <time>2019-06-11T16:50:30Z</time>
      </trkpt>
      <trkpt lat="46.10795" lon="6.59085">
        <ele>647</ele>
        <time>2019-06-11T16:51:23Z</time>
      </trkpt>
      <trkpt lat="46.10792" lon="6.59113">
        <ele>648</ele>
        <time>2019-06-11T16:51:27Z</time>
      </trkpt>
      <trkpt lat="46.10787" lon="6.59113">
        <ele>647</ele>
        <time>2019-06-11T16:51:28Z</time>
      </trkpt>
      <trkpt lat="46.10784" lon="6.59115">
        <ele>647</ele>
        <time>2019-06-11T16:51:28Z</time>
      </trkpt>
      <trkpt lat="46.10782" lon="6.59122">
        <ele>647</ele>
        <time>2019-06-11T16:51:29Z</time>
      </trkpt>
      <trkpt lat="46.10768" lon="6.59112">
        <ele>646</ele>
        <time>2019-06-11T16:51:32Z</time>
      </trkpt>
      <trkpt lat="46.1075" lon="6.59107">
        <ele>645</ele>
        <time>2019-06-11T16:51:35Z</time>
      </trkpt>
      <trkpt lat="46.10687" lon="6.59098">
        <ele>643</ele>
        <time>2019-06-11T16:51:47Z</time>
      </trkpt>
      <trkpt lat="46.10547" lon="6.59082">
        <ele>639</ele>
        <time>2019-06-11T16:52:12Z</time>
      </trkpt>
      <trkpt lat="46.10531" lon="6.59083">
        <ele>639</ele>
        <time>2019-06-11T16:52:15Z</time>
      </trkpt>
      <trkpt lat="46.10509" lon="6.59078">
        <ele>638</ele>
        <time>2019-06-11T16:52:19Z</time>
      </trkpt>
      <trkpt lat="46.10377" lon="6.59062">
        <ele>634</ele>
        <time>2019-06-11T16:52:42Z</time>
      </trkpt>
      <trkpt lat="46.09706" lon="6.58985">
        <ele>627</ele>
        <time>2019-06-11T16:54:42Z</time>
      </trkpt>
      <trkpt lat="46.09689" lon="6.58986">
        <ele>630</ele>
        <time>2019-06-11T16:54:45Z</time>
      </trkpt>
      <trkpt lat="46.09675" lon="6.58997">
        <ele>632</ele>
        <time>2019-06-11T16:54:48Z</time>
      </trkpt>
      <trkpt lat="46.09668" lon="6.59007">
        <ele>633</ele>
        <time>2019-06-11T16:54:49Z</time>
      </trkpt>
      <trkpt lat="46.09664" lon="6.59021">
        <ele>634</ele>
        <time>2019-06-11T16:54:51Z</time>
      </trkpt>
      <trkpt lat="46.09662" lon="6.59035">
        <ele>635</ele>
        <time>2019-06-11T16:54:53Z</time>
      </trkpt>
      <trkpt lat="46.09668" lon="6.59108">
        <ele>636</ele>
        <time>2019-06-11T16:55:02Z</time>
      </trkpt>
      <trkpt lat="46.09666" lon="6.5914">
        <ele>636</ele>
        <time>2019-06-11T16:55:06Z</time>
      </trkpt>
      <trkpt lat="46.09645" lon="6.59234">
        <ele>641</ele>
        <time>2019-06-11T16:55:18Z</time>
      </trkpt>
      <trkpt lat="46.09643" lon="6.59257">
        <ele>642</ele>
        <time>2019-06-11T16:55:21Z</time>
      </trkpt>
      <trkpt lat="46.09642" lon="6.59431">
        <ele>648</ele>
        <time>2019-06-11T16:55:43Z</time>
      </trkpt>
      <trkpt lat="46.09638" lon="6.5949">
        <ele>651</ele>
        <time>2019-06-11T16:55:50Z</time>
      </trkpt>
      <trkpt lat="46.09627" lon="6.59583">
        <ele>655</ele>
        <time>2019-06-11T16:56:02Z</time>
      </trkpt>
      <trkpt lat="46.09625" lon="6.5962">
        <ele>657</ele>
        <time>2019-06-11T16:56:06Z</time>
      </trkpt>
      <trkpt lat="46.09627" lon="6.59648">
        <ele>657</ele>
        <time>2019-06-11T16:56:10Z</time>
      </trkpt>
      <trkpt lat="46.09644" lon="6.59721">
        <ele>656</ele>
        <time>2019-06-11T16:56:19Z</time>
      </trkpt>
      <trkpt lat="46.09646" lon="6.5975">
        <ele>658</ele>
        <time>2019-06-11T16:56:23Z</time>
      </trkpt>
      <trkpt lat="46.09642" lon="6.59787">
        <ele>660</ele>
        <time>2019-06-11T16:56:27Z</time>
      </trkpt>
      <trkpt lat="46.09627" lon="6.59872">
        <ele>668</ele>
        <time>2019-06-11T16:56:38Z</time>
      </trkpt>
      <trkpt lat="46.09623" lon="6.59886">
        <ele>670</ele>
        <time>2019-06-11T16:56:40Z</time>
      </trkpt>
      <trkpt lat="46.09613" lon="6.59897">
        <ele>674</ele>
        <time>2019-06-11T16:56:42Z</time>
      </trkpt>
      <trkpt lat="46.09601" lon="6.59898">
        <ele>678</ele>
        <time>2019-06-11T16:56:44Z</time>
      </trkpt>
      <trkpt lat="46.09597" lon="6.59895">
        <ele>680</ele>
        <time>2019-06-11T16:56:45Z</time>
      </trkpt>
      <trkpt lat="46.0962" lon="6.59978">
        <ele>673</ele>
        <time>2019-06-11T16:56:56Z</time>
      </trkpt>
      <trkpt lat="46.09625" lon="6.60029">
        <ele>671</ele>
        <time>2019-06-11T16:57:03Z</time>
      </trkpt>
      <trkpt lat="46.09627" lon="6.6008">
        <ele>671</ele>
        <time>2019-06-11T16:57:09Z</time>
      </trkpt>
      <trkpt lat="46.09616" lon="6.6025">
        <ele>668</ele>
        <time>2019-06-11T16:57:30Z</time>
      </trkpt>
      <trkpt lat="46.09622" lon="6.60368">
        <ele>668</ele>
        <time>2019-06-11T16:57:45Z</time>
      </trkpt>
      <trkpt lat="46.09604" lon="6.60467">
        <ele>668</ele>
        <time>2019-06-11T16:57:57Z</time>
      </trkpt>
      <trkpt lat="46.09603" lon="6.60505">
        <ele>667</ele>
        <time>2019-06-11T16:58:02Z</time>
      </trkpt>
      <trkpt lat="46.09618" lon="6.60559">
        <ele>663</ele>
        <time>2019-06-11T16:58:09Z</time>
      </trkpt>
      <trkpt lat="46.0962" lon="6.60595">
        <ele>662</ele>
        <time>2019-06-11T16:58:14Z</time>
      </trkpt>
      <trkpt lat="46.09612" lon="6.60649">
        <ele>663</ele>
        <time>2019-06-11T16:58:20Z</time>
      </trkpt>
      <trkpt lat="46.09601" lon="6.60691">
        <ele>664</ele>
        <time>2019-06-11T16:58:26Z</time>
      </trkpt>
      <trkpt lat="46.09557" lon="6.60782">
        <ele>670</ele>
        <time>2019-06-11T16:58:40Z</time>
      </trkpt>
      <trkpt lat="46.09556" lon="6.60833">
        <ele>669</ele>
        <time>2019-06-11T16:58:46Z</time>
      </trkpt>
      <trkpt lat="46.09563" lon="6.60963">
        <ele>667</ele>
        <time>2019-06-11T16:59:02Z</time>
      </trkpt>
      <trkpt lat="46.0957" lon="6.61006">
        <ele>667</ele>
        <time>2019-06-11T16:59:07Z</time>
      </trkpt>
      <trkpt lat="46.09592" lon="6.6107">
        <ele>666</ele>
        <time>2019-06-11T16:59:16Z</time>
      </trkpt>
      <trkpt lat="46.09665" lon="6.61213">
        <ele>658</ele>
        <time>2019-06-11T16:59:38Z</time>
      </trkpt>
      <trkpt lat="46.09678" lon="6.61308">
        <ele>656</ele>
        <time>2019-06-11T16:59:50Z</time>
      </trkpt>
      <trkpt lat="46.0967" lon="6.61383">
        <ele>654</ele>
        <time>2019-06-11T16:59:59Z</time>
      </trkpt>
      <trkpt lat="46.09629" lon="6.61556">
        <ele>653</ele>
        <time>2019-06-11T17:00:22Z</time>
      </trkpt>
      <trkpt lat="46.09577" lon="6.61706">
        <ele>657</ele>
        <time>2019-06-11T17:00:43Z</time>
      </trkpt>
      <trkpt lat="46.09577" lon="6.61764">
        <ele>651</ele>
        <time>2019-06-11T17:00:50Z</time>
      </trkpt>
      <trkpt lat="46.09598" lon="6.61847">
        <ele>645</ele>
        <time>2019-06-11T17:01:01Z</time>
      </trkpt>
      <trkpt lat="46.09593" lon="6.61927">
        <ele>643</ele>
        <time>2019-06-11T17:01:11Z</time>
      </trkpt>
      <trkpt lat="46.09588" lon="6.61973">
        <ele>643</ele>
        <time>2019-06-11T17:01:16Z</time>
      </trkpt>
      <trkpt lat="46.09569" lon="6.62105">
        <ele>643</ele>
        <time>2019-06-11T17:01:33Z</time>
      </trkpt>
      <trkpt lat="46.09562" lon="6.6219">
        <ele>645</ele>
        <time>2019-06-11T17:01:44Z</time>
      </trkpt>
      <trkpt lat="46.09566" lon="6.62633">
        <ele>639</ele>
        <time>2019-06-11T17:02:38Z</time>
      </trkpt>
      <trkpt lat="46.09565" lon="6.62704">
        <ele>641</ele>
        <time>2019-06-11T17:02:47Z</time>
      </trkpt>
      <trkpt lat="46.0953" lon="6.62996">
        <ele>640</ele>
        <time>2019-06-11T17:03:24Z</time>
      </trkpt>
      <trkpt lat="46.09519" lon="6.63091">
        <ele>639</ele>
        <time>2019-06-11T17:03:35Z</time>
      </trkpt>
      <trkpt lat="46.09514" lon="6.63128">
        <ele>640</ele>
        <time>2019-06-11T17:03:40Z</time>
      </trkpt>
      <trkpt lat="46.09506" lon="6.63165">
        <ele>641</ele>
        <time>2019-06-11T17:03:45Z</time>
      </trkpt>
      <trkpt lat="46.09482" lon="6.63242">
        <ele>644</ele>
        <time>2019-06-11T17:03:55Z</time>
      </trkpt>
      <trkpt lat="46.09429" lon="6.63372">
        <ele>646</ele>
        <time>2019-06-11T17:04:14Z</time>
      </trkpt>
      <trkpt lat="46.09408" lon="6.63446">
        <ele>648</ele>
        <time>2019-06-11T17:04:24Z</time>
      </trkpt>
      <trkpt lat="46.09383" lon="6.63631">
        <ele>653</ele>
        <time>2019-06-11T17:04:47Z</time>
      </trkpt>
      <trkpt lat="46.09369" lon="6.63696">
        <ele>653</ele>
        <time>2019-06-11T17:04:55Z</time>
      </trkpt>
      <trkpt lat="46.09326" lon="6.63847">
        <ele>648</ele>
        <time>2019-06-11T17:05:16Z</time>
      </trkpt>
      <trkpt lat="46.09321" lon="6.63881">
        <ele>649</ele>
        <time>2019-06-11T17:05:20Z</time>
      </trkpt>
      <trkpt lat="46.09319" lon="6.63912">
        <ele>649</ele>
        <time>2019-06-11T17:05:24Z</time>
      </trkpt>
      <trkpt lat="46.09324" lon="6.64039">
        <ele>645</ele>
        <time>2019-06-11T17:05:39Z</time>
      </trkpt>
      <trkpt lat="46.09323" lon="6.64103">
        <ele>644</ele>
        <time>2019-06-11T17:05:47Z</time>
      </trkpt>
      <trkpt lat="46.09307" lon="6.64613">
        <ele>648</ele>
        <time>2019-06-11T17:06:50Z</time>
      </trkpt>
      <trkpt lat="46.09231" lon="6.64951">
        <ele>652</ele>
        <time>2019-06-11T17:07:34Z</time>
      </trkpt>
      <trkpt lat="46.09119" lon="6.65499">
        <ele>650</ele>
        <time>2019-06-11T17:08:45Z</time>
      </trkpt>
      <trkpt lat="46.09108" lon="6.65543">
        <ele>651</ele>
        <time>2019-06-11T17:08:50Z</time>
      </trkpt>
      <trkpt lat="46.09105" lon="6.65552">
        <ele>652</ele>
        <time>2019-06-11T17:08:52Z</time>
      </trkpt>
      <trkpt lat="46.09074" lon="6.65621">
        <ele>654</ele>
        <time>2019-06-11T17:09:02Z</time>
      </trkpt>
      <trkpt lat="46.0905" lon="6.65668">
        <ele>654</ele>
        <time>2019-06-11T17:09:09Z</time>
      </trkpt>
      <trkpt lat="46.09034" lon="6.65708">
        <ele>655</ele>
        <time>2019-06-11T17:09:15Z</time>
      </trkpt>
      <trkpt lat="46.0898" lon="6.65941">
        <ele>655</ele>
        <time>2019-06-11T17:09:45Z</time>
      </trkpt>
      <trkpt lat="46.08942" lon="6.66034">
        <ele>655</ele>
        <time>2019-06-11T17:09:58Z</time>
      </trkpt>
      <trkpt lat="46.08743" lon="6.66508">
        <ele>664</ele>
        <time>2019-06-11T17:11:07Z</time>
      </trkpt>
      <trkpt lat="46.08712" lon="6.66623">
        <ele>672</ele>
        <time>2019-06-11T17:11:22Z</time>
      </trkpt>
      <trkpt lat="46.08668" lon="6.66808">
        <ele>667</ele>
        <time>2019-06-11T17:11:46Z</time>
      </trkpt>
      <trkpt lat="46.08662" lon="6.66808">
        <ele>668</ele>
        <time>2019-06-11T17:11:47Z</time>
      </trkpt>
      <trkpt lat="46.08658" lon="6.66812">
        <ele>668</ele>
        <time>2019-06-11T17:11:48Z</time>
      </trkpt>
      <trkpt lat="46.08656" lon="6.6682">
        <ele>668</ele>
        <time>2019-06-11T17:11:49Z</time>
      </trkpt>
      <trkpt lat="46.08656" lon="6.66824">
        <ele>668</ele>
        <time>2019-06-11T17:11:50Z</time>
      </trkpt>
      <trkpt lat="46.08659" lon="6.66831">
        <ele>667</ele>
        <time>2019-06-11T17:11:51Z</time>
      </trkpt>
      <trkpt lat="46.08662" lon="6.66833">
        <ele>667</ele>
        <time>2019-06-11T17:11:51Z</time>
      </trkpt>
      <trkpt lat="46.08642" lon="6.66889">
        <ele>669</ele>
        <time>2019-06-11T17:11:59Z</time>
      </trkpt>
      <trkpt lat="46.08567" lon="6.67023">
        <ele>670</ele>
        <time>2019-06-11T17:12:20Z</time>
      </trkpt>
      <trkpt lat="46.08548" lon="6.67065">
        <ele>671</ele>
        <time>2019-06-11T17:12:26Z</time>
      </trkpt>
      <trkpt lat="46.08538" lon="6.67092">
        <ele>672</ele>
        <time>2019-06-11T17:12:30Z</time>
      </trkpt>
      <trkpt lat="46.08493" lon="6.67165">
        <ele>672</ele>
        <time>2019-06-11T17:12:42Z</time>
      </trkpt>
      <trkpt lat="46.08487" lon="6.67179">
        <ele>674</ele>
        <time>2019-06-11T17:12:44Z</time>
      </trkpt>
      <trkpt lat="46.08481" lon="6.672">
        <ele>675</ele>
        <time>2019-06-11T17:12:47Z</time>
      </trkpt>
      <trkpt lat="46.08474" lon="6.67243">
        <ele>675</ele>
        <time>2019-06-11T17:12:52Z</time>
      </trkpt>
      <trkpt lat="46.08463" lon="6.67284">
        <ele>676</ele>
        <time>2019-06-11T17:12:58Z</time>
      </trkpt>
      <trkpt lat="46.08455" lon="6.67311">
        <ele>676</ele>
        <time>2019-06-11T17:13:02Z</time>
      </trkpt>
      <trkpt lat="46.08435" lon="6.67353">
        <ele>678</ele>
        <time>2019-06-11T17:13:08Z</time>
      </trkpt>
      <trkpt lat="46.0843" lon="6.67372">
        <ele>678</ele>
        <time>2019-06-11T17:13:10Z</time>
      </trkpt>
      <trkpt lat="46.08425" lon="6.67434">
        <ele>681</ele>
        <time>2019-06-11T17:13:18Z</time>
      </trkpt>
      <trkpt lat="46.08407" lon="6.67501">
        <ele>686</ele>
        <time>2019-06-11T17:13:27Z</time>
      </trkpt>
      <trkpt lat="46.08397" lon="6.67534">
        <ele>687</ele>
        <time>2019-06-11T17:13:31Z</time>
      </trkpt>
      <trkpt lat="46.08383" lon="6.6757">
        <ele>687</ele>
        <time>2019-06-11T17:13:36Z</time>
      </trkpt>
      <trkpt lat="46.08351" lon="6.67643">
        <ele>687</ele>
        <time>2019-06-11T17:13:47Z</time>
      </trkpt>
      <trkpt lat="46.08328" lon="6.6772">
        <ele>686</ele>
        <time>2019-06-11T17:13:57Z</time>
      </trkpt>
      <trkpt lat="46.08308" lon="6.67751">
        <ele>686</ele>
        <time>2019-06-11T17:14:03Z</time>
      </trkpt>
      <trkpt lat="46.08245" lon="6.67892">
        <ele>684</ele>
        <time>2019-06-11T17:14:23Z</time>
      </trkpt>
      <trkpt lat="46.08212" lon="6.68008">
        <ele>684</ele>
        <time>2019-06-11T17:14:39Z</time>
      </trkpt>
      <trkpt lat="46.08191" lon="6.68062">
        <ele>686</ele>
        <time>2019-06-11T17:14:46Z</time>
      </trkpt>
      <trkpt lat="46.08168" lon="6.68152">
        <ele>687</ele>
        <time>2019-06-11T17:14:58Z</time>
      </trkpt>
      <trkpt lat="46.08165" lon="6.68185">
        <ele>687</ele>
        <time>2019-06-11T17:15:02Z</time>
      </trkpt>
      <trkpt lat="46.08163" lon="6.68227">
        <ele>687</ele>
        <time>2019-06-11T17:15:08Z</time>
      </trkpt>
      <trkpt lat="46.08155" lon="6.68305">
        <ele>689</ele>
        <time>2019-06-11T17:15:17Z</time>
      </trkpt>
      <trkpt lat="46.0814" lon="6.68395">
        <ele>692</ele>
        <time>2019-06-11T17:15:29Z</time>
      </trkpt>
      <trkpt lat="46.08134" lon="6.68476">
        <ele>694</ele>
        <time>2019-06-11T17:15:39Z</time>
      </trkpt>
      <trkpt lat="46.08136" lon="6.68498">
        <ele>694</ele>
        <time>2019-06-11T17:15:42Z</time>
      </trkpt>
      <trkpt lat="46.08163" lon="6.68693">
        <ele>694</ele>
        <time>2019-06-11T17:16:06Z</time>
      </trkpt>
      <trkpt lat="46.08177" lon="6.68803">
        <ele>693</ele>
        <time>2019-06-11T17:16:20Z</time>
      </trkpt>
      <trkpt lat="46.08179" lon="6.68846">
        <ele>694</ele>
        <time>2019-06-11T17:16:25Z</time>
      </trkpt>
      <trkpt lat="46.08172" lon="6.68979">
        <ele>703</ele>
        <time>2019-06-11T17:16:42Z</time>
      </trkpt>
      <trkpt lat="46.08165" lon="6.69035">
        <ele>704</ele>
        <time>2019-06-11T17:16:49Z</time>
      </trkpt>
      <trkpt lat="46.08148" lon="6.69132">
        <ele>702</ele>
        <time>2019-06-11T17:17:01Z</time>
      </trkpt>
      <trkpt lat="46.0814" lon="6.69168">
        <ele>701</ele>
        <time>2019-06-11T17:17:06Z</time>
      </trkpt>
      <trkpt lat="46.08109" lon="6.69288">
        <ele>695</ele>
        <time>2019-06-11T17:17:22Z</time>
      </trkpt>
      <trkpt lat="46.0805" lon="6.6954">
        <ele>685</ele>
        <time>2019-06-11T17:17:54Z</time>
      </trkpt>
      <trkpt lat="46.07982" lon="6.69814">
        <ele>687</ele>
        <time>2019-06-11T17:18:30Z</time>
      </trkpt>
      <trkpt lat="46.07741" lon="6.70858">
        <ele>708</ele>
        <time>2019-06-11T17:20:46Z</time>
      </trkpt>
      <trkpt lat="46.0772" lon="6.70983">
        <ele>719</ele>
        <time>2019-06-11T17:21:02Z</time>
      </trkpt>
      <trkpt lat="46.07649" lon="6.71453">
        <ele>718</ele>
        <time>2019-06-11T17:22:01Z</time>
      </trkpt>
      <trkpt lat="46.07596" lon="6.71789">
        <ele>734</ele>
        <time>2019-06-11T17:22:44Z</time>
      </trkpt>
      <trkpt lat="46.07594" lon="6.7182">
        <ele>730</ele>
        <time>2019-06-11T17:22:48Z</time>
      </trkpt>
      <trkpt lat="46.07598" lon="6.71835">
        <ele>727</ele>
        <time>2019-06-11T17:22:50Z</time>
      </trkpt>
      <trkpt lat="46.07601" lon="6.71841">
        <ele>725</ele>
        <time>2019-06-11T17:22:51Z</time>
      </trkpt>
      <trkpt lat="46.07644" lon="6.71882">
        <ele>707</ele>
        <time>2019-06-11T17:23:00Z</time>
      </trkpt>
      <trkpt lat="46.07678" lon="6.71923">
        <ele>698</ele>
        <time>2019-06-11T17:23:08Z</time>
      </trkpt>
      <trkpt lat="46.07676" lon="6.71938">
        <ele>698</ele>
        <time>2019-06-11T17:23:10Z</time>
      </trkpt>
      <trkpt lat="46.07674" lon="6.71944">
        <ele>698</ele>
        <time>2019-06-11T17:23:10Z</time>
      </trkpt>
      <trkpt lat="46.07673" lon="6.71943">
        <ele>698</ele>
        <time>2019-06-11T17:23:11Z</time>
      </trkpt>
      <trkpt lat="46.07674" lon="6.71944">
        <ele>698</ele>
        <time>2019-06-11T17:23:11Z</time>
      </trkpt>
      <trkpt lat="46.07668" lon="6.71962">
        <ele>699</ele>
        <time>2019-06-11T17:23:13Z</time>
      </trkpt>
      <trkpt lat="46.07663" lon="6.71985">
        <ele>700</ele>
        <time>2019-06-11T17:23:16Z</time>
      </trkpt>
      <trkpt lat="46.07663" lon="6.71998">
        <ele>700</ele>
        <time>2019-06-11T17:23:18Z</time>
      </trkpt>
      <trkpt lat="46.07665" lon="6.72013">
        <ele>700</ele>
        <time>2019-06-11T17:23:20Z</time>
      </trkpt>
      <trkpt lat="46.07785" lon="6.72442">
        <ele>700</ele>
        <time>2019-06-11T17:24:17Z</time>
      </trkpt>
      <trkpt lat="46.07797" lon="6.72476">
        <ele>701</ele>
        <time>2019-06-11T17:24:22Z</time>
      </trkpt>
      <trkpt lat="46.07809" lon="6.72494">
        <ele>702</ele>
        <time>2019-06-11T17:24:25Z</time>
      </trkpt>
      <trkpt lat="46.07852" lon="6.72529">
        <ele>702</ele>
        <time>2019-06-11T17:24:33Z</time>
      </trkpt>
    </trkseg>
  </trk>
</gpx>